     2.11           OBSERVATION DATA    G (GPS)             RINEX VERSION / TYPE
teqc 2010Oct21 OPUS Account 20111025 20:08:02UTC            PGM / RUN BY / DATE
Q 1522                                                      MARKER NAME
1170                                                        MARKER NUMBER
DBPROUTY NGS                                                OBSERVER / AGENCY
0220390614 TRIMBLE R7 2.32                                  REC # / TYPE / VERS
12668881 TRM41249.00 NONE                                   ANT # / TYPE
  -738054.1873 -5496299.5247  3140267.8144                  APPROX POSITION XYZ
        2.0000        0.0000        0.0000                  ANTENNA: DELTA H/E/N
     1     1                                                WAVELENGTH FACT L1/2
     5    L1    L2    C1    P1    P2                        # / TYPES OF OBSERV
    15                                                      LEAP SECONDS
  2011     7    28     0     0   30.0000000     GPS         TIME OF FIRST OBS
                                                            END OF HEADER
 11  7 28  0  0 30.0000000  0  8G09G28G10G17G04G27G20G02
 -29594194.92657 -22738932.34855  22313911.0634                   22313909.7154
-115446149.77758 -89906980.38355  21915670.5084                   21915668.8754
 -13686521.62156 -10613203.96153  23637282.0704                   23637284.5744
 -90568309.98858 -70522070.35256  21514535.8914                   21514534.4064
 -64579135.48858 -50270326.36356  20026215.4064                   20026214.3054
 -45321411.12558 -34879606.39555  22542516.3134                   22542515.3674
 -27456582.53156 -21351018.92253  24348976.8284                   24348975.0944
 -30055709.03158 -23366335.94555  22431037.7114                   22431035.9534
 11  7 28  0  1  0.0000000  0  8G09G28G10G17G04G27G20G02
 -29742123.48047 -22854201.34045  22285760.9534                   22285759.9964
-115515881.82848 -89961317.07445  21902401.4924                   21902399.2344
 -13899453.06646 -10779124.41443  23596763.4304                   23596765.1724
 -90656935.90648 -70591129.52346  21497671.0084                   21497669.1484
 -64712363.14848 -50374140.12146  20000862.7664                   20000861.4734
 -45452206.45747 -34981524.84045  22517626.3284                   22517626.0594
 -27540729.55146 -21416588.03942  24332963.1174                   24332962.1994
 -30254367.27348 -23521134.48045  22393234.5164                   22393232.5824
 11  7 28  0  1 30.0000000  0  8G09G28G10G17G04G27G20G02
 -29889270.06247 -22968861.00445  22257759.6804                   22257758.2344
-115585089.96948 -90015245.51645  21889230.8754                   21889229.3014
 -14112187.11346 -10944891.07843  23556281.0164                   23556283.3754
 -90745321.52748 -70660001.45746  21480851.8594                   21480850.2274
 -64844868.39148 -50477390.94546  19975647.9064                   19975646.8594
 -45582360.55548 -35082943.64545  22492859.0704                   22492858.4924
 -27624234.40246 -21481656.75843  24317072.9614                   24317072.0004
 -30452582.47748 -23675587.77345  22355515.2344                   22355513.5634
 11  7 28  0  2  0.0000000  0  8G09G28G10G17G04G27G20G02
 -30035649.64147 -23082923.01645  22229904.7894                   22229903.4734
-115653790.14547 -90068778.14845  21876158.1954                   21876156.3284
 -14324736.47747 -11110513.84844  23515834.6254                   23515836.0824
 -90833482.72348 -70728698.51646  21464075.6564                   21464073.5704
 -64976667.55148 -50580091.58247  19950567.4224                   19950566.1954
 -45711889.62547 -35183875.40245  22468210.6414                   22468210.4884
 -27707113.90246 -21546238.24243  24301300.8444                   24301300.1054
 -30650369.18448 -23829707.19545  22317877.5164                   22317875.6254
 11  7 28  0  2 30.0000000  0  8G09G28G10G17G04G27G20G02
 -30181261.21147 -23196386.56245  22202195.4844                   22202194.3284
-115721982.09047 -90121914.76645  21863181.4384                   21863180.1134
 -14537097.96147 -11275990.21144  23475423.0084                   23475424.6994
 -90921420.12148 -70797221.16846  21447341.6564                   21447339.8554
 -65107760.66848 -50682242.04346  19925621.2504                   19925619.7974
 -45840793.50047 -35284319.99245  22443681.0314                   22443680.5084
 -27789368.21946 -21610332.51643  24285648.4304                   24285647.6684
 -30847725.52348 -23983491.25045  22280322.1024                   22280320.3364
 11  7 28  0  3  0.0000000  0  8G09G28G10G17G04G27G20G02
 -30326102.26247 -23309249.69545  22174633.3914                   22174632.6294
-115789663.54347 -90174653.59445  21850302.2584                   21850300.3984
 -14749265.94947 -11441315.77344  23435048.9694                   23435050.2974
 -91009131.50048 -70865567.69946  21430650.7424                   21430648.7304
 -65238146.12548 -50783841.09446  19900810.0234                   19900808.6024
 -45969070.02347 -35384275.72745  22419271.0314                   22419269.8954
 -27870996.04746 -21673938.62143  24270115.7424                   24270114.7034
 -31044648.44148 -24136937.58645  22242848.2274                   22242846.7074
 11  7 28  0  3 30.0000000  0  8G09G28G10G17G04G27G20G02
 -30470170.36747 -23421510.55545  22147218.2974                   22147217.8794
-115856832.78148 -90226993.28145  21837520.2664                   21837518.7664
 -14961235.62947 -11606486.81644  23394712.5234                   23394713.4844
 -91096615.69948 -70933737.21146  21414003.0394                   21414001.1914
 -65367822.63748 -50884887.70346  19876132.9534                   19876131.7194
 -46096717.48047 -35483741.27345  22394980.6024                   22394979.8444
 -27951996.30546 -21737055.73043  24254702.0634                   24254700.7584
 -31241134.90248 -24290043.82845  22205458.2974                   22205456.3834
 11  7 28  0  4  0.0000000  0  8G09G28G10G17G04G27G20G02
 -30613466.87947 -23533170.17245  22119949.2424                   22119949.4304
-115923491.53148 -90278935.19145  21824835.6724                   21824833.8834
 -15173005.82847 -11771502.43044  23354413.6564                   23354415.2344
 -91183874.53548 -71001731.11746  21397397.8134                   21397396.1374
 -65496792.17648 -50985383.43746  19851591.0554                   19851589.6174
 -46223737.60547 -35582717.99245  22370809.5944                   22370808.7934
 -28032371.57046 -21799685.82443  24239406.9454                   24239406.1644
 -31437185.20348 -24442810.20345  22168151.2584                   22168149.3674
 11  7 28  0  4 30.0000000  0  8G09G28G10G17G04G27G20G02
 -30755990.59847 -23644227.61345  22092827.9454                   22092828.2664
-115989639.10247 -90330478.78145  21812248.3594                   21812246.6094
 -15384572.61747 -11936359.52344  23314154.0004                   23314155.7774
 -91270907.81648 -71069549.27346  21380836.3594                   21380834.3554
 -65625054.46148 -51085328.05546  19827183.6094                   19827182.2854
 -46350129.89847 -35681205.49245  22346757.1724                   22346757.0124
 -28112121.81646 -21861828.91043  24224231.6954                   24224230.3244
 -31632797.43048 -24595235.24245  22130927.3594                   22130925.7194
 11  7 28  0  5  0.0000000  0  8G09G28G10G17G04G27G20G02
 -30897745.93047 -23754686.31245  22065852.9064                   22065853.2154
-116055280.16047 -90381627.68445  21799756.9304                   21799755.6994
 -15595937.09847 -12101059.00044  23273932.8054                   23273933.3984
 -91357720.34048 -71137195.39546  21364316.5634                   21364314.5044
 -65752614.68748 -51184725.61347  19802909.4694                   19802908.2584
 -46475899.29347 -35779207.61345  22322824.3204                   22322823.5664
 -28191252.50446 -21923489.21943  24209172.1644                   24209171.7734
 -31827974.95748 -24747321.53145  22093786.6254                   22093784.3244
 11  7 28  0  5 30.0000000  0  8G09G28G10G17G04G27G20G02
 -31038730.81647 -23864544.67645  22039024.5474                   22039025.5354
-116120413.58647 -90432381.04345  21787362.1094                   21787360.9384
 -15807094.93447 -12265597.43444  23233750.2344                   23233751.2154
 -91444311.49648 -71204669.04346  21347838.8444                   21347837.0234
 -65879472.28948 -51283575.67647  19778769.5944                   19778768.3284
 -46601044.71947 -35876723.52345  22299010.0234                   22299009.6094
 -28269763.14146 -21984666.37943  24194233.5554                   24194231.8484
 -32022715.35248 -24899067.21145  22056728.4144                   22056726.6764
 11  7 28  0  6  0.0000000  0  8G09G28G10G17G04G27G20G02
 -31178941.27347 -23973799.59845  22012343.6804                   22012344.5354
-116185036.27047 -90482736.41045  21775065.3364                   21775063.3754
 -16018039.79747 -12429969.91844  23193609.0944                   23193610.3524
 -91530677.90248 -71271967.55146  21331403.7034                   21331402.1524
 -66005624.39848 -51381876.00446  19754763.6644                   19754762.2034
 -46725563.14147 -35973750.85545  22275315.0234                   22275314.4304
 -28347651.30546 -22045358.45743  24179411.7974                   24179410.6644
 -32217014.02348 -25050468.69945  22019754.8444                   22019752.2894
 11  7 28  0  6 30.0000000  0  8G09G28G10G17G04G27G20G02
 -29742953.35947 -22854847.97745  22285602.6804                   22285603.1914
-114673727.01647 -89305092.87545  22062657.8284                   22062656.0394
 -14653341.96947 -11366568.89844  23453301.8674                   23453302.7274
 -90041397.86748 -70111489.61346  21614804.2504                   21614802.5594
 -64555648.00448 -50252024.25446  20030684.6954                   20030683.2734
 -45274031.11347 -34842686.93445  22551532.1804                   22551531.6054
 -26849496.02346 -20877964.73443  24464500.0004                   24464500.3164
 -30835443.96548 -23973920.50845  22282658.1024                   22282656.1684
 11  7 28  0  7  0.0000000  0  8G09G28G10G17G04G27G20G02
 -29881614.53548 -22962895.66845  22259216.6414                   22259216.6094
-114737328.21548 -89354652.30145  22050555.5084                   22050553.5784
 -14863851.16846 -11530601.87744  23413242.7664                   23413243.9144
 -90127315.72748 -70178438.60546  21598454.4144                   21598452.8754
 -64680390.50448 -50349226.18046  20006946.9454                   20006946.0664
 -45397295.97347 -34938737.46545  22528075.9144                   22528075.5824
 -26926141.91046 -20937688.80943  24449915.6254                   24449914.7034
 -31028855.33648 -24124630.58646  22245853.4774                   22245851.6484
 11  7 28  0  7 30.0000000  0  8G09G28G10G17G04G27G20G02
 -30019500.61347 -23070339.38345  22232977.6414                   22232977.8014
-114800418.68047 -89403813.74245  22038549.4534                   22038548.4344
 -15074137.89546 -11694461.52744  23373226.5474                   23373228.5634
 -90213009.80548 -70245213.22746  21582147.8444                   21582145.9924
 -64804429.31248 -50445879.78546  19983343.0864                   19983341.6884
 -45519934.57847 -35034300.03145  22504738.3054                   22504737.2974
 -27002167.78146 -20996929.77743  24435448.1564                   24435447.8484
 -31221821.13348 -24274993.45745  22209133.3444                   22209130.4534
 11  7 28  0  8  0.0000000  0  8G09G28G10G17G04G27G20G02
 -30156611.96947 -23177179.43045  22206886.3284                   22206886.3714
-114862999.48447 -89452578.04345  22026640.3754                   22026639.3484
 -15284199.60546 -11858145.81644  23333252.7034                   23333255.1094
 -90298481.31648 -70311814.42646  21565883.4224                   21565881.3404
 -64927765.68448 -50541986.03946  19959873.0784                   19959872.0234
 -45641947.86747 -35129375.32845  22481519.8364                   22481519.8054
 -27077575.58646 -21055689.09443  24421098.7344                   24421097.9694
 -31414340.89848 -24425008.77346  22172498.1954                   22172496.1524
 11  7 28  0  8 30.0000000  0  8G09G28G10G17G04G27G20G02
 -30292942.89147 -23283411.34445  22180943.0084                   22180942.8054
-114925065.25847 -89500941.03945  22014829.9774                   22014828.5204
 -15494027.74246 -12021648.12544  23293324.0864                   23293325.6414
 -90383725.04348 -70378238.11346  21549661.8284                   21549660.0084
 -65050394.75048 -50637541.13747  19936537.4304                   19936536.0314
 -45763330.73447 -35223959.39545  22458421.9924                   22458421.5394
 -27152360.79346 -21113963.29343  24406868.0004                   24406866.4574
 -31606408.15248 -24574671.48446  22135948.9144                   22135946.8484
 11  7 28  0  9  0.0000000  0  8G09G28G10G17G04G27G20G02
 -30428489.39147 -23389032.01245  22155149.3914                   22155149.5474
-114986612.57447 -89548900.02345  22003118.2344                   22003116.3554
 -15703615.52046 -12184963.14544  23253440.5084                   23253441.5164
 -90468737.18048 -70444481.35246  21533484.1094                   21533482.2934
 -65172313.71148 -50732542.91446  19913337.3834                   19913336.1254
 -45884079.93447 -35318049.68045  22435444.2194                   22435443.3554
 -27226520.66446 -21171750.20343  24392755.8364                   24392754.2774
 -31798018.24248 -24723977.96145  22099486.5394                   22099484.2034
 11  7 28  0  9 30.0000000  0  8G09G28G10G17G04G27G20G02
 -30563249.36347 -23494039.81245  22129506.4144                   22129504.6454
-115047639.58247 -89596453.59445  21991505.2664                   21991503.5044
 -15912957.48846 -12348086.62144  23213604.2974                   23213605.9344
 -90553516.23048 -70510542.96546  21517351.4064                   21517349.8984
 -65293520.91848 -50826990.07447  19890272.3364                   19890270.7304
 -46004193.60947 -35411644.75845  22412587.0164                   22412586.7234
 -27300054.04746 -21229048.97743  24378762.8134                   24378762.1134
 -31989167.86348 -24872925.65246  22063111.8524                   22063109.1724
 11  7 28  0 10  0.0000000  0  8G09G28G10G17G04G27G20G02
 -30697218.89147 -23598431.66045  22104012.0634                   22104011.0594
-115108142.64847 -89643598.88345  21979991.6024                   21979990.0044
 -16122046.62146 -12511013.08244  23173815.3204                   23173816.8444
 -90638058.69948 -70576420.21946  21501264.1174                   21501261.7584
 -65414013.82848 -50920880.64146  19867343.0234                   19867342.0554
 -46123668.60547 -35504742.17245  22389852.2114                   22389851.4414
 -27372958.24646 -21285857.43043  24364889.9144                   24364888.8794
 -32179852.20348 -25021510.75845  22026825.3284                   22026823.6294
 11  7 28  0 10 30.0000000  0  8G09G28G10G17G04G27G20G02
 -30830394.48047 -23702204.86345  22078669.3054                   22078667.7344
-115168118.78947 -89690333.59845  21968578.6024                   21968577.0984
 -16330876.31647 -12673737.43744  23134077.2814                   23134077.4384
 -90722361.07848 -70642110.39846  21485221.2424                   21485219.3444
 -65533789.58248 -51014212.38746  19844550.7894                   19844549.1024
 -46242502.10547 -35597339.70345  22367238.3284                   22367237.7814
 -27445231.04146 -21342173.94943  24351136.2424                   24351136.2154
 -32370066.44148 -25169729.57045  21990628.8594                   21990626.8134
 11  7 28  0 11  0.0000000  0  8G09G28G10G17G04G27G20G02
 -30962769.67247 -23805354.36745  22053479.5004                   22053478.3674
-115227561.50047 -89736652.64845  21957267.1414                   21957265.8914
 -16539436.92247 -12836252.05944  23094388.8364                   23094390.2274
 -90806417.78548 -70707609.14146  21469225.7584                   21469224.1604
 -65652842.37148 -51106980.77746  19821895.5634                   19821894.2384
 -46360687.85547 -35689432.52045  22344749.0234                   22344748.2704
 -27516866.85246 -21397994.07043  24337504.0864                   24337503.7934
 -32559803.21548 -25317576.33245  21954523.2034                   21954521.0164
 11  7 28  0 11 30.0000000  0  8G09G28G10G17G04G27G20G02
 -31094350.12947 -23907884.59045  22028440.6254                   22028439.0124
-115286476.84047 -89782560.73845  21946055.8674                   21946054.7074
 -16747731.26247 -12998559.18744  23054751.8524                   23054752.7034
 -90890234.54748 -70772920.90246  21453276.0004                   21453274.4614
 -65771178.85248 -51199191.00846  19799377.0784                   19799375.7584
 -46478232.10547 -35781025.46145  22322380.3204                   22322380.0984
 -27587872.58646 -21453323.27043  24323991.7504                   24323991.5824
 -32749067.19148 -25465054.67245  21918507.8444                   21918505.2464
 11  7 28  0 12  0.0000000  0  8G09G28G10G17G04G27G20G02
 -31225130.37147 -24009791.28145  22003553.8754                   22003552.5474
-115344859.91847 -89828054.09445  21934946.2504                   21934944.5044
 -16955750.49647 -13160652.01244  23015167.0004                   23015167.9964
 -90973806.02348 -70838041.54346  21437372.5944                   21437371.0274
 -65888794.66048 -51290839.67246  19776995.2894                   19776994.1374
 -46595129.91847 -35872114.68745  22300135.4694                   22300135.7114
 -27658244.00046 -21508158.11743  24310601.7194                   24310600.3674
 -32937851.64148 -25612159.36745  21882583.0474                   21882580.4694
 11  7 28  0 12 30.0000000  0  8G09G28G10G17G04G27G20G02
 -31355113.21147 -24111076.60545  21978818.6334                   21978818.3014
-115402713.59847 -89873134.93445  21923936.8594                   21923935.0984
 -17163494.14847 -13322530.09444  22975635.1414                   22975635.1804
 -91057135.46948 -70902973.59846  21421516.1414                   21421514.3014
 -66005693.04348 -51381929.30546  19754750.0394                   19754749.0394
 -46711384.57847 -35962702.75045  22278012.9534                   22278012.9804
 -27727984.95346 -21562501.73443  24297330.2424                   24297329.1174
 -33126158.58248 -25758891.96945  21846749.3754                   21846747.0474
 11  7 28  0 13  0.0000000  0  8G09G28G10G17G04G27G20G02
 -31484295.41847 -24211738.04345  21954236.7894                   21954236.2734
-115460035.07847 -89917801.06645  21913028.5634                   21913027.3134
 -17370955.59447 -13484188.22744  22936155.8284                   22936156.7344
 -91140219.51647 -70967714.42246  21405705.6174                   21405703.7734
 -66121871.66848 -51472458.09447  19732642.0944                   19732640.8714
 -46826993.34847 -36052787.51245  22256013.7194                   22256013.1334
 -27797093.16446 -21616352.32443  24284179.1564                   24284178.0314
 -33313983.52748 -25905249.00045  21811007.3914                   21811004.8874
 11  7 28  0 13 30.0000000  0  8G09G28G10G17G04G27G20G02
 -30037256.72747 -23084175.43445  22229598.2814                   22229598.5434
-113941406.28947 -88734454.02745  22202014.3204                   22202013.0744
 -16002709.19547 -12418022.09044  23196524.7814                   23196526.2734
 -89647639.78147 -69804665.28546  21689734.0944                   21689732.2814
 -64661911.93048 -50334827.10946  20010463.2504                   20010461.7894
 -45366537.16447 -34914769.73045  22533929.1024                   22533928.5084
 -26290151.77346 -20442112.28543  24570939.9144                   24570939.7934
 -31925903.37548 -24823628.03145  22075150.5554                   22075147.8794
 11  7 28  0 14  0.0000000  0  9G09G28G10G17G12G04G27G20G02
 -30164852.16047 -23183600.43445  22205318.1484                   22205318.3714
-113997678.25447 -88778302.35545  22191306.8594                   22191304.9304
 -16209611.60547 -12579244.64544  23157152.3754                   23157153.0594
 -89730248.33247 -69869035.59846  21674014.6254                   21674012.5474
   2834458.73056   2287102.93853  24752268.4774                   24752266.6454
 -64776668.70748 -50424247.95746  19988625.6174                   19988624.3794
 -45480870.33647 -35003860.53945  22512172.4304                   22512171.4654
 -26358012.62946 -20494990.88743  24558027.5394                   24558026.6564
 -32112775.59048 -24969242.69545  22039589.4454                   22039587.6294
 11  7 28  0 14 30.0000000  0  9G09G28G10G17G12G04G27G20G02
 -30291660.35248 -23282412.00445  22181187.2734                   22181188.1484
-114053432.19947 -88821747.04345  22180696.9454                   22180694.9694
 -16416235.29347 -12740249.99644  23117832.6804                   23117834.5234
 -89812625.20347 -69933225.36346  21658338.3594                   21658336.3634
   2622034.27346   2121577.46143  24711844.8364                   24711844.4654
 -64890721.47348 -50513120.21946  19966922.1094                   19966920.6994
 -45594572.45347 -35092459.60545  22490535.7274                   22490534.8834
 -26425257.54346 -20547389.52343  24545231.1414                   24545230.3554
 -32299175.73448 -25114489.49646  22004118.7274                   22004116.0784
 11  7 28  0 15  0.0000000  0  9G09G28G10G17G12G04G27G20G02
 -30417691.93447 -23380618.43445  22157204.6024                   22157204.3444
-114108678.67247 -88864796.29345  22170183.8674                   22170182.3674
 -16622587.39547 -12901043.69544  23078565.3754                   23078565.9494
 -89894781.14847 -69997242.98846  21642704.9224                   21642702.5904
   2409725.02046   1956141.77343  24671444.3594                   24671443.4574
 -65004081.85248 -50601452.96946  19945350.2664                   19945348.8244
 -45707654.53547 -35180575.53945  22469016.5864                   22469015.9694
 -26491897.96146 -20599317.12943  24532549.7114                   24532549.0664
 -32485113.41048 -25259375.94146  21968736.0704                   21968733.1564
 11  7 28  0 15 30.0000000  0  9G09G28G10G17G12G04G27G20G02
 -30542952.57447 -23478224.11345  22133368.2114                   22133368.2544
-114163423.50847 -88907454.67245  22159765.8914                   22159765.0944
 -16828670.09046 -13061627.50844  23039348.6724                   23039350.2074
 -89976721.98048 -70061092.98046  21627111.8594                   21627109.6804
   2197526.93046   1790792.60943  24631064.0314                   24631062.8484
 -65116756.29348 -50689251.21546  19923909.3284                   19923907.9924
 -45820122.69547 -35268213.09445  22447614.5394                   22447614.7074
 -26557940.75846 -20650779.03543  24519981.7894                   24519981.6484
 -32670592.96148 -25403905.40246  21933440.6884                   21933437.8674
 11  7 28  0 16  0.0000000  0  9G09G28G10G17G12G04G27G20G02
 -30667443.14547 -23575229.75045  22109678.3054                   22109678.5434
-114217668.14847 -88949723.26645  22149444.0784                   22149442.4344
 -17034481.09046 -13221999.61344  23000184.3284                   23000185.5944
 -90058448.53948 -70124776.02046  21611559.8054                   21611558.5434
   1985440.96146   1625530.83643  24590706.0234                   24590703.3364
 -65228746.71948 -50776516.46947  19902598.0554                   19902596.9804
 -45931978.49247 -35355373.47745  22426328.9534                   22426328.8524
 -26623388.08246 -20701776.98443  24507528.3674                   24507527.2974
 -32855614.44548 -25548077.91446  21898231.5784                   21898229.4024
 11  7 28  0 16 30.0000000  0  9G09G28G10G17G12G04G27G20G02
 -30791164.39547 -23671635.91445  22086134.8754                   22086135.5864
-114271413.34047 -88991602.69145  22139215.9774                   22139214.9804
 -17240017.59446 -13382157.80944  22961071.8674                   22961072.5394
 -90139961.09447 -70188292.32446  21596048.6954                   21596047.2344
   1773468.44946   1460357.44943  24550369.1334                   24550367.1524
 -65340054.56248 -50863249.83647  19881417.1564                   19881415.2304
 -46043222.78947 -35442057.36345  22405159.6254                   22405159.7344
 -26688241.41446 -20752312.07043  24495187.0784                   24495186.0984
 -33040176.75848 -25691892.64846  21863110.8204                   21863108.5434
 11  7 28  0 17  0.0000000  0  9G09G28G10G17G12G04G27G20G02
 -30914118.26247 -23767444.11745  22062737.7424                   22062738.3674
-114324660.66447 -89033094.16045  22129084.2274                   22129082.5274
 -17445277.77047 -13542100.67644  22922011.8914                   22922013.1884
 -90221261.56248 -70251643.34846  21580577.6644                   21580576.2664
   1561609.39146   1295272.50443  24510053.4924                   24510052.1884
 -65450681.98848 -50949453.00446  19860365.4064                   19860363.6294
 -46153858.11747 -35528266.74245  22384107.1174                   22384106.8404
 -26752503.59046 -20802386.53143  24482958.2974                   24482957.3244
 -33224280.85948 -25835350.32046  21828076.7424                   21828074.4614
 11  7 28  0 17 30.0000000  0  9G09G28G10G17G12G04G27G20G02
 -31036303.83247 -23862653.65245  22039486.6644                   22039487.4264
-114377409.68747 -89074197.34445  22119046.1094                   22119045.0904
 -17650257.32447 -13701824.90644  22883006.5004                   22883006.6094
 -90302348.85947 -70314828.27346  21565147.2424                   21565145.5944
   1349866.93846   1130278.44943  24469760.0084                   24469759.4694
 -65560629.31248 -51035126.23846  19839442.7504                   19839441.3794
 -46263883.80947 -35614001.06645  22363169.7344                   22363169.8954
 -26816175.12546 -20852000.78143  24470842.3524                   24470841.3714
 -33407924.07048 -25978448.85946  21793130.3134                   21793128.3324
 11  7 28  0 18  0.0000000  0  9G09G28G10G17G12G04G27G20G02
 -31157722.33647 -23957265.46945  22016381.3524                   22016381.4304
-114429661.69147 -89114913.23845  22109103.0084                   22109101.3834
 -17854953.78147 -13861328.53544  22844052.8204                   22844053.4614
 -90383224.03548 -70377847.91046  21549757.2274                   21549755.8914
   1138241.55946    965375.64144  24429488.5944                   24429489.6524
 -65669898.34848 -51120270.92246  19818649.6804                   19818648.0514
 -46373301.55947 -35699261.66445  22342348.7344                   22342348.5084
 -26879257.60246 -20901155.98843  24458838.1724                   24458837.0314
 -33591107.01248 -26121188.75046  21758272.1724                   21758269.5234
 11  7 28  0 18 30.0000000  0  9G09G28G10G17G12G04G27G20G02
 -31278370.81247 -24051277.25845  21993422.3204                   21993422.5634
-114481413.55147 -89155239.41445  22099254.5864                   22099253.8554
 -18059360.78147 -14020606.59844  22805156.0554                   22805156.4804
 -90463883.66447 -70440699.57446  21534407.9844                   21534406.9344
    926738.21547    800567.89544  24389241.2194                   24389241.5784
 -65778486.96948 -51204885.42646  19797985.7584                   19797984.2154
 -46482108.71547 -35784046.48845  22321643.1564                   22321643.3874
 -26941749.29346 -20949850.84843  24446946.0474                   24446944.9924
 -33773825.11348 -26263566.43046  21723501.6644                   21723499.4064
 11  7 28  0 19  0.0000000  0  9G09G28G10G17G12G04G27G20G02
 -31398252.89547 -24144691.87145  21970609.6254                   21970610.0864
-114532669.69547 -89195179.30545  22089501.0234                   22089500.4224
 -18263478.01247 -14179658.90644  22766313.4454                   22766314.0984
 -90544331.45748 -70503386.19546  21519099.1724                   21519098.1604
    715355.44547    635854.12144  24349016.2194                   24349016.9024
 -65886399.46548 -51288973.07046  19777450.8914                   19777449.6954
 -46590309.44147 -35868358.75845  22301053.0944                   22301053.3834
 -27003654.87346 -20998088.96843  24435165.5234                   24435165.3714
 -33956080.87148 -26405583.81246  21688819.4844                   21688817.6884
 11  7 28  0 19 30.0000000  0  9G09G28G10G17G12G04G27G20G02
 -31517368.93447 -24237509.56245  21947942.2504                   21947942.8164
-114583430.23447 -89234733.02745  22079842.0554                   22079841.1484
 -18467302.32847 -14338482.93044  22727527.1254                   22727527.3794
 -90624567.58247 -70565907.86746  21503830.9534                   21503829.3834
    504094.72346    471235.43443  24308814.3444                   24308815.7194
 -65993637.10948 -51372534.85546  19757044.3134                   19757043.3014
 -46697904.49247 -35952199.07045  22280578.7894                   22280578.1684
 -27064975.95746 -21045871.65242  24423496.0784                   24423496.5044
 -34137873.36348 -26547240.24246  21654225.5004                   21654223.5594
 11  7 28  0 20  0.0000000  0  9G09G28G10G17G12G04G27G20G02
 -30060298.66847 -23102130.14845  22225214.1954                   22225214.3324
-113058277.28947 -88046302.20345  22370069.1564                   22370068.1414
 -17095406.82447 -13269473.35244  22988590.3754                   22988590.1214
 -89129172.66848 -69400665.09446  21788395.3284                   21788393.9924
   1868381.71546   1534316.30943  24568429.9384                   24568430.8244
 -64524780.90648 -50227971.57846  20036558.1334                   20036556.7624
 -45229474.32847 -34807967.77745  22560010.9614                   22560011.2934
 -25550294.84046 -19865600.61342  24711730.4224                   24711730.3794
 -32743778.75848 -25460932.68746  21919512.6254                   21919510.7584
 11  7 28  0 20 30.0000000  0  9G09G28G10G17G12G04G27G20G02
 -30177891.54347 -23193760.96545  22202836.8204                   22202836.6764
-113108055.55147 -88085090.51645  22360596.6644                   22360594.8594
 -17298642.74247 -13427838.91044  22949915.3364                   22949915.9184
 -89208992.69547 -69462862.52746  21773205.7424                   21773204.1214
   1657363.14846   1369886.33643  24528274.0234                   24528274.7304
 -64630679.71948 -50310490.12146  20016406.2734                   20016404.9024
 -45335867.90647 -34890871.86745  22539765.5784                   22539765.7934
 -25610458.09046 -19912481.08242  24700282.3204                   24700281.8484
 -32924649.06248 -25601870.51246  21885094.0004                   21885091.7734
 11  7 28  0 21  0.0000000  0  8G09G28G10G17G12G04G27G02
 -30294729.21547 -23284803.30145  22180603.0394                   22180603.0744
-113157348.90647 -88123500.98445  22351216.0004                   22351214.6724
 -17501584.93747 -13585975.59444  22911297.2034                   22911297.0234
 -89288610.07047 -69524902.06646  21758055.2034                   21758053.6954
   1446462.85546   1205548.52743  24488140.6094                   24488141.5744
 -64735916.23048 -50392492.59446  19996380.6804                   19996379.3874
 -45441667.41447 -34973313.04745  22519632.4304                   22519632.4384
 -33105062.37148 -25742452.24646  21850762.9614                   21850760.5514
 11  7 28  0 21 30.0000000  0  8G09G28G10G17G12G04G27G02
 -30410813.34447 -23375258.48045  22158513.4144                   22158513.0864
-113206159.30947 -88161535.12145  22341928.0554                   22341927.0944
 -17704231.64147 -13743882.01244  22872734.3134                   22872734.9384
 -89368026.72347 -69586785.18446  21742942.6254                   21742941.0704
   1235681.33246   1041303.27743  24448030.4924                   24448031.7114
 -64840493.08648 -50473981.04346  19976479.9384                   19976478.6214
 -45546875.09447 -35055293.06245  22499612.1174                   22499612.0314
 -33285018.84848 -25882677.99646  21816518.4774                   21816515.8204
 11  7 28  0 22  0.0000000  0  8G09G28G10G17G12G04G27G02
 -30526136.94147 -23465121.00845  22136568.3054                   22136567.6054
-113254479.70747 -88199187.43745  22332732.8594                   22332732.1954
 -17906571.69547 -13901549.49244  22834229.9534                   22834231.0704
 -89447234.75848 -69648505.73846  21727870.1484                   21727867.7704
   1025027.77846    877157.71043  24407943.7274                   24407944.8324
 -64944404.04748 -50554950.61747  19956706.3834                   19956704.9964
 -45651484.19147 -35136806.65645  22479706.1254                   22479705.7154
 -33464510.65648 -26022541.66446  21782362.2504                   21782359.3674
 11  7 28  0 22 30.0000000  0  8G09G28G10G17G12G04G27G02
 -30640697.99647 -23554389.37545  22114767.8674                   22114767.2814
-113302307.70747 -88236456.07045  22323631.9924                   22323630.2584
 -18108599.21947 -14058973.42644  22795785.3364                   22795786.2664
 -89526231.72748 -69710061.83646  21712837.6334                   21712835.5354
    814506.56346    713115.28943  24367883.8594                   24367882.5984
 -65047647.73848 -50635400.23846  19937060.0474                   19937058.9264
 -45755493.27347 -35217852.67245  22459913.1334                   22459912.6484
 -33643534.14548 -26162040.42646  21748295.0864                   21748292.7344
 11  7 28  0 23  0.0000000  0  8G09G28G10G17G12G04G27G02
 -30754497.01647 -23643063.92245  22093112.8914                   22093111.8594
-113349644.18447 -88273341.69945  22314624.0784                   22314622.9774
 -18310310.68747 -14216151.10244  22757400.7894                   22757401.5274
 -89605017.24648 -69771453.14846  21697845.3834                   21697843.4184
    604120.04347    549177.76643  24327847.9924                   24327847.6254
 -65150224.99248 -50715330.56646  19917540.1024                   19917538.4614
 -45858902.75047 -35298431.49245  22440235.4224                   22440234.9024
 -33822088.09448 -26301173.30546  21714317.1884                   21714314.5514
 11  7 28  0 23 30.0000000  0  8G09G28G10G17G12G04G27G02
 -30867531.64147 -23731142.85245  22071602.5084                   22071602.1844
-113396486.81247 -88309842.51245  22305710.0004                   22305708.9104
 -18511700.14147 -14373077.82845  22719077.6024                   22719078.0084
 -89683588.57448 -69832677.57446  21682893.3204                   21682891.7304
    393872.18846    385348.34043  24287838.5394                   24287839.1844
 -65252134.60948 -50794740.64846  19898147.4144                   19898145.7344
 -45961710.94147 -35378541.77745  22420671.4304                   22420671.3914
 -34000168.81248 -26439937.43746  21680429.6334                   21680426.8754
 11  7 28  0 24  0.0000000  0  8G09G28G10G17G12G04G27G02
 -30979808.21147 -23818631.09045  22050237.0784                   22050236.6804
-113442841.41447 -88345963.03945  22296888.8524                   22296887.6994
 -18712769.39147 -14529755.07044  22680815.7344                   22680816.0864
 -89761951.31647 -69893739.47746  21667981.1254                   21667979.8594
    183759.72746    221624.41044  24247855.8204                   24247856.0904
 -65353382.96148 -50873635.46547  19878880.2734                   19878879.0044
 -46063924.11748 -35458188.41445  22401221.0004                   22401220.6604
 -34177780.83248 -26578336.33246  21646631.5474                   21646628.6294
 11  7 28  0 24 30.0000000  0  8G09G28G10G17G12G04G27G02
 -31091330.74247 -23905531.75845  22029015.2274                   22029014.6454
-113488712.26647 -88381706.60245  22288159.8594                   22288158.9144
 -18913518.61347 -14686182.92645  22642613.8674                   22642614.4264
 -89840108.64847 -69954641.30946  21653108.7734                   21653106.7934
    -26218.81647     58004.85544  24207898.5864                   24207899.3134
 -65453974.75448 -50952018.68046  19859738.4924                   19859737.1214
 -46165546.56647 -35537374.73845  22381882.9304                   22381883.1094
 -34354926.84448 -26716372.12146  21612921.2194                   21612918.6254
 11  7 28  0 25  0.0000000  0  8G09G28G10G17G12G04G27G02
 -31202105.57047 -23991849.79345  22007935.1334                   22007934.7734
-113534105.48847 -88417078.03545  22279522.6644                   22279520.9224
 -19113950.23447 -14842363.30144  22604472.7114                   22604474.0044
 -89918066.32847 -70015387.55946  21638273.8054                   21638272.0594
   -236067.03947   -105513.16844  24167965.6414                   24167966.9414
 -65553917.22348 -51029895.91446  19840720.2814                   19840718.4694
 -46266584.99247 -35616105.99645  22362656.0864                   22362655.7384
 -34531611.76248 -26854048.61346  21579299.2424                   21579296.3054
 11  7 28  0 25 30.0000000  0  8G09G28G10G17G12G04G27G02
 -31312134.92647 -24077586.94145  21986997.2034                   21986996.2154
-113579023.17247 -88452078.88745  22270974.7974                   22270974.0594
 -19314062.37547 -14998294.75444  22566392.9384                   22566393.6054
 -89995825.87947 -70075979.43046  21623476.5864                   21623475.0124
   -445785.10247   -268929.73444  24128058.0944                   24128058.3404
 -65653213.11748 -51107269.33646  19821824.4534                   19821823.0434
 -46367042.03148 -35694384.20345  22343539.6804                   22343539.7154
 -34707836.23448 -26991366.32846  21545764.7974                   21545762.1094
 11  7 28  0 26  0.0000000  0  8G09G28G10G17G12G04G27G02
 -31421421.10247 -24162744.98445  21966200.7584                   21966200.0044
-113623467.56247 -88486710.94145  22262517.3674                   22262516.9184
 -19513853.24647 -15153975.85245  22528374.1414                   22528374.9614
 -90073388.69548 -70136417.99646  21608716.7664                   21608714.8134
   -655372.53547   -432244.57844  24088174.6484                   24088175.3094
 -65751865.31248 -51184141.16846  19803051.6804                   19803050.2384
 -46466920.10948 -35772211.27045  22324533.2974                   22324533.3094
 -34883600.89148 -27128325.71946  21512317.7894                   21512314.7734
 11  7 28  0 26 30.0000000  0  8G09G28G10G17G12G04G27G02
 -31529968.74647 -24247327.55945  21945545.3524                   21945544.7624
-113667443.07447 -88520977.61745  22254149.5864                   22254148.1844
 -19713323.02747 -15309406.75444  22490415.6024                   22490416.5274
 -90150758.44148 -70196706.13746  21593994.2584                   21593992.1334
   -864831.13347   -595459.02344  24048316.1724                   24048316.7704
 -65849879.05548 -51260515.50446  19784400.4844                   19784398.9344
 -46566224.12947 -35849591.04345  22305636.5234                   22305636.5084
 -35058909.07848 -27264929.43746  21478957.8754                   21478955.1644
 11  7 28  0 27  0.0000000  0  8G09G28G10G17G12G04G27G02
 -30062360.05547 -23103736.36345  22224821.7974                   22224821.7584
-112135533.79747 -87327282.14545  22545662.0554                   22545661.1254
 -18337046.85547 -14236983.67644  22752312.7114                   22752312.9654
 -88652517.52348 -69029245.68446  21879099.8594                   21879097.5394
    501263.08646    469030.11344  24308275.1254                   24308275.3364
 -64371837.37148 -50108794.70746  20065662.3444                   20065661.2344
 -45089536.68447 -34698925.50845  22586640.3834                   22586640.5744
 -33658338.59848 -26173575.75446  21745477.5084                   21745474.5704
 11  7 28  0 27 30.0000000  0  8G09G28G10G17G12G04G27G02
 -30169441.09047 -23187176.10945  22204445.0554                   22204444.1764
-112178581.35547 -87360825.74644  22537470.6564                   22537468.7234
 -18535872.48447 -14391912.65645  22714477.0704                   22714477.4454
 -88729509.22748 -69089239.21546  21864449.0164                   21864446.3134
    292059.82847    306014.61744  24268465.3204                   24268464.4104
 -64468586.21148 -50184183.40246  20047251.6024                   20047249.7464
 -45187703.42647 -34775419.07045  22567959.8984                   22567960.1604
 -33832738.44548 -26309471.66446  21712289.8284                   21712287.1884
 11  7 28  0 28  0.0000000  0  8G09G28G10G17G12G04G27G02
 -30275793.01247 -23270047.73045  22184206.6884                   22184206.7234
-112221169.00447 -87394011.00045  22529365.7034                   22529364.6374
 -18734374.36347 -14546589.36744  22676703.2974                   22676703.0984
 -88806314.25848 -69149087.29746  21849833.1414                   21849831.2664
     82984.04747    143098.50844  24228678.7504                   24228679.4654
 -64564707.59048 -50259083.16846  20028960.0944                   20028958.8984
 -45285306.20747 -34851473.19945  22549387.2734                   22549386.7194
 -34006686.10248 -26445015.23446  21679188.9224                   21679185.8524
 11  7 28  0 28 30.0000000  0  8G09G28G10G17G12G04G27G02
 -30381416.96147 -23352352.09445  22164107.2034                   22164106.9924
-112263297.78547 -87426838.68045  22521348.9384                   22521348.3444
 -18932549.02347 -14701011.08644  22638992.2424                   22638992.1884
 -88882933.22748 -69208790.39546  21835252.9534                   21835251.0904
   -125962.32847    -19716.76644  24188918.1884                   24188917.9804
 -64660203.07448 -50333495.21546  20010787.9454                   20010787.0204
 -45382346.28147 -34927088.82845  22530920.8364                   22530920.1954
 -34180181.07048 -26580206.05546  21646173.7274                   21646171.0044
 11  7 28  0 29  0.0000000  0  8G09G28G10G17G12G04G27G02
 -30486313.75447 -23434089.85545  22144146.1644                   22144145.5984
-112304967.94547 -87459309.00845  22513419.4614                   22513419.1454
 -19130392.72747 -14855174.92644  22601343.5634                   22601343.9694
 -88959365.89147 -69268348.32046  21820708.5944                   21820706.5984
   -334776.95747   -182429.42244  24149182.1334                   24149181.4264
 -64755074.01248 -50407420.61346  19992734.4694                   19992733.3754
 -45478824.48448 -35002266.66045  22512561.8754                   22512561.3554
 -34353222.24648 -26715043.27346  21613245.1254                   21613241.7854
 11  7 28  0 29 30.0000000  0  8G09G28G10G17G12G04G27G02
 -30590488.21947 -23515264.76645  22124322.3524                   22124321.7344
-112346184.11347 -87491425.56645  22505576.6884                   22505575.5864
 -19327906.01647 -15009081.30544  22563758.4144                   22563758.0664
 -89035615.59848 -69327763.68746  21806198.9924                   21806197.0004
   -543461.92647   -345041.02744  24109470.6724                   24109469.0554
 -64849325.61348 -50480863.41446  19974799.3984                   19974797.7934
 -45574745.85247 -35077010.59445  22494308.2974                   22494307.4774
 -34525812.75848 -26849529.31246  21580402.2974                   21580399.6414
 11  7 28  0 30  0.0000000  0  8G09G28G10G17G12G04G27G02
 -30693940.10547 -23595876.61345  22104635.6254                   22104635.5784
-112386945.93447 -87523188.07045  22497819.6254                   22497818.5824
 -19525084.62147 -15162726.88344  22526236.3524                   22526236.3244
 -89111681.04748 -69387035.47346  21791723.7974                   21791722.2584
   -752014.09847   -507549.15243  24069784.9694                   24069782.9024
 -64942958.28548 -50553823.93446  19956981.7344                   19956979.9884
 -45670110.40647 -35151320.63745  22476161.2344                   22476160.8204
 -34697950.60948 -26983662.64146  21547645.4384                   21547642.7154
 11  7 28  0 30 30.0000000  0  8G09G28G10G17G12G04G27G02
 -30796674.16847 -23675929.12145  22085086.2974                   22085085.7464
-112427257.72747 -87554599.93444  22490148.8914                   22490147.6374
 -19721928.59847 -15316111.72345  22488777.9694                   22488778.2274
 -89187566.27048 -69446166.81646  21777283.1724                   21777281.6334
   -960434.91447   -669954.99643  24030123.4844                   24030120.5634
 -65035976.99248 -50626306.02746  19939280.6334                   19939279.2894
 -45764922.64547 -35225200.32045  22458119.1884                   22458118.7814
 -34869638.82048 -27117445.61746  21514974.0164                   21514970.8834
 11  7 28  0 31  0.0000000  0  8G09G28G10G17G12G04G27G02
 -30898690.51247 -23755422.38745  22065673.2734                   22065673.0634
-112467119.15247 -87585660.84044  22482563.6564                   22482562.1914
 -19918433.60247 -15469232.40645  22451384.5864                   22451384.1374
 -89263269.85548 -69505156.63746  21762877.4924                   21762875.8984
  -1168721.45747   -832256.16443  23990487.1334                   23990485.7464
 -65128382.66448 -50698310.44546  19921696.5394                   19921695.0124
 -45859182.83247 -35298649.82045  22440181.4614                   22440181.6524
 -35040875.74248 -27250876.93046  21482389.0004                   21482386.5044
 11  7 28  0 31 30.0000000  0  8G09G28G10G17G12G04G27G02
 -30999991.22747 -23834358.01245  22046396.1484                   22046395.6914
-112506532.22747 -87616372.39844  22475063.7894                   22475062.8714
 -20114597.18747 -15622087.06244  22414055.2114                   22414055.3364
 -89338792.63748 -69564005.57446  21748505.8204                   21748504.3444
  -1376872.85547   -994452.01244  23950877.9614                   23950875.5164
 -65220177.60948 -50769838.96546  19904228.6564                   19904227.1334
 -45952893.35948 -35371671.02045  22422349.9144                   22422349.0514
 -35211661.53148 -27383956.71146  21449889.3674                   21449886.3914
 11  7 28  0 32  0.0000000  0  8G09G28G10G17G12G04G27G02
 -31100578.91447 -23912738.03545  22027255.7194                   22027254.6054
-112545499.20747 -87646736.35244  22467648.6174                   22467648.0354
 -20310417.64147 -15774674.34844  22376792.3594                   22376792.1804
 -89414136.05148 -69622714.74646  21734168.8594                   21734167.0044
  -1584888.80947  -1156542.30544  23911292.8054                   23911290.8204
 -65311365.13348 -50840894.17246  19886876.2664                   19886874.8634
 -46046057.24248 -35444266.26245  22404621.3134                   22404620.3054
 -35381997.29748 -27516685.82446  21417475.7344                   21417472.7234
 11  7 28  0 32 30.0000000  0  8G09G28G10G17G12G04G27G02
 -31200452.53147 -23990561.62545  22008250.0474                   22008249.2854
-112584019.18747 -87676751.96144  22460318.6024                   22460317.4344
 -20505889.73047 -15926990.17245  22339594.7814                   22339595.1334
 -89489298.03148 -69681282.54346  21719866.1414                   21719864.3444
  -1792765.09447  -1318523.76244  23871734.8674                   23871734.3014
 -65401944.49248 -50911475.49246  19869639.2504                   19869638.1214
 -46138673.57847 -35516434.84445  22386996.7114                   22386996.6844
 -35551880.30948 -27649062.15646  21385147.6724                   21385145.1804
 11  7 28  0 33  0.0000000  0  8G09G28G10G17G12G04G27G02
 -31299610.18447 -24067827.33245  21989380.5554                   21989380.3914
-112622089.67647 -87706417.34845  22453073.7814                   22453072.7114
 -20701006.89147 -16079029.43745  22302465.7584                   22302465.6024
 -89564275.34048 -69739706.43746  21705598.2194                   21705596.4344
  -2000496.87546  -1480392.59444  23832205.4614                   23832204.3754
 -65491914.32048 -50981581.84446  19852518.6644                   19852517.7424
 -46230740.61348 -35588175.41045  22369477.0634                   22369476.7304
 -35721306.98848 -27781082.89546  21352907.0234                   21352904.2034
 11  7 28  0 33 30.0000000  0  8G09G28G10G17G12G04G27G02
 -31398057.10247 -24144539.23445  21970647.1174                   21970646.5354
-112659715.49247 -87735736.21944  22445914.1724                   22445912.8914
 -20895769.51247 -16230792.44945  22265402.4224                   22265402.9774
 -89639071.47348 -69797989.15646  21691364.6334                   21691363.1994
  -2208085.44146  -1642149.84444  23792702.0234                   23792701.4144
 -65581280.10548 -51051217.52746  19835512.7424                   19835511.5634
 -46322263.56648 -35659492.01645  22352060.5864                   22352060.5634
 -35890280.42248 -27912750.46146  21320751.9844                   21320749.0314
 11  7 28  0 34  0.0000000  0  8G09G28G10G17G12G04G27G02
 -29920375.14147 -22993098.73845  22251840.5784                   22251840.3014
-111121479.84447 -86537111.10544  22738630.9304                   22738629.7384
 -19514751.51647 -15154674.44945  22528201.6884                   22528202.1294
 -88138267.63347 -68628531.63346  21976958.1254                   21976956.7894
   -840105.94946   -576191.70744  24053019.3754                   24053019.7774
 -64094624.18748 -49892784.35546  20118414.4224                   20118412.6914
 -44837824.28548 -34502786.09845  22634540.4304                   22634540.5784
 -34483377.91048 -26816462.73046  21588476.8594                   21588474.2734
 11  7 28  0 34 30.0000000  0  8G09G28G10G17G12G04G27G02
 -30017409.10247 -23068709.60945  22233375.4844                   22233375.0234
-111158223.61347 -86565742.66044  22731638.2664                   22731637.2034
 -19708799.96947 -15305880.95345  22491274.7974                   22491275.3794
 -88212705.71147 -68686535.34046  21962793.0944                   21962792.0434
  -1047407.74246   -737725.43744  24013571.5394                   24013571.2034
 -64182791.50448 -49961486.16446  20101636.5164                   20101635.6844
 -44928267.46947 -34573261.32045  22617329.7894                   22617329.8364
 -34651447.53948 -26947426.02746  21556494.4224                   21556491.3444
 11  7 28  0 35  0.0000000  0  8G09G28G10G17G12G04G27G02
 -30113736.89148 -23143770.21145  22215045.0314                   22215045.0474
-111194525.85547 -86594030.19144  22724730.1644                   22724729.1214
 -19902484.44547 -15456803.85245  22454419.0704                   22454418.6914
 -88286963.09048 -68744398.27046  21948662.6644                   21948660.6884
  -1254561.02046   -899143.44544  23974151.1724                   23974151.4184
 -64270360.28148 -50029721.56246  20084972.5704                   20084971.5084
 -45018170.90247 -34643315.97345  22600221.7274                   22600221.1294
 -34819062.66848 -27078035.16846  21524598.2034                   21524595.5554
 11  7 28  0 35 30.0000000  0  8G09G28G10G17G12G04G27G02
 -30209361.50048 -23218282.89145  22196848.4064                   22196848.0274
-111230388.89547 -86621975.48844  22717905.5554                   22717904.8054
 -20095803.39547 -15607441.92245  22417631.4454                   22417631.1334
 -88361041.05547 -68802121.37146  21934566.2114                   21934564.3794
  -1461565.45346  -1060445.48044  23934759.5784                   23934760.8164
 -64357333.88748 -50097493.21146  20068422.2504                   20068420.7584
 -45107537.86747 -34712952.57045  22583215.6414                   22583215.2034
 -34986224.49648 -27208291.07046  21492788.2814                   21492785.7624
 11  7 28  0 36  0.0000000  0  8G09G28G10G17G12G04G27G02
 -30304281.84447 -23292246.79745  22178786.0864                   22178785.4144
-111265812.05947 -86649578.03144  22711164.7664                   22711164.1334
 -20288751.29747 -15757790.87144  22380914.7664                   22380914.4964
 -88434937.48447 -68859703.02746  21920504.1094                   21920502.1914
  -1668416.94147  -1221628.34044  23895397.3914                   23895397.6454
 -64443711.85248 -50164800.71946  20051985.0394                   20051983.5084
 -45196367.66448 -34782170.61745  22566311.8134                   22566311.7114
 -35152930.29348 -27338191.64846  21461065.0704                   21461062.3674
 11  7 28  0 36 30.0000000  0  8G09G28G10G17G12G04G27G02
 -30398496.90648 -23365661.11345  22160857.1094                   22160856.8914
-111300793.53547 -86676836.42244  22704507.8364                   22704507.9414
 -20481322.44947 -15907846.23845  22344269.2664                   22344269.1454
 -88508649.49247 -68917140.98846  21906477.3204                   21906475.6484
  -1875110.36747  -1382688.09044  23856065.1804                   23856065.6954
 -64529493.45348 -50231643.52347  20035661.1024                   20035660.1174
 -45284658.95347 -34850969.05545  22549510.4534                   22549510.5634
 -35319176.98848 -27467734.48446  21429429.6174                   21429427.0634
 11  7 28  0 37  0.0000000  0  8G09G28G10G17G12G04G27G02
 -30492012.59047 -23438530.48045  22143061.3674                   22143060.8954
-111335338.55147 -86703754.67244  22697935.1254                   22697933.9144
 -20673517.55947 -16057608.60245  22307695.6564                   22307695.9414
 -88582180.81647 -68974438.14846  21892484.8204                   21892482.7974
  -2081648.66447  -1543626.91444  23816761.5634                   23816762.7854
 -64614684.64848 -50298026.27746  20019450.2194                   20019448.7504
 -45372417.53947 -34919352.37545  22532810.7344                   22532810.1054
 -35484968.19948 -27596922.37946  21397880.3054                   21397877.7114
 11  7 28  0 37 30.0000000  0  8G09G28G10G17G12G04G27G02
 -30584830.44147 -23510856.07445  22125399.1564                   22125398.6094
-111369448.49647 -86730333.93044  22691444.0704                   22691443.0164
 -20865333.62947 -16207075.62545  22271194.4534                   22271194.2934
 -88655531.81647 -69031594.79746  21878526.7814                   21878524.9224
  -2288030.00447  -1704443.46544  23777488.8284                   23777489.2854
 -64699287.44548 -50363950.53146  20003350.8674                   20003349.5084
 -45459645.18047 -34987322.00045  22516212.2734                   22516211.7304
 -35650303.83648 -27725755.29746  21366417.8914                   21366415.1804
 11  7 28  0 38  0.0000000  0  8G09G28G10G17G12G04G27G02
 -30676958.11747 -23582643.85245  22107867.5004                   22107867.2114
-111403130.16447 -86756579.44544  22685034.8134                   22685033.3484
 -21056773.56247 -16356249.51645  22234764.3284                   22234764.3484
 -88728708.71547 -69088615.78546  21864601.6884                   21864599.6954
  -2494258.03147  -1865140.60944  23738244.8834                   23738244.6414
 -64783309.78148 -50429422.48046  19987361.5704                   19987360.4884
 -45546349.37147 -35054883.71945  22499712.6254                   22499712.4774
 -35815189.38348 -27854237.48846  21335041.2974                   21335038.0554
 11  7 28  0 38 30.0000000  0  8G09G28G10G17G12G04G27G02
 -30768388.91047 -23653888.63745  22090468.9924                   22090468.6844
-111436376.77047 -86782485.97344  22678707.3984                   22678707.4304
 -21247826.18747 -16505121.64545  22198408.1414                   22198408.6054
 -88801702.99247 -69145494.46946  21850711.0704                   21850709.2154
  -2700322.95347  -2025710.64544  23699031.5234                   23699031.1024
 -64866745.29748 -50494437.17247  19971484.1484                   19971482.9414
 -45632523.70347 -35122032.58245  22483313.8524                   22483314.0354
 -35979616.67648 -27982362.59846  21303751.5554                   21303748.8594
 11  7 28  0 39  0.0000000  0  8G09G28G10G17G12G04G27G02
 -30859129.85247 -23724595.84445  22073201.3984                   22073201.2544
-111469194.89147 -86808058.62544  22672463.1254                   22672462.0274
 -21438493.02347 -16653693.14145  22162125.8444                   22162125.6454
 -88874519.70347 -69202234.78946  21836854.4694                   21836852.4964
  -2906227.66047  -2186155.81644  23659849.5084                   23659849.1644
 -64949601.17648 -50559000.19546  19955717.2584                   19955716.1524
 -45718175.00047 -35188773.87145  22467015.3984                   22467015.0594
 -36143590.22348 -28110134.13346  21272548.7664                   21272545.3554
 11  7 28  0 39 30.0000000  0  8G09G28G10G17G12G04G27G02
 -30949179.77047 -23794764.62145  22056065.0554                   22056065.7704
-111501582.64847 -86833295.92244  22666300.1884                   22666299.2274
 -21628768.39547 -16801959.60245  22125917.8834                   22125917.5394
 -88947155.84847 -69258834.40646  21823032.4774                   21823030.4024
  -3111967.37147  -2346472.47343  23620698.1724                   23620696.4414
 -65031876.54348 -50623110.86746  19940060.9224                   19940059.8754
 -45803302.14847 -35255106.74245  22450815.6724                   22450815.7624
 -36307106.73848 -28237549.56246  21241432.6174                   21241429.2774
 11  7 28  0 40  0.0000000  0  8G09G28G10G17G12G04G27G02
 -31038541.15647 -23864396.86745  22039060.3134                   22039060.8244
-111533541.90247 -86858199.31244  22660218.1414                   22660218.2234
 -21818649.55147 -16949918.87945  22089784.3444                   22089783.8984
 -89019612.05947 -69315293.81246  21809244.4304                   21809242.9734
  -3317540.63747  -2506659.36744  23581579.0944                   23581577.9184
 -65113573.82848 -50686771.09447  19924514.3594                   19924513.2154
 -45887907.44547 -35321032.97745  22434716.6094                   22434715.4534
 -36470166.73848 -28364609.25046  21210403.1024                   21210399.9414
 11  7 28  0 40 30.0000000  0  8G09G28G10G17G12G04G27G02
 -31127219.01647 -23933496.50045  22022185.6724                   22022185.9694
-111565077.06647 -86882772.22744  22654217.4694                   22654217.1564
 -22008137.11747 -17097571.47745  22053725.8284                   22053725.9184
 -89091891.71948 -69371615.66045  21795490.3834                   21795488.4064
  -3522948.87947  -2666717.65644  23542491.9534                   23542491.0084
 -65194698.58248 -50749985.18746  19909077.2504                   19909076.0044
 -45971996.06247 -35386556.59845  22418714.4534                   22418713.8094
 -36632773.36348 -28491315.65246  21179460.2114                   21179456.6914
 11  7 28  0 41  0.0000000  0  8G09G28G10G17G12G04G27G02
 -31215212.50447 -24002062.87145  22005441.1024                   22005440.7584
-111596186.98047 -86907013.80544  22648297.5944                   22648296.7974
 -22197225.55147 -17244913.02745  22017743.4144                   22017743.3054
 -89163992.24247 -69427797.90646  21781769.7814                   21781768.2154
  -3728187.85947  -2826644.07044  23503434.7734                   23503435.0664
 -65275250.25048 -50812752.71546  19893748.4304                   19893747.0084
 -46055567.14147 -35451676.96545  22402811.8754                   22402810.6884
 -36794923.71948 -28617666.53946  21148604.0704                   21148600.5744
 11  7 28  0 41 30.0000000  0  8G09G28G10G17G12G04G27G02
 -29727099.51647 -22842494.30945  22288619.6174                   22288619.5084
-110051450.68747 -85703323.25444  22942251.1414                   22942250.3484
 -20810483.87947 -16164335.03945  22281631.9384                   22281631.7894
 -87660489.98848 -68256237.71945  22067876.3054                   22067874.9844
  -2357827.39547  -1758830.66444  23764206.7814                   23764206.1024
 -63779807.00048 -49647472.26246  20178321.9454                   20178320.8284
 -44563198.60247 -34288792.41444  22686800.2424                   22686798.9104
 -35381191.30148 -27516056.80546  21417628.2974                   21417625.2664
 11  7 28  0 42  0.0000000  0  8G09G28G10G17G12G04G27G02
 -29813727.98847 -22909997.03545  22272134.6724                   22272134.4224
-110081711.45747 -85726903.12544  22936492.7974                   22936491.9264
 -20998761.64847 -16311044.92645  22245803.6954                   22245803.4414
 -87732229.90248 -68312138.98045  22054224.8984                   22054223.1804
  -2562719.51647  -1918486.79345  23725216.8674                   23725216.3914
 -63859216.53948 -49709349.82446  20163210.6644                   20163209.3984
 -44645737.63347 -34353108.57445  22671093.1724                   22671092.7274
 -35542426.51648 -27641694.59846  21386946.3364                   21386943.0634
 11  7 28  0 42 30.0000000  0  8G09G28G10G17G12G04G27G02
 -29899677.73047 -22976970.87145  22255779.2814                   22255778.8444
-110111551.12147 -85750154.88344  22930814.8984                   22930814.5904
 -21186630.74247 -16457436.37145  22210053.2274                   22210053.6484
 -87803790.30548 -68367900.35245  22040607.3984                   22040606.0394
  -2767435.96947  -2078006.02745  23686260.2814                   23686259.6414
 -63938059.10948 -49770785.60546  20148207.5164                   20148206.1604
 -44727764.37147 -34417025.55945  22655484.6804                   22655483.6684
 -35703204.84448 -27766976.35946  21356350.8284                   21356347.8324
 11  7 28  0 43  0.0000000  0  8G09G28G10G17G12G04G27G02
 -29984949.50847 -23043416.43045  22239552.5474                   22239551.5354
-110140969.24647 -85773078.16844  22925216.7034                   22925216.0274
 -21374086.93447 -16603506.06245  22174381.2814                   22174381.7344
 -87875169.95747 -68423520.87145  22027024.4534                   22027023.3014
  -2971973.62947  -2237385.95744  23647338.0704                   23647337.2114
 -64016335.29348 -49831780.01246  20133311.8984                   20133310.6414
 -44809279.52747 -34480543.89144  22639972.8914                   22639972.1374
 -35863524.93048 -27891901.06246  21325842.8914                   21325839.6884
 11  7 28  0 43 30.0000000  0  8G09G28G10G17G12G04G27G02
 -30069541.24247 -23109332.09045  22223455.2734                   22223454.8754
-110169963.39847 -85795671.07444  22919699.8444                   22919697.9734
 -21561122.78147 -16749248.23445  22138789.6334                   22138788.9144
 -87946364.22747 -68478996.94145  22013476.9224                   22013475.3634
  -3176326.33247  -2396621.74244  23608450.8754                   23608450.4534
 -64094043.34048 -49892331.73846  20118524.9454                   20118523.6484
 -44890280.82847 -34543661.83244  22624558.1094                   22624558.1954
 -36023382.20748 -28016465.12946  21295422.9534                   21295419.7304
 11  7 28  0 44  0.0000000  0  8G09G28G10G17G12G04G27G02
 -30153456.80147 -23174720.84445  22207486.2034                   22207486.2584
-110198536.45747 -85817935.83644  22914261.7974                   22914261.7114
 -21747737.36347 -16894662.11745  22103277.8284                   22103277.6684
 -88017375.71147 -68534330.57446  21999963.8594                   21999962.2304
  -3380494.41847  -2555713.69544  23569598.7974                   23569598.3404
 -64171187.48848 -49952444.05546  20103844.4534                   20103843.3954
 -44970772.20747 -34606382.41445  22609241.3054                   22609240.9384
 -36182778.68048 -28140670.13346  21265090.9064                   21265088.0784
 11  7 28  0 44 30.0000000  0  8G09G28G10G17G12G04G27G02
 -30236695.54347 -23239582.23045  22191646.8444                   22191646.1844
-110226687.76247 -85839872.00044  22908905.7664                   22908904.2734
 -21933924.78547 -17039743.17245  22067847.8364                   22067847.5474
 -88088201.55147 -68589519.56646  21986485.9924                   21986484.5044
  -3584472.87947  -2714657.84044  23530782.9064                   23530783.3674
 -64247767.08648 -50012116.43446  20089271.7344                   20089270.4494
 -45050752.95347 -34668705.12544  22594021.5634                   22594021.0784
 -36341711.71548 -28264514.01246  21234847.1564                   21234844.1024
 11  7 28  0 45  0.0000000  0  8G09G28G10G17G12G04G27G02
 -30319260.89547 -23303918.89545  22175935.1644                   22175934.6214
-110254419.89147 -85861481.52344  22903628.1094                   22903627.1374
 -22119683.17247 -17184489.91045  22032498.8524                   22032498.4304
 -88158842.90647 -68644564.77346  21973043.1484                   21973041.7974
  -3788261.42247  -2873454.02744  23492003.2114                   23492003.2664
 -64323785.55948 -50071351.59446  20074805.8524                   20074805.0824
 -45130226.25047 -34730632.40244  22578898.0634                   22578897.7704
 -36500182.49648 -28387997.69146  21204691.0004                   21204687.6414
 11  7 28  0 45 30.0000000  0  8G09G28G10G17G12G04G27G02
 -30401151.68747 -23367729.93045  22160351.6724                   22160351.4844
-110281730.44947 -85882762.56244  22898430.8914                   22898430.4414
 -22305006.03547 -17328897.27745  21997233.0634                   21997233.3364
 -88229296.20347 -68699463.48045  21959636.7664                   21959635.4144
  -3991854.00047  -3032097.55144  23453261.8754                   23453260.2734
 -64399241.61348 -50130148.50846  20060447.3054                   20060445.9494
 -45209190.41447 -34792162.95344  22563871.8054                   22563871.2074
 -36658187.19148 -28511118.19946  21174623.3914                   21174620.6684
 11  7 28  0 46  0.0000000  0  8G09G28G10G17G12G04G27G02
 -30482375.77747 -23431021.45345  22144895.6724                   22144894.5594
-110308626.99247 -85903720.98044  22893312.7424                   22893312.0434
 -22489896.31647 -17472967.57845  21962049.6254                   21962049.1524
 -88299567.25448 -68754220.13745  21946264.5084                   21946263.2114
  -4195255.10547  -3190591.84845  23414555.5084                   23414554.5704
 -64474143.33648 -50188513.48046  20046194.0004                   20046192.8484
 -45287653.43447 -34853302.99245  22548940.6094                   22548941.2584
 -36815731.84848 -28633880.23846  21144643.7504                   21144640.7584
 11  7 28  0 46 30.0000000  0  8G09G28G10G17G12G04G27G02
 -30562928.55547 -23493789.88745  22129566.8674                   22129566.3164
-110335104.57447 -85924352.93044  22888274.0084                   22888273.6134
 -22674344.73447 -17616693.56645  21926950.0004                   21926949.7814
 -88369649.40247 -68808829.62545  21932928.6254                   21932927.0514
  -4398455.95347  -3348930.11345  23375887.8444                   23375886.4774
 -64548486.67248 -50246443.34446  20032046.6884                   20032045.5634
 -45365610.72347 -34914048.95745  22534106.4774                   22534106.3014
 -36972810.00448 -28756278.77046  21114752.7424                   21114749.6804
 11  7 28  0 47  0.0000000  0  8G09G28G10G17G12G04G27G02
 -30642813.18447 -23556037.67645  22114365.3754                   22114364.7344
-110361164.96947 -85944659.78144  22883315.1884                   22883314.8754
 -22858349.03947 -17760073.48845  21891935.4454                   21891934.8014
 -88439543.44547 -68863292.53545  21919628.3444                   21919626.1954
  -4601454.94947  -3507111.09045  23337257.7114                   23337258.0594
 -64622274.23448 -50303940.14546  20018005.3914                   20018004.2624
 -45443065.22747 -34974403.13344  22519367.5084                   22519366.7194
 -37129422.11748 -28878314.14846  21084950.2584                   21084947.1844
 11  7 28  0 47 30.0000000  0  9G09G28G10G17G12G05G04G27G02
 -30722032.37147 -23617766.95345  22099290.4614                   22099290.4104
-110386810.44547 -85964643.35244  22878435.4774                   22878434.2074
 -23041906.41447 -17903105.13745  21857005.2734                   21857005.2774
 -88509249.66447 -68917609.08245  21906363.6174                   21906361.5664
  -4804250.98447  -3665133.91445  23298667.1024                   23298666.7384
   9208249.26656   7219511.14853  24552697.2274                   24552700.1724
 -64695508.91448 -50361006.12146  20004069.4924                   20004068.2034
 -45520019.18447 -35034367.29345  22504723.2114                   22504723.0944
 -37285568.87548 -28999986.92246  21055236.6334                   21055233.7854
 11  7 28  0 48  0.0000000  0  9G09G28G10G17G12G05G04G27G02
 -30800587.55947 -23678978.82845  22084342.2734                   22084341.5314
-110412041.73847 -85984304.18744  22873633.9144                   22873633.8284
 -23225013.46147 -18045785.91845  21822161.3674                   21822161.1644
 -88578767.25048 -68971778.64845  21893134.6954                   21893133.2504
  -5006841.14847  -3822996.28945  23260115.3204                   23260115.6524
   8995236.37946   7053527.43843  24512162.6564                   24512165.4804
 -64768192.32048 -50417642.53146  19990238.3594                   19990237.1914
 -45596474.25447 -35093942.69145  22490174.7584                   22490175.0004
 -37441249.38748 -29121296.37146  21025611.7734                   21025608.5164
 11  7 28  0 48 30.0000000  0  9G09G28G10G17G12G05G04G27G02
 -29303067.12147 -22512079.80945  22369310.2584                   22369310.4144
-108861448.64147 -84776049.91044  23168702.1564                   23168701.4224
 -21832249.99247 -16960515.61745  22087195.4454                   22087194.7934
 -87072682.82848 -67798206.39545  22179732.9304                   22179731.4734
  -3633805.26247  -2753098.15644  23521394.5634                   23521394.5314
  10357652.70746   8115150.87943  24771420.3594                   24771424.4534
 -63264912.99248 -49246256.04746  20276303.0164                   20276301.5784
 -44097018.78147 -33925535.84045  22775511.4844                   22775511.7034
 -36021047.35248 -28014645.40246  21295867.0704                   21295863.9144
 11  7 28  0 49  0.0000000  0  9G09G28G10G17G12G05G04G27G02
 -29380321.98047 -22572278.43445  22354609.8444                   22354609.8554
-108885877.36747 -84795085.36344  23164053.7424                   23164053.4064
 -22014468.07847 -17102503.68745  22052520.6884                   22052519.6334
 -87141844.25448 -67852098.43445  22166572.0474                   22166570.5904
  -3835998.28147  -2910651.07844  23482919.0864                   23482918.7894
  10144643.23046   7949169.79743  24730885.7894                   24730890.6214
 -63336521.41048 -49302054.80146  20262676.1484                   20262674.8714
 -44172503.16847 -33984354.84045  22761147.9774                   22761147.6254
 -36175816.67248 -28135244.84846  21266415.4774                   21266411.8874
 11  7 28  0 49 30.0000000  0  9G09G28G10G17G12G05G04G27G02
 -29456927.76247 -22631971.27745  22340031.8444                   22340031.7464
-108909904.55547 -84813807.92644  23159481.7664                   23159480.3714
 -22196235.01647 -17244140.21545  22017931.4614                   22017930.5744
 -87210824.70748 -67905849.45745  22153445.5944                   22153443.8524
  -4037987.59447  -3068045.31244  23444482.1094                   23444481.1484
   9931641.62546   7783194.87144  24690353.5784                   24690357.1884
 -63407593.41848 -49357435.59846  20249151.7814                   20249150.4534
 -44247502.84447 -34042796.14145  22746875.7344                   22746875.5984
 -36330127.89848 -28255487.31646  21237050.9304                   21237047.8554
 11  7 28  0 50  0.0000000  0  9G09G28G10G17G12G05G04G27G02
 -29532881.65647 -22691156.17645  22325578.2424                   22325579.1334
-108933526.59447 -84832214.76643  23154986.2194                   23154985.5434
 -22377542.89147 -17385419.02045  21983429.6024                   21983429.3634
 -87279619.11748 -67959455.52045  22140354.3984                   22140352.2854
  -4239765.95747  -3225275.15644  23406084.7734                   23406083.8054
   9718655.09847   7617231.68844  24649822.3594                   24649826.5164
 -63478126.23848 -49412396.23046  20235729.4614                   20235728.6334
 -44322014.81247 -34100857.43445  22732695.8914                   22732696.7544
 -36483975.97348 -28375368.89546  21207774.7734                   21207771.3984
 11  7 28  0 50 30.0000000  0  9G09G28G10G17G12G05G04G27G02
 -29608187.16047 -22749835.80145  22311248.0864                   22311248.1414
-108956746.33647 -84850308.12544  23150567.7504                   23150567.1644
 -22558389.45747 -17526338.35545  21949015.6644                   21949014.9534
 -87348228.51247 -68012917.41845  22127298.4614                   22127296.7384
  -4441331.97347  -3382339.57045  23367728.2344                   23367727.6684
   9505685.15247   7451281.39844  24609296.5234                   24609299.3834
 -63548123.12148 -49466939.26246  20222409.8204                   20222408.4924
 -44396042.29347 -34158541.18045  22718609.6804                   22718609.7344
 -36637361.99648 -28494890.43446  21178586.0554                   21178583.2584
 11  7 28  0 51  0.0000000  0  9G09G28G10G17G12G05G04G27G02
 -29682843.17247 -22808009.33645  22297041.9534                   22297042.2934
-108979561.99647 -84868086.63744  23146225.1094                   23146225.5824
 -22738768.64547 -17666893.50445  21914690.4774                   21914689.9344
 -87416649.56647 -68066232.55945  22114278.8054                   22114276.9924
  -4642680.71947  -3539234.67245  23329412.7194                   23329412.2544
   9292737.25047   7285348.26644  24568774.0314                   24568776.2074
 -63617583.03948 -49521063.87946  20209191.9534                   20209190.5554
 -44469583.91847 -34215846.32445  22704614.9614                   22704615.2734
 -36790282.81248 -28614049.47346  21149486.4844                   21149483.3714
 11  7 28  0 51 30.0000000  0  9G09G28G10G17G12G05G04G27G02
 -29756850.54747 -22865677.44145  22282958.5474                   22282959.0904
-109001973.52047 -84885550.23844  23141960.9694                   23141961.0864
 -22918676.12147 -17807081.09445  21880455.5234                   21880454.5704
 -87484880.49647 -68119399.54745  22101294.7194                   22101292.9654
  -4843808.28547  -3695957.38745  23291139.1024                   23291138.3554
   9079815.29747   7119435.41044  24528255.5314                   24528257.8094
 -63686506.86348 -49574770.75046  20196076.3524                   20196074.8244
 -44542640.48047 -34272773.52045  22690712.7194                   22690712.5824
 -36942736.71548 -28732844.69146  21120474.9844                   21120471.8794
 11  7 28  0 52  0.0000000  0  9G09G28G10G17G12G05G04G27G02
 -29830212.45747 -22922842.59845  22268998.4924                   22268998.4614
-109023983.03947 -84902700.56244  23137773.1254                   23137772.3674
 -23098109.62547 -17946899.35545  21846309.5554                   21846309.5274
 -87552921.86747 -68172418.85245  22088346.6334                   22088345.4104
  -5044713.01247  -3852506.46145  23252908.0004                   23252907.7584
   8866921.07846   6953544.11343  24487742.1094                   24487745.5594
 -63754897.63748 -49628062.26246  20183061.9694                   20183060.5784
 -44615214.79747 -34329324.94545  22676901.8054                   22676902.6174
 -37094724.90648 -28851277.00846  21091553.0164                   21091549.8364
 11  7 28  0 52 30.0000000  0  9G09G28G10G17G12G05G04G27G02
 -29902932.29747 -22979507.40245  22255160.0234                   22255160.8164
-109045593.45347 -84919539.92644  23133661.0004                   23133660.1174
 -23277066.96147 -18086346.56245  21812255.5164                   21812254.9884
 -87620774.32848 -68225290.93445  22075435.0084                   22075433.1024
  -5245394.12947  -4008881.27745  23214719.5704                   23214719.2274
   8654055.99246   6787675.48443  24447235.3914                   24447238.0204
 -63822758.45348 -49680940.82846  20170148.3524                   20170147.0004
 -44687310.07847 -34385503.07445  22663182.2894                   22663182.5634
 -37246248.14148 -28969347.02346  21062718.8204                   21062715.6454
 11  7 28  0 53  0.0000000  0  9G09G28G10G17G12G05G04G27G02
 -29975000.13347 -23035664.17645  22241445.6094                   22241446.1884
-109066793.75847 -84936059.73044  23129626.0634                   23129626.3794
 -23455533.05947 -18225410.99645  21778294.2424                   21778293.7504
 -87688425.29348 -68278006.00445  22062561.3754                   22062559.7974
  -5445836.79347  -4165070.32045  23176577.1174                   23176575.9694
   8441235.11746   6621841.33643  24406736.5164                   24406739.4804
 -63890079.42648 -49733398.72746  20157337.7974                   20157336.2504
 -44758916.06647 -34441299.97345  22649556.4614                   22649557.0164
 -37397294.15248 -29087045.18746  21033975.8984                   21033972.5824
 11  7 28  0 53 30.0000000  0  9G09G28G10G17G12G05G04G27G02
 -30046424.73847 -23091319.70345  22227854.6804                   22227854.6954
-109087591.93047 -84952266.17244  23125668.8284                   23125668.6334
 -23633511.10547 -18364095.13745  21744426.3674                   21744425.8674
 -87755881.06248 -68330568.98045  22049725.2734                   22049723.6214
  -5646045.69947  -4321077.19144  23138478.1884                   23138476.5864
   8228454.25446   6456038.37143  24366245.1414                   24366247.9144
 -63956869.17648 -49785442.69146  20144628.0474                   20144626.8324
 -44830041.41047 -34496722.31645  22636021.5944                   22636022.0984
 -37547869.37948 -29204376.49646  21005322.3364                   21005319.1644
 11  7 28  0 54  0.0000000  0  9G09G28G10G17G12G05G04G27G02
 -30117206.01647 -23146473.93045  22214385.0004                   22214385.2734
-109107986.90247 -84968158.43044  23121787.9614                   23121787.8404
 -23810995.60947 -18502394.70745  21710652.3054                   21710651.9104
 -87823138.89848 -68382977.70745  22036926.2894                   22036924.9884
  -5846015.64547  -4476897.89145  23100425.3674                   23100423.7234
   8015718.68846   6290270.60243  24325763.1024                   24325765.5944
 -64023127.40648 -49837072.48446  20132019.7114                   20132018.0434
 -44900685.39547 -34551769.59444  22622578.5554                   22622579.0004
 -37697971.34848 -29321339.03946  20976758.8594                   20976755.6684
 11  7 28  0 54 30.0000000  0  9G09G28G10G17G12G05G04G27G02
 -30187347.09447 -23201129.30945  22201037.5634                   22201038.3524
-109127980.93047 -84983738.25844  23117983.0784                   23117983.4414
 -23987984.27047 -18640307.89545  21676972.2504                   21676971.7344
 -87890199.37548 -68435232.65645  22024165.5004                   22024164.2304
  -6045745.09847  -4632531.20744  23062418.2894                   23062416.2034
   7803029.97346   6124539.39543  24285290.0004                   24285292.5824
 -64088857.03548 -49888290.37146  20119511.7114                   20119510.3984
 -44970851.14547 -34606444.21145  22609226.1024                   22609227.2464
 -37847600.83248 -29437933.40246  20948285.0944                   20948281.9304
 11  7 28  0 55  0.0000000  0  9G09G28G10G17G12G05G04G27G02
 -30256849.96547 -23255287.37145  22187811.5704                   22187811.9654
-109147575.53147 -84999006.83244  23114254.2734                   23114254.8874
 -24164474.12547 -18777832.41045  21643387.2274                   21643387.1604
 -87957061.81248 -68487333.28145  22011441.5554                   22011440.2234
  -6245232.02047  -4787975.55944  23024457.5784                   23024454.6844
   7590390.97746   5958846.85243  24244825.7114                   24244828.0354
 -64154060.37548 -49939098.17246  20107103.6564                   20107102.7424
 -45040540.59847 -34660747.68744  22595964.8754                   22595965.4304
 -37996757.52748 -29554159.36346  20919901.7114                   20919898.0354
 11  7 28  0 55 30.0000000  0  9G09G28G10G17G12G05G04G27G02
 -30325714.20347 -23308947.79345  22174707.2974                   22174707.5044
-109166768.87147 -85013962.75444  23110601.8754                   23110602.2384
 -24340458.74647 -18914963.23845  21609898.8054                   21609898.1954
 -88023722.67247 -68539276.82846  21998756.8364                   21998754.9384
  -6444470.62947  -4943226.42244  22986543.6414                   22986540.8014
   7377807.73846   5793197.86743  24204372.2194                   24204375.2274
 -64218736.23048 -49989494.93746  20094796.2664                   20094794.9734
 -45109752.61747 -34714679.12944  22582794.6484                   22582794.5704
 -38145439.28548 -29670015.24246  20891608.5164                   20891605.1094
 11  7 28  0 56  0.0000000  0  9G09G28G10G17G12G05G04G27G02
 -28818519.09447 -22134510.03145  22461517.1644                   22461517.3674
-107610141.24647 -83801006.25444  23406818.1024                   23406818.6334
 -22940508.28947 -17824092.70745  21876300.0084                   21876299.9804
 -86514758.76647 -67363460.80145  22285903.0394                   22285901.4844
  -5068031.05947  -3870676.07444  23248471.0394                   23248468.6764
   8740710.45746   6855200.20743  24463723.5394                   24463726.2544
 -62707463.95348 -48811880.17246  20382381.8134                   20382380.6294
 -43603066.29347 -33540637.85945  22869507.5394                   22869507.5984
 -36718219.15248 -28557895.63346  21163199.3674                   21163195.9884
 11  7 28  0 56 30.0000000  0  9G09G28G10G17G12G05G04G27G02
 -28886112.12947 -22187179.88345  22448654.4064                   22448654.1334
-107628535.98846 -83815339.87143  23403318.1414                   23403317.7114
 -23115472.44147 -17960428.36345  21843005.5394                   21843005.3404
 -86581014.43447 -67415088.61745  22273294.4384                   22273292.9534
  -5266764.83247  -4025533.53145  23210652.4694                   23210650.6334
   8528246.88746   6689644.43444  24423293.0634                   24423295.7464
 -62771090.66848 -48861459.41446  20370274.1564                   20370272.7194
 -43671328.74647 -33593829.39144  22856517.3984                   22856517.6764
 -36865947.81648 -28673008.84046  21135087.5864                   21135084.1254
 11  7 28  0 57  0.0000000  0  9G09G28G10G17G12G05G04G27G02
 -28953075.63747 -22239359.22345  22435911.6804                   22435911.4614
-107646535.85246 -83829365.86344  23399893.1174                   23399893.8244
 -23289924.28547 -18096364.82045  21809808.1954                   21809807.6994
 -86647069.47348 -67466560.08645  22260724.4454                   22260723.5354
  -5465244.77047  -4180193.15244  23172883.5944                   23172881.1844
   8315844.76646   6524136.50843  24382873.5944                   24382876.1844
 -62834198.46948 -48910634.32046  20358265.2034                   20358263.7424
 -43739121.91447 -33646655.23444  22843616.6334                   22843617.3244
 -37013202.31248 -28787752.57046  21107065.5394                   21107062.4844
 11  7 28  0 57 30.0000000  0  9G09G28G10G17G12G05G04G27G02
 -29019411.71547 -22291049.64845  22423288.2034                   22423288.3364
-107664142.25846 -83843085.22743  23396543.0634                   23396542.2344
 -23463860.45747 -18231899.46545  21776709.3364                   21776709.1564
 -86712922.82848 -67517874.40245  22248193.6644                   22248192.0084
  -5663468.94547  -4334653.50045  23135162.6644                   23135160.0824
   8103507.15246   6358678.90644  24342466.9774                   24342469.8524
 -62896789.25048 -48959406.34846  20346354.4774                   20346353.0434
 -43806447.54347 -33699116.77344  22830805.6174                   22830805.8134
 -37159982.70348 -28902126.85946  21079134.6174                   21079131.0744
 11  7 28  0 58  0.0000000  0  9G09G28G10G17G12G05G04G27G02
 -29085126.14547 -22342255.66845  22410783.6644                   22410783.6564
-107681359.99246 -83856501.70743  23393265.5944                   23393266.1254
 -23637281.21948 -18367032.46145  21743708.7974                   21743707.6484
 -86778577.65248 -67569034.00045  22235700.0004                   22235698.4654
  -5861437.69147  -4488914.80545  23097490.4304                   23097488.4924
   7891233.78546   6193271.31644  24302073.1724                   24302075.8134
 -62958868.28948 -49007779.62146  20334541.2734                   20334539.5904
 -43873311.18447 -33751218.30944  22818081.1484                   22818081.0944
 -37306292.12948 -29016134.18446  21051293.0634                   21051289.4024
 11  7 28  0 58 30.0000000  0  9G09G28G10G17G12G05G04G27G02
 -29150220.91047 -22392978.81645  22398396.0784                   22398396.5044
-107698190.18746 -83869616.20343  23390063.1644                   23390063.4494
 -23810183.71947 -18501761.63745  21710806.1564                   21710805.2234
 -86844033.22747 -67620038.35945  22223244.0864                   22223242.4414
  -6059148.67247  -4642975.27745  23059866.8364                   23059864.9304
   7679027.18046   6027915.79743  24261690.7344                   24261694.0554
 -63020438.01248 -49055756.02746  20322824.9064                   20322823.5434
 -43939714.69147 -33802961.29744  22805445.8134                   22805444.8794
 -37452130.76648 -29129774.64846  21023540.4064                   21023537.1454
 11  7 28  0 59  0.0000000  0  9G09G28G10G17G12G05G04G27G02
 -29214696.28947 -22443219.35245  22386126.6094                   22386126.2624
-107714632.29346 -83882428.33643  23386935.1954                   23386934.2344
 -23982562.00447 -18636082.32445  21678003.5394                   21678002.6764
 -86909287.01248 -67670885.49245  22210827.0234                   22210824.8404
  -6256596.97747  -4796831.01645  23022294.0084                   23022291.9454
   7466892.25046   5862616.11344  24221322.3134                   24221325.7544
 -63081498.09048 -49103335.30546  20311205.4614                   20311204.5984
 -44005658.03547 -33854345.71945  22792897.0394                   22792897.5124
 -37597496.38348 -29243046.52346  20995878.1724                   20995875.0704
 11  7 28  0 59 30.0000000  0  9G09G28G10G17G12G05G04G27G02
 -29278556.25847 -22492980.35545  22373974.6484                   22373974.7934
-107730688.87947 -83894940.02343  23383879.4694                   23383878.9924
 -24154414.64847 -18769993.43745  21645301.0704                   21645300.6294
 -86974339.81647 -67721576.01245  22198447.2194                   22198446.2384
  -6453781.54347  -4950481.27745  22984770.4304                   22984768.2194
   7254830.77046   5697373.68044  24180968.5704                   24180971.3754
 -63142052.20748 -49150520.33246  20299682.4614                   20299681.0004
 -44071144.49247 -33905374.12144  22780435.6174                   22780435.2384
 -37742390.05948 -29355950.66046  20968305.8444                   20968302.8324
 11  7 28  1  0  0.0000000  0  9G09G28G10G17G12G05G04G27G02
 -29341801.96147 -22542262.71145  22361939.9774                   22361939.7774
-107746360.39547 -83907151.68043  23380897.5394                   23380896.7034
 -24325737.69948 -18903491.85945  21612699.5394                   21612698.7304
 -87039189.74247 -67772108.44945  22186107.1024                   22186105.2074
  -6650698.45347  -5103922.96945  22947299.2344                   22947296.3404
   7042846.51246   5532191.41043  24140628.9844                   24140631.0354
 -63202101.14848 -49197311.70346  20288255.3674                   20288254.1524
 -44136174.93047 -33956047.19544  22768060.2584                   22768060.3404
 -37886810.57448 -29468486.07846  20940823.7734                   20940820.3914
 11  7 28  1  0 30.0000000  0  9G09G28G10G17G12G05G04G27G02
 -29404435.98447 -22591068.44945  22350020.9694                   22350020.8134
-107761648.70347 -83919064.71943  23377988.5084                   23377987.2894
 -24496527.74248 -19036574.96945  21580199.3364                   21580198.3284
 -87103836.58647 -67822482.62945  22173805.2344                   22173803.6334
  -6847345.03547  -5257153.98445  22909877.5234                   22909875.9964
   6830942.20746   5367071.46143  24100304.9534                   24100306.7234
 -63261647.00848 -49243711.08646  20276924.5864                   20276923.4734
 -44200751.71947 -34006366.78544  22755772.5394                   22755771.6804
 -38030757.75448 -29580652.68746  20913431.3524                   20913427.6214
 11  7 28  1  1  0.0000000  0  9G09G28G10G17G12G05G04G27G02
 -29466465.77747 -22639403.33245  22338216.8984                   22338216.4184
-107776559.86747 -83930683.91843  23375150.4694                   23375150.5044
 -24666786.84847 -19169244.34845  21547800.4224                   21547799.3594
 -87168284.72748 -67872701.97745  22161541.0864                   22161539.4024
  -7043724.52047  -5410176.88345  22872507.9844                   22872506.4694
   6619115.93446   5202012.28944  24059995.6484                   24059997.7664
 -63320697.17648 -49289724.19146  20265687.5394                   20265685.7424
 -44264881.93447 -34056338.36344  22743568.3204                   22743568.6484
 -38174236.76648 -29692454.46946  20886128.6724                   20886125.0984
 11  7 28  1  1 30.0000000  0  9G09G28G10G17G12G05G04G27G02
 -29527890.98047 -22687267.12145  22326528.3984                   22326528.4654
-107791092.61746 -83942008.18743  23372384.8444                   23372385.9144
 -24836509.32847 -19301495.58245  21515502.9534                   21515501.8324
 -87232530.58247 -67922763.71545  22149315.2034                   22149313.7274
  -7239831.21947  -5562987.19545  22835189.8984                   22835189.3094
   6407373.18046   5037018.21544  24019702.8054                   24019703.7114
 -63379250.66448 -49335350.28546  20254545.0164                   20254543.8874
 -44328564.71147 -34105961.32844  22731449.6094                   22731449.5204
 -38317245.09848 -29803889.50446  20858914.7974                   20858911.4344
 11  7 28  1  2  0.0000000  0  9G09G28G10G17G12G05G04G27G02
 -29588716.48447 -22734663.61745  22314953.0394                   22314952.9454
-107805250.52346 -83953040.39843  23369691.0474                   23369690.8554
 -25005694.15247 -19433327.87145  21483308.0314                   21483307.2624
 -87296575.77748 -67972669.07045  22137128.4384                   22137126.6484
  -7435664.59047  -5715584.55145  22797924.7974                   22797923.0204
   6195714.65647   4872089.72744  23979425.0084                   23979427.5594
 -63437312.22348 -49380593.07446  20243496.1334                   20243494.7234
 -44391804.40247 -34155239.02344  22719415.7894                   22719415.2154
 -38459784.60948 -29914959.23446  20831790.3054                   20831786.9694
 11  7 28  1  2 30.0000000  0  9G09G28G10G17G12G05G04G27G02
 -29648944.37147 -22781594.43445  22303492.3444                   22303492.5394
-107819035.35946 -83963781.94144  23367067.9454                   23367068.6414
 -25174338.15247 -19564738.73845  21451216.1484                   21451215.1334
 -87360419.76247 -68022417.67245  22124978.5394                   22124977.8244
  -7631221.82447  -5867966.72345  22760711.4774                   22760710.1524
   5984143.37946   4707229.28144  23939163.4694                   23939166.5824
 -63494883.69548 -49425453.96146  20232540.8674                   20232539.2664
 -44454603.02347 -34204173.02344  22707465.5314                   22707465.2114
 -38601855.27048 -30025663.60946  20804755.2504                   20804751.7704
 11  7 28  1  3  0.0000000  0  9G09G28G10G17G12G05G04G27G02
 -29708578.55547 -22828062.64145  22292144.1644                   22292143.8284
-107832449.43046 -83974234.53943  23364515.7424                   23364515.7974
 -25342439.68748 -19695726.90245  21419227.1954                   21419226.5204
 -87424063.16047 -68072009.94945  22112868.0784                   22112866.7424
  -7826501.84447  -6020132.92245  22723550.1024                   22723549.0314
   5772661.10247   4542438.17644  23898919.8524                   23898923.0434
 -63551968.50048 -49469935.64546  20221677.9064                   20221676.6764
 -44516963.62947 -34252765.71145  22695598.7034                   22695598.4884
 -38743458.41848 -30136003.71146  20777808.9304                   20777805.4534
 11  7 28  1  3 30.0000000  0  9G09G28G10G17G12G05G04G27G02
 -28192199.59047 -21646468.65645  22580701.3754                   22580701.3714
-106270074.07046 -82756799.27743  23661825.8594                   23661826.1134
 -23934569.89548 -18598685.45745  21687136.0474                   21687134.7034
 -85912083.16447 -66893843.75445  22400588.3834                   22400586.4384
  -6446075.42247  -4944475.90645  22986236.0314                   22986235.7424
   7136697.73047   5605324.12544  24158487.8914                   24158489.3834
 -62033146.60248 -48286438.06646  20510700.5474                   20510699.0784
 -43003466.35547 -33073417.19144  22983607.9224                   22983607.4614
 -37309169.20348 -29018375.71946  21050744.8754                   21050741.6804
 11  7 28  1  4  0.0000000  0  9G09G28G10G17G12G05G04G27G02
 -28250658.67647 -21692021.18745  22569577.4924                   22569576.4804
-106282756.56646 -82766681.79743  23659411.9384                   23659412.2234
 -24101582.28147 -18728824.94145  21655354.6024                   21655353.7774
 -85975328.63347 -66943125.95345  22388552.9924                   22388551.2934
  -6640798.06647  -5096207.75845  22949181.8134                   22949180.9224
   6925397.00447   5440674.46144  24118278.1024                   24118279.7464
 -62089268.98848 -48330169.80146  20500020.4144                   20500019.4104
 -43064962.71147 -33121336.45744  22971905.0474                   22971904.9774
 -37449842.48848 -29127991.24646  21023975.8134                   21023972.5164
 11  7 28  1  4 30.0000000  0  9G09G28G10G17G12G05G04G27G02
 -28308539.21547 -21737122.93045  22558563.4144                   22558562.0984
-106295080.45746 -82776284.94143  23657067.0004                   23657067.1764
 -24268050.69147 -18858540.52745  21623676.7584                   21623675.7894
 -86038379.40247 -66992256.42245  22376554.7974                   22376553.5004
  -6835243.30147  -5247723.50845  22912180.9064                   22912179.9844
   6714186.09046   5276094.78544  24078085.4454                   24078087.7274
 -62144918.72348 -48373533.23846  20489430.5784                   20489429.5594
 -43126035.39847 -33168925.58644  22960283.4534                   22960283.4454
 -37590055.75048 -29237248.31646  20997294.0864                   20997290.2934
 11  7 28  1  5  0.0000000  0  9G09G28G10G17G12G05G04G27G02
 -28365844.71147 -21781776.56244  22547658.2194                   22547657.5274
-106307048.22346 -82785610.54743  23654790.0394                   23654790.8204
 -24433973.12147 -18987830.68745  21592102.6484                   21592101.7074
 -86101235.75448 -67041235.41845  22364594.3204                   22364592.5474
  -7029409.16447  -5399021.52745  22875231.6804                   22875230.8714
   6503067.14147   5111586.76244  24037911.0314                   24037912.8164
 -62200098.82848 -48416530.73046  20478930.4064                   20478928.9614
 -43186687.29747 -33216186.82044  22948741.8134                   22948741.9064
 -37729809.97348 -29346147.68746  20970699.9064                   20970696.3754
 11  7 28  1  5 30.0000000  0  9G09G28G10G17G12G05G04G27G02
 -28422580.90647 -21825986.58645  22536861.0084                   22536861.2114
-106318664.59846 -82794662.35243  23652580.0864                   23652580.0554
 -24599349.46947 -19116695.33245  21560632.8594                   21560632.2154
 -86163899.85948 -67090064.59445  22352669.3524                   22352668.1134
  -7223296.09847  -5550102.21545  22838336.1094                   22838335.5944
   6292040.17646   4947150.40244  23997752.5164                   23997755.4184
 -62254814.34048 -48459166.20746  20468517.9064                   20468516.9224
 -43246923.71547 -33263124.31644  22937279.5554                   22937278.9534
 -37869108.18748 -29454691.73046  20944192.2114                   20944188.7234
 11  7 28  1  6  0.0000000  0  9G09G28G10G17G12G05G04G27G02
 -28478742.10547 -21869748.55544  22526173.6644                   22526173.8324
-106329923.05146 -82803435.22343  23650436.8834                   23650437.6724
 -24764168.48447 -19245125.68045  21529268.6484                   21529267.7114
 -86226363.11747 -67138737.27045  22340783.2894                   22340781.0904
  -7416893.41847  -5700957.25845  22801496.1334                   22801494.9454
   6081116.22747   4782794.31344  23957615.9454                   23957617.8984
 -62309059.26648 -48501434.99646  20458195.8444                   20458194.3634
 -43306738.45747 -33309733.23445  22925897.1804                   22925897.5704
 -38007942.58248 -29562874.35546  20917772.8284                   20917769.3364
 11  7 28  1  6 30.0000000  0  9G09G28G10G17G12G05G04G27G02
 -28534336.62147 -21913068.98044  22515595.3524                   22515594.6994
-106340830.53546 -82811934.62143  23648361.4924                   23648361.2464
 -24928433.19147 -19373124.09445  21498010.0004                   21498008.9184
 -86288630.74247 -67187257.50445  22328933.5634                   22328932.6024
  -7610203.96147  -5851588.81645  22764710.2814                   22764709.9304
   5870292.49647   4618516.33644  23917496.8364                   23917498.6684
 -62362841.66048 -48543343.35546  20447961.4224                   20447959.7664
 -43366139.60547 -33356019.87945  22914593.2664                   22914593.3834
 -38146318.80948 -29670699.96546  20891440.5864                   20891437.0824
 11  7 28  1  7  0.0000000  0  9G09G28G10G17G12G05G04G27G02
 -28589364.34447 -21955947.73044  22505123.7504                   22505122.6564
-106351386.10247 -82820159.80143  23646353.2034                   23646353.2814
 -25092138.02747 -19500686.26245  21466857.9454                   21466857.0864
 -86350699.10248 -67235622.46145  22317122.2734                   22317121.5944
  -7803222.61347  -6001992.92645  22727979.7034                   22727979.0944
   5659574.81346   4454320.93844  23877398.9614                   23877400.5474
 -62416160.71548 -48584890.66846  20437815.1884                   20437813.7664
 -43425126.47347 -33401983.66444  22903368.8284                   22903368.6054
 -38284234.30548 -29778166.57046  20865195.9144                   20865192.7894
 11  7 28  1  7 30.0000000  0  9G09G28G10G17G12G05G04G27G02
 -28643829.28547 -21998387.93044  22494758.5864                   22494758.4844
-106361592.30146 -82828112.72743  23644410.9454                   23644410.9574
 -25255281.37547 -19627810.89146  21435813.5004                   21435811.8244
 -86412569.07447 -67283832.84045  22305349.1884                   22305347.6564
  -7995948.04747  -6152168.55145  22691305.3834                   22691304.0044
   5448964.66446   4290209.36743  23837320.4774                   23837321.8134
 -62469019.86748 -48626079.63746  20427756.4064                   20427755.3134
 -43483702.47347 -33447627.35544  22892222.0234                   22892222.5744
 -38421690.34448 -29885275.14846  20839039.1414                   20839035.6254
 11  7 28  1  8  0.0000000  0  9G09G28G10G17G12G05G04G27G02
 -28697733.70347 -22040391.37944  22484501.7194                   22484500.8444
-106371450.81246 -82835794.73043  23642534.9454                   23642535.0164
 -25417859.87147 -19754495.38345  21404875.6884                   21404874.2934
 -86474239.72747 -67331887.91445  22293613.3204                   22293612.3594
  -8188377.23047  -6302113.34845  22654687.7504                   22654686.1174
   5238465.36747   4126184.17244  23797263.5084                   23797265.4184
 -62521421.26648 -48666911.89846  20417784.6334                   20417783.5984
 -43541869.75847 -33492952.51644  22881152.7894                   22881153.1884
 -38558686.92648 -29992025.70346  20812969.6804                   20812966.1954
 11  7 28  1  8 30.0000000  0  9G09G28G10G17G12G05G04G27G02
 -28751088.56247 -22081966.60544  22474348.2424                   22474347.9494
-106380971.27346 -82843213.34443  23640722.9384                   23640723.1994
 -25579878.89848 -19880743.93445  21374043.5084                   21374042.8244
 -86535718.35548 -67379793.34445  22281914.5704                   22281913.2734
  -8380515.31247  -6451831.33645  22618124.5394                   22618122.5434
   5028071.96147   3962241.46144  23757227.6174                   23757228.2234
 -62573374.98048 -48707395.32046  20407898.1724                   20407896.8364
 -43599638.72747 -33537967.30544  22870159.4304                   22870159.6644
 -38695232.38348 -30098424.73046  20786985.7114                   20786982.2734
 11  7 28  1  9  0.0000000  0  9G09G28G10G17G12G05G04G27G02
 -28803890.57847 -22123111.03544  22464300.2734                   22464299.8794
-106390149.02746 -82850364.88743  23638977.5634                   23638977.4454
 -25741329.59847 -20006549.62146  21343320.9614                   21343320.0824
 -86596998.30947 -67427543.95745  22270253.2194                   22270251.4224
  -8572353.96947  -6601315.95745  22581618.8914                   22581617.0904
   4817793.50847   3798388.34444  23717211.9614                   23717214.2344
 -62624877.18048 -48747526.91446  20398097.5394                   20398096.2814
 -43657005.34047 -33582668.58644  22859243.0234                   22859243.9884
 -38831320.37148 -30204467.28946  20761089.1254                   20761085.9264
 11  7 28  1  9 30.0000000  0  9G09G28G10G17G12G05G04G27G02
 -28856141.76247 -22163826.25045  22454357.8204                   22454356.8834
-106398985.37146 -82857250.38743  23637294.9534                   23637295.3054
 -25902208.43447 -20131909.70346  21312706.3524                   21312705.5434
 -86658078.76247 -67475139.12545  22258630.1414                   22258628.4804
  -8763889.80547  -6750564.64545  22545171.2274                   22545169.0864
   4607633.17247   3634627.23044  23677220.5704                   23677221.1564
 -62675929.58648 -48787308.03146  20388382.9224                   20388381.8364
 -43713971.45747 -33627057.77045  22848403.9924                   22848402.7774
 -38966950.74648 -30310153.25846  20735279.4384                   20735276.0204
 11  7 28  1 10  0.0000000  0  9G09G28G10G17G12G05G04G27G02
 -28907849.86747 -22204118.28145  22444517.7274                   22444517.0704
-106407486.82846 -82863874.96543  23635677.6484                   23635678.0474
 -26062517.45348 -20256825.76645  21282200.3054                   21282199.9414
 -86718963.41048 -67522581.71145  22247044.4144                   22247042.6024
  -8955125.27747  -6899579.25045  22508779.6644                   22508778.2504
   4397589.25047   3470956.85244  23637249.8204                   23637251.4144
 -62726538.91848 -48826743.87946  20378752.0474                   20378750.9224
 -43770544.10947 -33671140.37145  22837638.1174                   22837638.0744
 -39102128.58648 -30415486.60246  20709555.9694                   20709552.5354
 11  7 28  1 10 30.0000000  0  9G09G28G10G17G12G05G04G27G02
 -28959016.66847 -22243988.52345  22434781.9534                   22434781.0554
-106415653.95746 -82870238.99643  23634123.7814                   23634123.8794
 -26222253.23848 -20381295.15646  21251804.0394                   21251802.9534
 -86779651.02348 -67569870.75445  22235496.0314                   22235494.4494
  -9146056.70347  -7048356.94545  22472446.5394                   22472445.0354
   4187665.39547   3307380.02744  23597302.6254                   23597304.3164
 -62776706.80148 -48865835.74246  20369205.8674                   20369203.9804
 -43826724.63747 -33714917.42644  22826946.5634                   22826946.8164
 -39236853.25848 -30520466.82446  20683918.7814                   20683915.3094
 11  7 28  1 11  0.0000000  0  9G09G28G10G17G12G05G04G27G02
 -27434223.30547 -21055837.87145  22724939.9694                   22724938.9534
-104848068.50446 -81648743.91043  23932425.0554                   23932425.4144
 -24805987.52048 -19277711.43445  21521310.4384                   21521309.1954
 -85264719.21947 -66389404.41045  22523777.8054                   22523776.9494
  -7761255.12547  -5969290.71145  22735965.7344                   22735964.4534
   5553291.73047   4371504.62144  23857171.8444                   23857173.3524
 -61251013.75848 -47676984.01246  20659535.4774                   20659534.0864
 -42307093.72747 -32530789.45344  23116123.1564                   23116123.9734
 -37795700.82848 -29397490.85546  20958160.7664                   20958156.9184
 11  7 28  1 11 30.0000000  0  9G09G28G10G17G12G05G04G27G02
 -27484316.35247 -21094871.42645  22715407.7664                   22715407.3554
-104855572.79746 -81654591.44143  23930996.8284                   23930996.8634
 -24964568.63748 -19401281.07446  21491133.1174                   21491132.3324
 -85325011.36348 -66436385.32045  22512304.4454                   22512303.1054
  -7951570.62147  -6117588.42245  22699750.0234                   22699747.5984
   5343616.90647   4208121.82844  23817271.8284                   23817274.1174
 -61300305.76648 -47715393.37146  20650154.9224                   20650153.7504
 -42362497.61747 -32573961.30544  23105580.1174                   23105579.8984
 -37929520.29748 -29501765.72746  20932695.7664                   20932692.1024
 11  7 28  1 12  0.0000000  0  9G09G28G10G17G12G05G04G27G02
 -27533874.38347 -21133488.08645  22705976.7504                   22705976.5004
-104862745.60246 -81660180.74243  23929631.7194                   23929633.3984
 -25122565.97748 -19524395.82445  21461066.9534                   21461066.2664
 -85385102.52048 -66483209.61345  22500869.3054                   22500868.7304
  -8141572.02747  -6265641.40245  22663594.0234                   22663592.7504
   5134073.35947   4044841.35244  23777398.0554                   23777398.9734
 -61349160.63748 -47753462.09846  20640858.4454                   20640857.5314
 -42417514.21947 -32616831.37944  23095111.5084                   23095111.0044
 -38062884.98048 -29605686.22346  20907317.0704                   20907313.4304
 11  7 28  1 12 30.0000000  0  9G09G28G10G17G12G05G04G27G02
 -27582903.15247 -21171692.33244  22696647.3284                   22696646.3364
-104869591.64846 -81665515.39543  23928328.8984                   23928330.1134
 -25279979.61748 -19647055.75846  21431112.3914                   21431111.2424
 -85444994.72347 -66529878.89145  22489472.4144                   22489470.9104
  -8331259.21147  -6413449.52345  22627497.3834                   22627496.2034
   4924661.36747   3881663.35244  23737546.7974                   23737548.7464
 -61397583.51648 -47791194.21946  20631643.7814                   20631642.4534
 -42472148.70747 -32659403.71944  23084714.6094                   23084714.6174
 -38195797.95748 -29709254.72746  20882024.5474                   20882021.0704
 11  7 28  1 13  0.0000000  0  9G09G28G10G17G12G05G04G27G02
 -27631407.27347 -21209487.78145  22687417.2814                   22687416.3054
-104876114.19146 -81670597.97343  23927088.4144                   23927089.0234
 -25436808.48048 -19769260.01646  21401268.8754                   21401268.0164
 -85504689.26647 -66576394.14145  22478113.0634                   22478112.0514
  -8520631.51647  -6561012.29345  22591461.1564                   22591458.8094
   4715382.08647   3718588.78544  23697722.5784                   23697724.1414
 -61445578.46548 -47828592.87546  20622510.6414                   20622509.4574
 -42526405.22747 -32701681.55544  23074389.8834                   23074389.8284
 -38328261.43048 -29812472.97746  20856817.8594                   20856814.2704
 11  7 28  1 13 30.0000000  0  9G09G28G10G17G12G05G04G27G02
 -27679388.68047 -21246875.90645  22678286.7344                   22678286.3794
-104882314.38347 -81675429.37143  23925908.4774                   23925909.4454
 -25593049.19948 -19891005.98046  21371536.9384                   21371536.0354
 -85564184.62547 -66622754.17245  22466791.3914                   22466790.3554
  -8709685.47347  -6708327.00845  22555485.4454                   22555482.9614
   4506239.20747   3555620.50844  23657924.1024                   23657925.7304
 -61493146.86748 -47865659.15646  20613458.7584                   20613457.5554
 -42580285.41047 -32743666.10544  23064137.2034                   23064136.8204
 -38460274.99248 -29915340.65246  20831696.7814                   20831692.8484
 11  7 28  1 14  0.0000000  0  9G09G28G10G17G12G05G04G27G02
 -27726853.47347 -21283861.46945  22669253.7034                   22669253.4144
-104888197.07847 -81680013.34043  23924789.7274                   23924789.7934
 -25748702.32448 -20012294.08246  21341917.2894                   21341916.6054
 -85623483.31248 -66668960.95345  22455507.4064                   22455506.1174
  -8898421.43747  -6855393.94145  22519570.3984                   22519566.9264
   4297232.61747   3392758.43044  23618151.6884                   23618152.6804
 -61540294.08648 -47902397.24246  20604487.1484                   20604485.9414
 -42633794.68447 -32785361.67244  23053953.8054                   23053954.2624
 -38591841.77048 -30017860.18046  20806660.5394                   20806656.4384
 11  7 28  1 14 30.0000000  0  9G09G28G10G17G12G05G04G27G02
 -27773801.50847 -21320444.41045  22660320.5944                   22660320.4264
-104893761.00846 -81684348.90243  23923730.5634                   23923730.7464
 -25903762.45348 -20133120.10945  21312410.4774                   21312409.2664
 -85682581.67648 -66715011.63345  22444261.4924                   22444260.8244
  -9086833.80547  -7002208.73445  22483716.1334                   22483713.7424
   4088368.24647   3230007.15244  23578405.8984                   23578407.2854
 -61587019.38748 -47938806.55946  20595595.3364                   20595594.0434
 -42686932.49647 -32826767.76644  23043842.2194                   23043842.4454
 -38722959.39548 -30120029.71946  20781709.0704                   20781705.4104
 11  7 28  1 15  0.0000000  0  9G09G28G10G17G12G05G04G27G02
 -27820240.99647 -21356631.03945  22651483.9224                   22651483.3164
-104899013.28947 -81688441.62943  23922731.0164                   23922732.0234
 -26058232.09848 -20253486.02046  21283016.0004                   21283014.6254
 -85741484.62147 -66760910.04345  22433052.6254                   22433051.3794
  -9274925.50047  -7148773.62945  22447924.0394                   22447921.5084
   3879643.84847   3067364.95344  23538686.5944                   23538687.9184
 -61633330.52348 -47974893.14846  20586783.0634                   20586781.7234
 -42739706.56247 -32867890.44544  23033799.9454                   23033799.7194
 -38853633.53948 -30221853.68446  20756842.8754                   20756839.3164
 11  7 28  1 15 30.0000000  0  9G09G28G10G17G12G05G04G27G02
 -27866170.95747 -21392420.63345  22642743.0554                   22642743.3754
-104903951.62546 -81692289.80143  23921792.4844                   23921792.5204
 -26212104.41048 -20373386.46945  21253734.6484                   21253733.5164
 -85800187.24647 -66806652.36745  22421881.7344                   22421880.3284
  -9462689.58647  -7295083.23845  22412193.2034                   22412191.2234
   3671066.35247   2904837.21944  23498995.8134                   23498996.4344
 -61679225.37948 -48010655.35946  20578049.1564                   20578047.6684
 -42792115.03947 -32908728.25044  23023826.7114                   23023826.7194
 -38983860.26248 -30323329.00846  20732061.3914                   20732057.9694
 11  7 28  1 16  0.0000000  0  9G09G28G10G17G12G05G04G27G02
 -27911594.78547 -21427815.83645  22634099.0234                   22634099.7154
-104908578.26646 -81695894.94543  23920911.4614                   23920911.9104
 -26365377.67248 -20492820.12546  21224567.7664                   21224566.9654
 -85858689.50047 -66852238.55145  22410748.3754                   22410747.8484
  -9650123.91847  -7441135.89845  22376525.3444                   22376523.8244
   3462638.39847   2742426.02044  23459332.9924                   23459333.5594
 -61724706.71548 -48046095.35946  20569394.1644                   20569392.9884
 -42844160.83247 -32949283.45344  23013922.5784                   23013923.2584
 -39113640.20748 -30424456.19546  20707364.8364                   20707361.2584
 11  7 28  1 16 30.0000000  0  9G09G28G10G17G12G05G04G27G02
 -27956516.19547 -21462819.53945  22625550.9384                   22625551.1844
-104912895.83246 -81699259.30943  23920089.1954                   23920090.1374
 -26518049.68748 -20611785.30146  21195515.4384                   21195514.3444
 -85916991.35247 -66897668.55945  22399654.6804                   22399653.1174
  -9837226.36747  -7586929.97345  22340921.1954                   22340918.8954
   3254362.13747   2580133.02344  23419698.6884                   23419699.9344
 -61769777.82448 -48081215.68746  20560817.6804                   20560816.7154
 -42895847.35947 -32989558.68444  23004086.8674                   23004087.6644
 -39242975.11348 -30525236.60546  20682752.7894                   20682749.7464
 11  7 28  1 17  0.0000000  0  9G09G28G10G17G12G05G04G27G02
 -28000936.74647 -21497432.95344  22617097.8984                   22617097.8794
-104916904.55146 -81702383.03543  23919326.5164                   23919327.5984
 -26670117.07848 -20730279.32445  21166577.7344                   21166576.5594
 -85975091.31247 -66942941.25045  22388598.3984                   22388597.1604
 -10023993.35247  -7732462.63745  22305380.1954                   22305378.0004
   3046241.94147   2417961.59445  23380095.6334                   23380095.6134
 -61814439.36348 -48116016.86746  20552318.5784                   20552317.6334
 -42947175.59847 -33029554.79344  22994320.0314                   22994320.1054
 -39371863.57048 -30625669.14546  20658226.6884                   20658222.9064
 11  7 28  1 17 30.0000000  0  9G09G28G10G17G12G05G04G27G02
 -28044859.53947 -21531658.48445  22608739.7974                   22608740.3794
-104920606.43046 -81705267.67643  23918622.4694                   23918622.9844
 -26821577.30548 -20848300.23445  21137755.7194                   21137754.7894
 -86032988.13347 -66988055.65645  22377581.1564                   22377580.0704
 -10210422.00447  -7877731.68045  22269905.0634                   22269902.5394
   2838281.00847   2255914.27344  23340521.2194                   23340522.3324
 -61858693.42248 -48150500.55146  20543897.2344                   20543896.3954
 -42998148.00847 -33069273.56244  22984619.5554                   22984619.5984
 -39500306.10548 -30725754.19946  20633784.7344                   20633781.0744
 11  7 28  1 18  0.0000000  0  9G09G28G10G17G12G05G04G27G02
 -28088290.21947 -21565500.57845  22600475.9454                   22600476.0274
-104924005.86346 -81707916.64843  23917975.2114                   23917975.5664
 -26972430.16448 -20965847.87146  21109049.7344                   21109048.3404
 -86090683.85947 -67033013.36345  22366601.9304                   22366600.6844
 -10396512.21947  -8022736.99645  22234492.9844                   22234490.1294
   2630479.41047   2093991.11344  23300978.2584                   23300978.2934
 -61902545.18748 -48184670.74646  20535552.9144                   20535551.5904
 -43048769.58247 -33108718.97344  22974986.9774                   22974987.7424
 -39628305.48048 -30825493.94146  20609427.2194                   20609423.3714
 11  7 28  1 18 30.0000000  0  9G09G28G10G17G12G05G04G27G02
 -26555813.95747 -20371363.19945  22892095.8054                   22892095.7664
-103351688.28146 -80482734.15243  24217177.0864                   24217177.4574
 -25547252.34048 -19855319.64545  21380252.1954                   21380251.1294
 -84572760.17647 -65850215.68445  22655453.3054                   22655451.6414
  -9006838.82847  -6939874.57845  22498938.5864                   22498936.5784
   3998263.58247   3159797.13344  23561258.1724                   23561258.8554
 -60370578.87948 -46990930.76246  20827076.0474                   20827074.9304
 -41523624.77747 -31920294.48844  23265212.4304                   23265213.1254
 -38180441.87948 -29697288.50846  20884946.5784                   20884943.2154
 11  7 28  1 19  0.0000000  0  9G09G28G10G17G12G05G04G27G02
 -26598276.10247 -20404450.57844  22884015.7194                   22884015.5044
-103354495.07846 -80484921.32043  24216643.4694                   24216643.8954
 -25696890.53148 -19971920.79746  21351776.8754                   21351775.5824
 -84630059.19147 -65894864.25845  22644549.4454                   22644548.1644
  -9192251.00447  -7084351.55145  22463655.9064                   22463654.0164
   3790783.14847   2998124.20744  23521776.0314                   23521776.5084
 -60413639.53148 -47024484.52046  20818882.2504                   20818881.0044
 -41573558.98447 -31959204.27344  23255710.3364                   23255710.8874
 -38307563.32448 -29796344.14146  20860756.3834                   20860752.3834
 11  7 28  1 19 30.0000000  0  9G09G28G10G17G12G05G04G27G02
 -26640259.52747 -20437164.93744  22876025.8834                   22876026.5274
-103357009.24646 -80486880.47743  24216165.6024                   24216166.2344
 -25845918.59048 -20088046.51246  21323417.7274                   21323416.2894
 -84687159.73047 -65939358.16845  22633683.8524                   22633682.3714
  -9377320.96147  -7228561.85545  22428437.9304                   22428435.9064
   3583466.95347   2836579.28944  23482324.8834                   23482325.4304
 -60456308.70348 -47057733.19946  20810762.8204                   20810761.4414
 -41623154.12947 -31997849.89144  23246272.7034                   23246273.2234
 -38434247.44148 -29895059.01246  20836649.1644                   20836645.1724
 11  7 28  1 20  0.0000000  0  9G09G28G10G17G12G05G04G27G02
 -26681765.37947 -20469507.12145  22868127.7664                   22868128.1484
-103359230.69946 -80488611.56243  24215741.9304                   24215742.3444
 -25994332.09048 -20203693.35546  21295175.3914                   21295174.3484
 -84744059.44947 -65983695.60545  22622855.8444                   22622854.2544
  -9562043.74647  -7372501.63745  22393286.5314                   22393285.5514
   3376319.96147   2675166.21144  23442906.3054                   23442906.1954
 -60498587.06648 -47090677.37546  20802717.1484                   20802716.0864
 -41672410.86347 -32036231.78544  23236899.6564                   23236899.9494
 -38560492.76248 -29993431.96146  20812625.0634                   20812621.7194
 11  7 28  1 20 30.0000000  0  9G09G28G10G17G12G05G04G27G02
 -26722799.78547 -20501481.99644  22860319.9534                   22860319.0164
-103361164.49246 -80490118.42643  24215375.3054                   24215374.9024
 -26142131.89148 -20318861.98845  21267049.6954                   21267048.1884
 -84800760.75447 -66027878.44945  22612066.3444                   22612064.7854
  -9746420.79347  -7516172.02745  22358200.9144                   22358199.0704
   3169341.90247   2513884.73444  23403519.2504                   23403519.6484
 -60540480.00448 -47123321.22746  20794745.5314                   20794743.9804
 -41721334.78947 -32074354.35244  23227589.7734                   23227590.4654
 -38686303.04748 -30091465.93046  20788684.2194                   20788680.4614
 11  7 28  1 21  0.0000000  0  9G09G28G10G17G12G05G04G27G02
 -26763365.57447 -20533091.69544  22852600.1254                   22852599.6024
-103362811.96146 -80491402.18443  24215060.5864                   24215061.5784
 -26289315.14148 -20433550.17646  21239041.7504                   21239040.3324
 -84857262.56647 -66071905.82845  22601313.6484                   22601313.2624
  -9930448.77748  -7659570.40645  22323181.8834                   22323179.7894
   2962536.19147   2352737.55544  23364165.2424                   23364165.6804
 -60581989.05548 -47155665.94546  20786846.8674                   20786844.8714
 -41769927.96147 -32112219.19544  23218343.1254                   23218344.0434
 -38811678.30948 -30189160.91046  20764826.4614                   20764822.4344
 11  7 28  1 21 30.0000000  0  9G09G28G10G17G12G05G04G27G02
 -26803466.87147 -20564339.44944  22844968.7584                   22844969.3594
-103364176.49246 -80492465.49243  24214801.3594                   24214802.0824
 -26435881.04748 -20547757.33245  21211151.1334                   21211150.1914
 -84913565.41447 -66115778.19145  22590599.7034                   22590599.5004
 -10114126.28947  -7802695.71545  22288228.8054                   22288226.9654
   2755904.57847   2191726.07444  23324843.9844                   23324845.1374
 -60623117.91448 -47187714.40646  20779020.1024                   20779017.9694
 -41818194.19147 -32149829.26644  23209157.9144                   23209158.5274
 -38936620.21548 -30286518.21146  20741050.5474                   20741047.0234
 11  7 28  1 22  0.0000000  0  9G09G28G10G17G12G05G04G27G02
 -26843108.80147 -20595229.28144  22837424.8054                   22837424.7464
-103365261.67646 -80493311.14143  24214595.0704                   24214596.0704
 -26581829.16048 -20661483.09046  21183378.2504                   21183376.5944
 -84969670.50847 -66159496.46145  22579924.1094                   22579922.1054
 -10297452.19147  -7945547.03945  22253342.5944                   22253341.0274
   2549448.36347   2030851.25844  23285556.7424                   23285557.6094
 -60663870.77748 -47219469.88346  20771265.2034                   20771263.1804
 -41866137.77347 -32187187.89544  23200034.6564                   23200035.2384
 -39061131.11748 -30383539.67246  20717356.8834                   20717353.0824
 11  7 28  1 22 30.0000000  0  9G09G28G10G17G12G05G04G27G02
 -26882297.05147 -20625765.57844  22829967.7734                   22829967.9844
-103366072.01246 -80493942.60943  24214438.9844                   24214441.8754
 -26727159.67648 -20774727.60246  21155722.4844                   21155721.5704
 -85025580.04747 -66203062.33245  22569284.6884                   22569283.2424
 -10480426.41847  -8088124.34045  22218524.0634                   22218521.9804
   2343168.02747   1870113.44145  23246303.1954                   23246303.6804
 -60704252.43748 -47250936.11746  20763580.5164                   20763579.3284
 -41913763.86347 -32224299.12544  23190971.8984                   23190971.8134
 -39185213.87148 -30480227.52046  20693744.9534                   20693740.8954
 11  7 28  1 23  0.0000000  0  9G09G28G10G17G12G05G04G27G02
 -26921030.78147 -20655947.72344  22822596.6884                   22822597.2424
-103366605.28546 -80494358.23043  24214338.9064                   24214340.0984
 -26871866.30148 -20887485.95746  21128185.6484                   21128184.5394
 -85081289.24647 -66246472.11345  22558683.9614                   22558682.0394
 -10663042.45347  -8230422.52745  22183773.4614                   22183771.6884
   2137070.37147   1709518.04345  23207083.4924                   23207084.3324
 -60744261.25448 -47282111.82446  20755967.2034                   20755965.7774
 -41961070.94947 -32261161.82044  23181969.6024                   23181970.0634
 -39308865.23048 -30576579.19946  20670214.5944                   20670210.7424
 11  7 28  1 23 30.0000000  0  9G09G28G10G17G12G05G04G27G02
 -26959315.43747 -20685779.94944  22815311.7974                   22815312.0204
-103366866.03546 -80494561.45743  24214290.1884                   24214290.4534
 -27015949.03548 -20999758.17646  21100767.4924                   21100766.7034
 -85136799.75847 -66289727.05545  22548120.0004                   22548118.2234
 -10845300.09848  -8372441.43445  22149091.0554                   22149089.5434
   1931156.09447   1549065.50045  23167900.5704                   23167900.0554
 -60783901.56648 -47313000.38346  20748423.7814                   20748422.6094
 -42008063.96547 -32297779.77344  23173026.4844                   23173027.3094
 -39432088.19948 -30672597.07446  20646765.8984                   20646761.9844
 11  7 28  1 24  0.0000000  0  9G09G28G10G17G12G05G04G27G02
 -26997156.41847 -20715266.43444  22808110.1484                   22808110.6684
-103366858.12946 -80494555.31642  24214291.3524                   24214292.1454
 -27159407.72348 -21111544.11746  21073468.0394                   21073467.0944
 -85192113.24647 -66332828.50045  22537593.9454                   22537592.5634
 -11027198.70747  -8514180.59445  22114476.7664                   22114475.4654
   1725426.24647   1388756.66845  23128750.8284                   23128750.4184
 -60823178.00448 -47343605.41046  20740949.8834                   20740948.6214
 -42054747.43747 -32334156.52344  23164143.6484                   23164144.5784
 -39554885.26248 -30768283.07846  20623398.2814                   20623394.2504
 11  7 28  1 24 30.0000000  0  9G09G28G10G17G12G05G04G27G02
 -27034554.58247 -20744407.88744  22800994.2274                   22800994.5044
-103366581.41445 -80494339.75042  24214343.0554                   24214345.0004
 -27302238.40648 -21222840.71546  21046288.4844                   21046287.2464
 -85247227.04747 -66375774.30945  22527106.5704                   22527104.5204
 -11208733.89847  -8655636.55945  22079931.7424                   22079929.9964
   1519885.71547   1228595.36345  23089637.3134                   23089637.2624
 -60862090.76648 -47373927.03946  20733544.9454                   20733543.4924
 -42101121.82847 -32370292.39144  23155318.9224                   23155319.0004
 -39677254.89148 -30863636.01646  20600112.7114                   20600108.6564
 11  7 28  1 25  0.0000000  0  9G09G28G10G17G12G05G04G27G02
 -27071515.84447 -20773208.89544  22793960.7584                   22793960.5904
-103366040.35246 -80493918.16042  24214446.1724                   24214449.0004
 -27444441.64848 -21333648.38746  21019227.6884                   21019226.8794
 -85302142.84847 -66418565.85545  22516656.2734                   22516655.1214
 -11389905.15648  -8796808.93745  22045455.9534                   22045454.2274
   1314534.98447   1068581.95345  23050560.0234                   23050560.4574
 -60900644.72348 -47403969.08646  20726208.6884                   20726206.8634
 -42147192.58647 -32406191.71544  23146551.9384                   23146552.2854
 -39799200.41448 -30958658.48046  20576906.9844                   20576903.2504
 11  7 28  1 25 30.0000000  0  8G09G10G17G12G05G04G27G02
 -27108043.40247 -20801671.96144  22787009.9614                   22787009.6684
 -27586015.20748 -21443965.40246  20992287.8134                   20992286.2464
 -85356860.32447 -66461202.85545  22506244.2504                   22506242.5044
 -11570709.74247  -8937695.62145  22011049.9454                   22011048.2624
   1109377.32047    908719.00845  23011519.4384                   23011520.1764
 -60938842.07048 -47433733.25446  20718939.5084                   20718938.3444
 -42192962.32447 -32441856.44144  23137842.7734                   23137842.9414
 -39920722.35948 -31053350.89846  20553782.2504                   20553778.4224
 11  7 28  1 26  0.0000000  0  8G09G10G17G12G05G04G27G02
 -25568719.90647 -19602199.14144  23079933.3984                   23079933.6484
 -26151533.25048 -20326187.21146  21265260.3364                   21265258.9614
 -83835957.41047 -65276083.70745  22795661.7814                   22795661.1804
 -10175719.75447  -7850690.43445  22276507.8594                   22276506.0594
   2479841.60247   1976613.38745  23272310.8134                   23272310.5744
 -59401264.41848 -46235620.80546  21011530.7734                   21011529.4694
 -40663012.86747 -31249688.03544  23428981.7034                   23428982.4494
 -38466397.85548 -29920110.99646  20830530.3914                   20830526.6844
 11  7 28  1 26 30.0000000  0  8G09G10G17G12G05G04G27G02
 -25604388.86347 -19629993.13344  23073145.6804                   23073145.7114
 -26291840.79348 -20435517.72746  21238560.4694                   21238559.3794
 -83890275.38747 -65318409.40645  22785325.9694                   22785324.8634
 -10355782.68048  -7990999.17645  22242242.7274                   22242240.6604
   2275079.50447   1817058.64545  23233345.7894                   23233346.0704
 -59438754.77748 -46264834.07846  21004396.8284                   21004395.5164
 -40708187.63347 -31284889.14544  23420385.6174                   23420386.0044
 -38587073.64848 -30014144.07046  20807567.0634                   20807563.0554
 11  7 28  1 27  0.0000000  0  8G09G10G17G12G05G04G27G02
 -25639631.90646 -19657455.29344  23066438.9844                   23066439.4654
 -26431510.81648 -20544351.48046  21211981.9774                   21211980.8554
 -83944391.26647 -65360577.62545  22775027.4454                   22775026.6094
 -10535469.79747  -8131015.09845  22208049.5634                   22208047.6254
   2070521.12547   1657662.64145  23194419.5784                   23194419.2234
 -59475893.68748 -46293773.48446  20997329.2974                   20997327.9144
 -40753067.34847 -31319860.38344  23411844.9454                   23411845.7384
 -38707326.13348 -30107847.27746  20784683.5474                   20784679.5784
 11  7 28  1 27 30.0000000  0  8G09G10G17G12G05G04G27G02
 -25674446.23447 -19684583.37144  23059815.4454                   23059814.8634
 -26570534.94148 -20652681.93746  21185527.0234                   21185525.8954
 -83998298.43447 -65402583.21145  22764769.7894                   22764768.8984
 -10714771.90248  -8270731.00046  22173929.5944                   22173927.7774
   1866175.44547   1498432.36345  23155533.2034                   23155533.8954
 -59512677.32048 -46322436.06246  20990329.6254                   20990328.5084
 -40797648.58647 -31354599.03144  23403362.0864                   23403362.0554
 -38827149.52748 -30201216.14146  20761882.0864                   20761878.5314
 11  7 28  1 28  0.0000000  0  8G09G10G17G12G05G04G27G02
 -25708838.80147 -19711382.80944  23053269.1884                   23053269.6764
 -26708914.90248 -20760510.44146  21159193.9614                   21159193.0044
 -84052000.20747 -65444428.75845  22754550.9454                   22754549.6884
 -10893690.18448  -8410147.83246  22139882.7194                   22139880.7274
   1662041.80147   1339367.32044  23116687.4304                   23116687.6414
 -59549111.64148 -46350826.44146  20983396.2584                   20983395.0704
 -40841937.62147 -31389109.99244  23394933.5704                   23394933.7074
 -38946548.45348 -30294254.24646  20739160.9454                   20739157.3164
 11  7 28  1 28 30.0000000  0  8G09G10G17G12G05G04G27G02
 -25742812.98447 -19737856.21944  23046804.6484                   23046805.1604
 -26846649.19148 -20867835.82446  21132984.1174                   21132982.8634
 -84105495.80947 -65486113.65645  22744370.6024                   22744369.6174
 -11072222.46148  -8549263.85246  22105909.1804                   22105907.5204
   1458123.03947   1180469.71945  23077883.3834                   23077883.4614
 -59585199.10948 -46378946.53546  20976529.0394                   20976527.4884
 -40885937.18447 -31423395.40644  23386561.1484                   23386561.2974
 -39065523.65648 -30386962.17246  20716520.9844                   20716517.0394
 11  7 28  1 29  0.0000000  0  8G09G10G17G12G05G04G27G02
 -25776377.52347 -19764010.39844  23040418.0784                   23040417.5234
 -26983741.41448 -20974660.88346  21106896.2274                   21106894.9494
 -84158790.36747 -65527641.88345  22734228.9064                   22734228.2894
 -11250371.31248  -8688081.11746  22072008.3914                   22072006.7774
   1254416.91447   1021737.76245  23039119.3054                   23039119.3554
 -59620947.36348 -46406802.32046  20969726.4304                   20969725.1484
 -40929655.57446 -31457461.71544  23378241.8134                   23378241.6484
 -39184081.19948 -30479344.65646  20693960.1804                   20693956.5234
 11  7 28  1 29 30.0000000  0  8G09G10G17G12G05G04G27G02
 -25809536.19947 -19789848.37944  23034107.7424                   23034108.2774
 -27120190.00448 -21080984.42246  21080930.9694                   21080929.5234
 -84211883.48847 -65569013.16445  22724125.6804                   22724124.7034
 -11428134.73048  -8826598.02046  22038180.8284                   22038179.0744
   1050925.68447    863173.30145  23000396.5394                   23000397.0434
 -59656359.30148 -46434396.03146  20962987.5704                   20962987.1684
 -40973095.68747 -31491311.19944  23369974.9534                   23369975.3754
 -39302222.21148 -30571402.57046  20671478.3524                   20671474.7114
 11  7 28  1 30  0.0000000  0  8G09G10G17G12G05G04G27G02
 -25842295.86347 -19815375.39845  23027873.9694                   23027874.7934
 -27255996.66848 -21186807.75846  21055087.9384                   21055086.5234
 -84264778.18047 -65610229.79745  22714059.8364                   22714059.5944
 -11605513.72748  -8964815.36346  22004426.6094                   22004425.1994
    847648.98447    704775.98445  22961713.9844                   22961713.9694
 -59691440.69148 -46461732.17646  20956311.9384                   20956310.6254
 -41016263.68746 -31524948.61744  23361760.6174                   23361760.8164
 -39419951.16048 -30663139.38746  20649075.4774                   20649072.2504
 11  7 28  1 30 30.0000000  0  8G09G10G17G12G05G04G27G02
 -25874657.98847 -19840592.63344  23021715.6174                   23021715.7814
 -27391157.50048 -21292127.85246  21029367.6484                   21029366.3594
 -84317472.18447 -65651290.08645  22704033.0944                   22704031.7504
 -11782503.75848  -9102729.63346  21970747.2114                   21970745.0984
    644591.45347    546549.46145  22923073.0084                   22923072.4964
 -59726192.05948 -46488811.16046  20949699.2814                   20949697.6724
 -41059160.49646 -31558374.73844  23353597.8134                   23353597.7894
 -39537266.63348 -30754554.02046  20626751.0314                   20626747.3714
 11  7 28  1 31  0.0000000  0  8G09G10G17G12G05G04G27G02
 -25906625.53947 -19865502.41444  23015632.1724                   23015633.0354
 -27525670.45748 -21396943.10946  21003770.4614                   21003769.4884
 -84369964.64547 -65692193.30145  22694044.5004                   22694043.1764
 -11959102.05948  -9240338.64546  21937140.9774                   21937139.6024
    441757.00447    388496.77045  22884474.8834                   22884475.1214
 -59760615.43448 -46515634.57046  20943148.9384                   20943147.2114
 -41101788.61746 -31591591.49644  23345486.0784                   23345486.1914
 -39654169.33248 -30845647.00046  20604505.2034                   20604501.2774
 11  7 28  1 31 30.0000000  0  8G09G10G17G12G05G04G27G02
 -25938206.59047 -19890111.00444  23009622.8134                   23009622.8014
 -27659538.47348 -21501255.81246  20978296.6414                   20978294.9064
 -84422259.69147 -65732942.70745  22684092.7194                   22684091.8244
 -12135310.63348  -9377643.98446  21903609.7194                   21903608.2424
    239143.22347    230616.02345  22845918.5784                   22845918.8524
 -59794717.87148 -46542207.89146  20936659.0634                   20936657.9414
 -41144155.75046 -31624604.89843  23337423.2344                   23337424.4064
 -39770664.83248 -30936422.69546  20582336.6954                   20582333.1884
 11  7 28  1 32  0.0000000  0  8G09G10G17G12G05G04G27G02
 -25969405.78547 -19914422.06644  23003685.7814                   23003685.6604
 -27792761.36748 -21605065.82046  20952944.6804                   20952943.7074
 -84474357.93747 -65773538.74645  22674178.5944                   22674177.8094
 -12311128.13348  -9514644.58646  21870152.7814                   21870151.1524
     36751.71947     72908.48445  22807404.3524                   22807404.1724
 -59828502.67248 -46568533.72346  20930229.9614                   20930229.0004
 -41186265.53946 -31657417.73844  23329410.5634                   23329410.7424
 -39886754.95748 -31026882.50847  20560245.7424                   20560242.2344
 11  7 28  1 32 30.0000000  0  8G09G10G17G12G05G04G27G02
 -26000223.90647 -19938436.18444  22997821.1334                   22997821.5944
 -27925334.63348 -21708369.62546  20927716.7194                   20927715.5514
 -84526256.16047 -65813978.93045  22664302.6174                   22664301.3874
 -12486549.34048  -9651336.39546  21836771.3594                   21836769.1484
   -165411.62147    -84621.25045  22768934.3364                   22768934.1724
 -59861969.72348 -46594611.93746  20923861.6174                   20923859.8874
 -41228118.14847 -31690030.19144  23321446.5394                   23321446.0664
 -40002437.77748 -31117024.93746  20538232.1804                   20538228.1174
 11  7 28  1 33  0.0000000  0  8G09G10G17G12G05G04G27G02
 -26030666.27347 -19962157.51644  22992028.3054                   22992028.3364
 -28057258.69148 -21811167.54746  20902612.3284                   20902610.9774
 -84577956.06647 -65854264.57445  22654464.4454                   22654462.9414
 -12661573.69548  -9787718.96946  21803465.1414                   21803463.9224
   -367345.69147   -241972.36345  22730507.5394                   22730506.9534
 -59895123.12548 -46620445.76646  20917552.8754                   20917551.5434
 -41269718.18747 -31722445.83644  23313529.7894                   23313530.7814
 -40117716.00848 -31206852.10546  20516295.4064                   20516291.4064
 11  7 28  1 33 30.0000000  0  8G09G10G17G12G05G04G27G02
 -26060735.53947 -19985588.12544  22986306.7584                   22986306.2544
 -28188531.14548 -21913457.73446  20877632.2114                   20877631.0824
 -84629456.15647 -65894394.53145  22644664.4924                   22644663.5554
 -12836198.09847  -9923789.88746  21770235.2584                   21770233.4264
   -569046.93447   -399142.01245  22692125.0554                   22692125.0164
 -59927964.62948 -46646036.54346  20911303.1884                   20911301.6884
 -41311067.63346 -31754666.19944  23305661.2814                   23305662.3984
 -40232590.19148 -31296364.43446  20494435.1024                   20494431.5944
 11  7 28  1 34  0.0000000  0  8G09G10G17G12G05G04G27G02
 -24515019.17247 -18781133.80544  23280446.2114                   23280445.7074
 -26743731.38748 -20787639.70746  21152568.6334                   21152567.1804
 -83105339.34047 -64706771.04345  22934693.7114                   22934692.9734
 -11434999.47348  -8831946.75446  22036874.3754                   22036872.9774
    804909.05147    671473.15245  22953579.7734                   22953579.0984
 -58385080.70748 -45443789.33246  21204904.0394                   21204902.6454
 -39776753.16847 -30559096.50844  23597631.7734                   23597632.0084
 -38771642.38748 -30157963.50446  20772444.6174                   20772440.7974
 11  7 28  1 34 30.0000000  0  8G09G10G17G12G05G04G27G02
 -24544360.74647 -18803997.35944  23274862.0394                   23274863.0274
 -26873704.10948 -20888917.11346  21127835.2584                   21127833.9264
 -83156446.89847 -64746595.10545  22924969.1644                   22924967.2034
 -11608824.78947  -8967395.01646  22003796.1414                   22003794.7974
    603673.77047    514666.57045  22915286.1884                   22915285.8794
 -58417313.91048 -45468906.11746  21198770.5234                   21198769.0904
 -39817618.43047 -30590939.60944  23589855.7584                   23589856.2154
 -38885719.19148 -30246854.50046  20750736.2974                   20750732.2114
 11  7 28  1 35  0.0000000  0  8G09G10G17G12G05G04G27G02
 -24573343.23046 -18826581.13344  23269347.3594                   23269348.1684
 -27003023.94948 -20989685.78546  21103226.7114                   21103225.3164
 -83207357.02047 -64786265.34845  22915280.8594                   22915279.3444
 -11782246.47748  -9102528.76246  21970795.3364                   21970794.0784
    402676.43047    358045.37945  22877037.5634                   22877036.8594
 -58449245.85948 -45493788.16446  21192694.1334                   21192693.0044
 -39858245.46546 -30622597.02744  23582124.3594                   23582125.0824
 -38999397.98848 -30335435.36346  20729103.8984                   20729100.0354
 11  7 28  1 35 30.0000000  0  8G09G10G17G12G05G04G27G02
 -24601970.60947 -18848888.18444  23263899.8674                   23263900.4774
 -27131690.19548 -21089945.16446  21078742.3914                   21078740.7504
 -83258069.33247 -64825781.42245  22905630.7274                   22905629.5634
 -11955262.53947  -9237346.44946  21937871.1804                   21937869.6254
    201919.49247    201611.50045  22838835.0474                   22838834.3164
 -58480879.48448 -45518437.76646  21186674.4844                   21186673.2974
 -39898637.43447 -30654071.28944  23574438.3914                   23574438.7504
 -39112680.16448 -30423707.16047  20707546.8364                   20707543.1724
 11  7 28  1 36  0.0000000  0  8G09G10G17G12G05G04G27G02
 -24630246.51247 -18870921.36344  23258519.0234                   23258518.8794
 -27259701.90648 -21189694.51646  21054381.9774                   21054381.1644
 -83308584.25047 -64865143.70345  22896018.1254                   22896016.1804
 -12127870.82448  -9371846.38746  21905025.2034                   21905023.4614
      1405.38747     45366.86345  22800677.7734                   22800677.5904
 -58512217.54748 -45542857.04346  21180711.1254                   21180709.9494
 -39938797.49646 -30685364.88344  23566795.6254                   23566796.5824
 -39225567.07848 -30511670.95746  20686065.5474                   20686061.3634
 11  7 28  1 36 30.0000000  0  8G09G10G17G12G05G04G27G02
 -24658176.51647 -18892685.03944  23253204.4534                   23253204.4694
 -27387059.62548 -21288934.27046  21030147.1414                   21030145.5784
 -83358903.06647 -64904353.16845  22886441.8284                   22886441.2814
 -12300070.91848  -9506028.24646  21872256.1884                   21872254.9304
   -198865.13347   -110687.96945  22762568.3204                   22762567.5124
 -58543264.57848 -45567049.53946  21174802.8834                   21174801.6994
 -39978730.61346 -30716481.62944  23559197.3204                   23559197.1764
 -39338061.74248 -30599329.10246  20664658.3204                   20664654.1724
 11  7 28  1 37  0.0000000  0  8G09G10G17G12G05G04G27G02
 -24685763.35547 -18914181.30944  23247955.2114                   23247954.6884
 -27513761.05148 -21387662.62546  21006036.3984                   21006035.1564
 -83409024.48047 -64943408.80545  22876904.6414                   22876903.6214
 -12471859.48048  -9639889.43046  21839566.0314                   21839564.6254
   -398888.28947   -266550.07045  22724504.5704                   22724503.7114
 -58574021.57848 -45591016.03946  21168949.8524                   21168948.6054
 -40018438.77746 -30747423.07844  23551641.1484                   23551641.3954
 -39450164.22348 -30686681.66046  20643326.0004                   20643322.0824
 11  7 28  1 37 30.0000000  0  8G09G10G17G12G05G04G27G02
 -24713016.05547 -18935417.23044  23242768.5234                   23242768.7194
 -27639810.29748 -21485882.77746  20982049.6564                   20982048.3524
 -83458953.59047 -64982314.61745  22867403.9384                   22867402.0744
 -12643239.66048  -9773432.40246  21806954.0864                   21806952.0164
   -598666.52347   -422221.32045  22686487.4144                   22686487.1914
 -58604496.81648 -45614762.98846  21163150.5944                   21163149.3984
 -40057930.34447 -30778195.75844  23544125.8914                   23544125.7384
 -39561881.11748 -30773733.75046  20622066.7664                   20622063.1844
 11  7 28  1 38  0.0000000  0  8G09G10G17G12G05G04G27G02
 -24739940.71147 -18956397.49244  23237645.0784                   23237644.7274
 -27765208.55148 -21583595.67646  20958187.5164                   20958185.5394
 -83508692.38347 -65021072.12145  22857939.3284                   22857937.2974
 -12814211.38748  -9906657.07846  21774418.9064                   21774417.0634
   -798199.64147   -577701.56245  22648518.1644                   22648517.6884
 -58634694.95748 -45638294.02346  21157404.1254                   21157402.8324
 -40097210.38346 -30808803.59443  23536650.0784                   23536651.2814
 -39673215.55148 -30860487.83246  20600880.3594                   20600876.4454
 11  7 28  1 38 30.0000000  0  8G09G10G17G12G05G04G27G02
 -24766534.50447 -18977119.96944  23232584.9534                   23232584.3524
 -27889948.48848 -21680795.58246  20934450.3524                   20934448.9734
 -83558234.27347 -65059676.20344  22848510.9384                   22848509.9494
 -12984766.34048 -10039556.99646  21741963.2424                   21741961.3164
   -997478.49247   -732983.68045  22610596.3914                   22610595.0554
 -58664612.37948 -45661606.31646  21151711.0394                   21151710.1334
 -40136275.88346 -30839244.25043  23529216.9534                   23529217.6174
 -39784162.73048 -30946940.14846  20579767.9534                   20579763.8834
 11  7 28  1 39  0.0000000  0  8G09G10G17G12G05G04G27G02
 -24792803.27347 -18997589.16444  23227585.7664                   23227586.1094
 -28014031.40648 -21777483.54746  20910838.2274                   20910836.3794
 -83607581.32047 -65098128.43045  22839120.7584                   22839119.2464
 -13154904.36748 -10172132.03546  21709586.9694                   21709585.7344
  -1196502.78947   -888067.44145  22572722.7424                   22572722.6804
 -58694253.81248 -45684703.56246  21146070.9614                   21146069.7894
 -40175132.20846 -30869521.95844  23521822.9774                   23521823.3594
 -39894725.92648 -31033093.25046  20558728.6804                   20558724.5354
 11  7 28  1 39 30.0000000  0  8G09G10G17G12G05G04G27G02
 -24818752.54746 -19017809.41844  23222647.2034                   23222647.6094
 -28137457.86748 -21873659.97346  20887350.4774                   20887349.3484
 -83656735.21947 -65136430.16845  22829766.9924                   22829765.3204
 -13324624.94548 -10304381.76646  21677290.1644                   21677288.5044
  -1395271.61747  -1042952.14145  22534898.3134                   22534897.8754
 -58723623.47348 -45707589.01646  21140481.7194                   21140480.2384
 -40213784.04746 -30899640.28543  23514466.9694                   23514468.2584
 -40004908.16048 -31118949.51246  20537761.8674                   20537757.5514
 11  7 28  1 40  0.0000000  0  8G09G10G17G12G05G04G27G02
 -24844383.14547 -19037781.37544  23217769.9694                   23217770.3674
 -28260223.89548 -21969321.78146  20863988.9924                   20863987.3244
 -83705692.52747 -65174578.71944  22820450.7664                   22820449.1374
 -13493922.90648 -10436302.18746  21645074.1804                   21645071.9924
  -1593779.14147  -1197633.23445  22497123.4924                   22497123.2274
 -58752720.91848 -45730262.35546  21134944.6484                   21134943.5354
 -40252231.40246 -30929599.32043  23507151.4384                   23507151.7344
 -40114707.55548 -31204507.44946  20516867.8054                   20516863.3134
 11  7 28  1 40 30.0000000  0  9G09G25G10G17G12G05G04G27G02
 -24869699.06247 -19057508.09044  23212952.8674                   23212953.4574
  20178660.09456  15762670.27353  24547851.9924                   24547853.4774
 -28382328.46148 -22064468.17246  20840753.3444                   20840751.6174
 -83754452.93047 -65212573.81644  22811172.6484                   22811170.4804
 -13662796.46948 -10567891.91846  21612938.3594                   21612936.3594
  -1792022.80147  -1352108.71545  22459399.3054                   22459398.6884
 -58781548.76648 -45752725.62146  21129458.4924                   21129457.5274
 -40290477.42646 -30959401.50844  23499873.7504                   23499874.7074
 -40224125.40648 -31289768.09047  20496046.0394                   20496041.8954
 11  7 28  1 41  0.0000000  0  9G09G25G10G17G12G05G04G27G02
 -24894707.65647 -19076995.32444  23208193.8134                   23208193.8754
  19975847.54346  15604634.62543  24509257.8364                   24509259.3674
 -28503774.34048 -22159101.28146  20817642.9454                   20817641.3834
 -83803020.26247 -65250418.50844  22801930.2664                   22801928.2854
 -13831246.99648 -10699152.00446  21580883.2584                   21580881.1414
  -1990003.84847  -1506379.57445  22421724.8134                   22421723.6054
 -58810113.52348 -45774983.88346  21124022.8444                   21124021.8204
 -40328529.20747 -30989052.29344  23492632.9064                   23492633.2774
 -40333167.22348 -31374735.71946  20475295.8524                   20475291.5554
 11  7 28  1 41 30.0000000  0  9G09G25G10G17G12G05G04G27G02
 -24919417.09847 -19096249.48444  23203491.7974                   23203493.0594
  19773190.13746  15446719.79343  24470693.0394                   24470694.4924
 -28624565.57448 -22253224.29746  20794657.0554                   20794655.7664
 -83851398.85547 -65288116.09844  22792723.8054                   22792722.5784
 -13999276.95748 -10830084.38746  21548908.1254                   21548905.8554
  -2187724.50847  -1660447.52345  22384099.5164                   22384099.1174
 -58838422.03948 -45797042.46946  21118636.6174                   21118635.4104
 -40366394.25846 -31018557.57443  23485427.1724                   23485427.9614
 -40441838.16048 -31459414.34846  20454616.4224                   20454612.2114
 11  7 28  1 42  0.0000000  0  9G09G25G10G17G12G05G04G27G02
 -23368413.57047 -17887675.30144  23498638.7274   23498637.9184   21146113.57046
  16516530.34043                  24731951.3914                   24731951.8594
 -27169280.27348 -21119235.70746  21071588.6954                   21071587.2704
 -82324170.09847 -64098067.69144  23083346.0234                   23083344.8244
 -12591461.82048  -9733085.51646  21816806.1954                   21816804.0354
   -809758.54747   -586707.71545  22646317.7194                   22646317.4734
 -57291059.27048 -44591305.25046  21413089.6334                   21413088.3634
 -38828657.45747 -29820321.18443  23778048.9304                   23778049.5084
 -38974719.28548 -30316204.80146  20733800.2344                   20733795.9024
 11  7 28  1 42 30.0000000  0  9G09G25G10G17G12G05G04G27G02
 -23392538.64547 -17906474.10244  23494047.9304   23494047.3164   20943770.45346
  16358860.43043                  24693445.9384                   24693447.1484
 -27288761.77048 -21212338.14146  21048852.1804                   21048850.5274
 -82372172.75047 -64135472.34445  23074211.5474                   23074209.9654
 -12758646.66048  -9863359.35946  21784992.0314                   21784990.3794
  -1006952.09847   -740364.95345  22608793.0634                   22608792.4654
 -57318865.50848 -44612972.44946  21407798.2734                   21407796.9884
 -38866160.67247 -29849544.52343  23770912.4694                   23770912.6994
 -39082655.20348 -30400310.69546  20713260.3754                   20713256.0004
 11  7 28  1 43  0.0000000  0  9G09G25G10G17G12G05G04G27G02
 -23416378.76647 -17925050.82844  23489511.0474   23489511.1054   20741586.07446
  16201314.25043                  24654972.2974                   24654973.0084
 -27407588.91448 -21304930.69546  21026240.0704                   21026238.7074
 -82419989.04747 -64172731.80544  23065112.2734                   23065111.1454
 -12925407.41048  -9993302.75046  21753258.4144                   21753256.4774
  -1203879.91447   -893815.11345  22571318.4844                   22571317.8984
 -57346426.24648 -44634448.34446  21402553.6414                   21402552.4574
 -38903489.38746 -29878631.89143  23763808.8754                   23763809.2934
 -39190227.20748 -30484133.00846  20692790.0944                   20692786.3914
 11  7 28  1 43 30.0000000  0  9G09G25G10G17G12G05G04G27G02
 -23439931.91047 -17943403.95744  23485029.5004   23485029.7734   20539568.28546
  16043897.96143                  24616528.9224                   24616530.0944
 -27525755.12948 -21397008.23046  21003754.1484                   21003752.3794
 -82467612.97747 -64209841.34445  23056049.3444                   23056049.0904
 -13091736.51648 -10122909.79746  21721607.2034                   21721604.6844
  -1400533.68747  -1047051.74245  22533896.9694                   22533895.9144
 -57373738.15248 -44655730.37146  21397356.3754                   21397355.5084
 -38940641.10546 -29907581.31643  23756738.9304                   23756739.0704
 -39297430.73048 -30567668.19546  20672389.9774                   20672386.0904
 11  7 28  1 44  0.0000000  0  9G09G25G10G17G12G05G04G27G02
 -23463202.60547 -17961536.95744  23480601.0234   23480600.8484   20337718.32047
  15886612.35243                  24578118.2504                   24578118.4534
 -27643260.14848 -21488570.55146  20981392.9534                   20981391.8524
 -82515044.89547 -64246801.27745  23047023.6884                   23047022.6884
 -13257631.81248 -10252178.83246  21690038.4694                   21690035.7464
  -1596911.26247  -1200073.14545  22496527.1414                   22496526.3164
 -57400804.28548 -44676820.86746  21392205.6804                   21392204.6954
 -38977619.41846 -29936395.60943  23749701.9694                   23749701.8204
 -39404267.90648 -30650917.91846  20652059.4614                   20652055.8134
 11  7 28  1 44 30.0000000  0  9G09G25G10G17G12G05G04G27G02
 -23486197.47347 -17979455.05144  23476224.4064   23476225.4734   20136035.74646
  15729457.13743                  24539738.2504                   24539738.3244
 -27760106.16848 -21579619.35946  20959158.4694                   20959157.1374
 -82562287.59447 -64283613.75445  23038033.3134                   23038032.6334
 -13423094.54348 -10381110.79746  21658551.7734                   21658549.1214
  -1793013.01247  -1352879.61745  22459210.3834                   22459209.8674
 -57427630.27048 -44697724.22745  21387101.2814                   21387099.6764
 -39014430.45746 -29965079.62143  23742697.3754                   23742697.5704
 -39510742.90248 -30733885.43046  20631797.9224                   20631793.6454
 11  7 28  1 45  0.0000000  0  9G09G25G10G17G12G05G04G27G02
 -23508918.30147 -17997159.57444  23471901.8984   23471901.1684   19934524.56346
  15572435.52343                  24501392.3524                   24501392.8954
 -27876290.55148 -21670152.61346  20937049.1954                   20937047.6254
 -82609338.73047 -64320276.97745  23029079.8204                   23029078.6024
 -13588120.18748 -10509702.18046  21627148.3984                   21627145.7034
  -1988834.32847  -1505467.57445  22421946.2584                   22421945.5554
 -57454216.57048 -44718440.81245  21382042.1414                   21382040.4804
 -39051075.33646 -29993634.15643  23735724.7504                   23735724.5204
 -39616855.00048 -30816570.16046  20611605.4844                   20611601.0904
 11  7 28  1 45 30.0000000  0  9G09G25G10G17G12G05G04G27G02
 -23531369.97747 -18014654.40644  23467628.4694   23467630.0084   19733185.82046
  15415548.30943                  24463078.6724                   24463079.0944
 -27991813.71548 -21760170.63346  20915065.4844                   20915064.1054
 -82656199.07847 -64356791.53145  23020162.6724                   23020161.5824
 -13752708.13748 -10637952.50846  21595828.0784                   21595825.9964
  -2184373.64147  -1657835.79745  22384736.7034                   22384735.6564
 -57480566.71948 -44738973.38745  21377027.3834                   21377026.0434
 -39087558.11346 -30022062.34444  23728782.2504                   23728782.3984
 -39722606.63348 -30898974.00446  20591481.3364                   20591477.4924
 11  7 28  1 46  0.0000000  0  9G09G25G10G17G12G05G04G27G02
 -23553557.91847 -18031943.71144  23463406.6414   23463406.5314   19532020.28547
  15258796.00043                  24424798.9924                   24424798.8754
 -28106676.83648 -21849674.32846  20893207.8054                   20893206.6054
 -82702870.19547 -64393158.63345  23011282.0554                   23011280.5944
 -13916857.80147 -10765861.32446  21564591.4614                   21564589.4964
  -2379629.86347  -1809983.43045  22347581.0084                   22347580.0434
 -57506684.69948 -44759325.05146  21372057.3444                   21372056.0864
 -39123883.39146 -30050367.75043  23721869.3284                   23721869.7194
 -39828000.50848 -30981099.09046  20571425.6804                   20571421.2384
 11  7 28  1 46 30.0000000  0  9G09G25G10G17G12G05G04G27G02
 -23575483.16446 -18049028.35544  23459234.6564   23459234.7234   19331032.63346
  15102182.31343                  24386550.8984                   24386552.5514
 -28220876.63348 -21938661.14846  20871476.5784                   20871475.1524
 -82749349.35547 -64429376.14145  23002436.8914                   23002435.7544
 -14080564.55148 -10893424.99646  21533439.0234                   21533436.7704
  -2574598.01247  -1961906.57445  22310479.2734                   22310478.5514
 -57532570.44948 -44779495.75446  21367131.9534                   21367129.8984
 -39160051.76247 -30078550.94143  23714987.3594                   23714987.7544
 -39933035.49648 -31062944.50446  20551437.9614                   20551434.6644
 11  7 28  1 47  0.0000000  0  9G09G25G10G17G12G05G04G27G02
 -23597148.59846 -18065910.54744  23455111.4454   23455111.4844   19130225.96946
  14945709.68443                  24348338.6174                   24348340.2504
 -28334411.35247 -22027129.73046  20849871.6724                   20849869.9104
 -82795635.23447 -64465443.05145  22993629.6884                   22993628.2194
 -14243825.23848 -11020641.08646  21502371.6484                   21502369.3054
  -2769274.34847  -2113602.34445  22273433.2194                   22273432.8364
 -57558225.43448 -44799486.63345  21362249.5394                   21362248.5004
 -39196065.42646 -30106613.60244  23708134.0084                   23708134.4144
 -40037711.93448 -31144510.53546  20531518.9224                   20531515.0124
 11  7 28  1 47 30.0000000  0  9G09G25G10G17G12G05G04G27G02
 -23618558.35546 -18082593.46544  23451037.1644   23451037.6094   18929601.93446
  14789379.23443                  24310160.6564                   24310162.7814
 -28447281.14147 -22115080.18446  20828392.7814                   20828390.9384
 -82841728.49647 -64501359.85945  22984857.8674                   22984856.8984
 -14406638.44548 -11147508.48446  21471389.5394                   21471387.4144
  -2963656.72347  -2265069.04345  22236443.8444                   22236442.8874
 -57583652.85248 -44819300.19145  21357410.7584                   21357409.7304
 -39231927.95746 -30134558.46543  23701310.0634                   23701309.8404
 -40142031.85948 -31225798.76646  20511667.2424                   20511663.4534
 11  7 28  1 48  0.0000000  0  9G09G25G10G17G12G05G04G27G02
 -23639717.09047 -18099080.79744  23447011.0234   23447011.5944   18729162.27746
  14633192.61743                  24272019.2974                   24272020.9184
 -28559485.95748 -22202512.47346  20807040.8674                   20807039.4344
 -82887629.23447 -64537126.65245  22976122.4534                   22976122.0164
 -14569002.26247 -11274025.73046  21440492.6024                   21440490.3134
  -3157743.31247  -2416305.26645  22199510.5314                   22199509.4654
 -57608855.41848 -44838938.54346  21352615.0084                   21352613.9264
 -39267643.03946 -30162388.43443  23694513.3364                   23694513.3794
 -40245997.11348 -31306810.62146  20491883.5864                   20491879.5314
 11  7 28  1 48 30.0000000  0  9G09G25G10G17G12G05G04G27G02
 -23660629.21547 -18115375.96544  23443031.5394   23443031.8524   18528908.52746
  14477150.71943                  24233911.3984                   24233914.2814
 -28671025.79348 -22289426.59446  20785815.6954                   20785814.1644
 -82933338.07847 -64572743.91045  22967424.9144                   22967423.2234
 -14730915.79748 -11400192.09446  21409681.3984                   21409679.0234
  -3351531.75047  -2567309.17245  22162633.5234                   22162632.8984
 -57633836.57848 -44858404.36745  21347861.0314                   21347860.0234
 -39303214.40646 -30190106.44144  23687743.9454                   23687744.8914
 -40349609.21148 -31387547.28946  20472166.7424                   20472162.6024
 11  7 28  1 49  0.0000000  0  9G09G25G10G17G12G05G04G27G02
 -23681296.75447 -18131480.55944  23439098.9924   23439098.9654   18328844.23046
  14321256.48043                  24195841.8204                   24195843.2034
 -28781898.94948 -22375821.23046  20764717.2974                   20764715.6214
 -82978853.04347 -64608210.09445  22958763.3134                   22958762.7304
 -14892375.26647 -11526004.62946  21378956.8984                   21378954.6484
  -3545018.33647  -2718077.84845  22125814.0554                   22125813.5904
 -57658597.03548 -44877698.20345  21343149.3594                   21343147.8094
 -39338643.77046 -30217713.74644  23681002.7734                   23681003.1954
 -40452868.49648 -31468009.03546  20452516.9384                   20452513.0394
 11  7 28  1 49 30.0000000  0  9G09G25G10G17G12G05G04G27G02
 -23701723.26246 -18147397.36744  23435211.1254   23435211.6764   18128971.95746
  14165511.79343                  24157807.6094                   24157809.2894
 -28892104.61348 -22461695.74646  20743745.7424                   20743744.0514
 -83024173.85547 -64643524.99645  22950139.8754                   22950138.3444
 -15053378.67647 -11651461.80146  21348318.8914                   21348316.0904
  -3738200.04747  -2868608.97345  22089053.1484                   22089051.9144
 -57683139.25848 -44896821.98445  21338479.2274                   21338477.5744
 -39373934.02746 -30245212.71943  23674286.6024                   23674287.3204
 -40555776.05148 -31548196.72346  20432934.4614                   20432930.6134
 11  7 28  1 50  0.0000000  0  9G09G25G10G17G12G05G04G27G02
 -22146490.66446 -16935527.83244  23731162.6804   23731162.8634   19504721.69947
  15237524.51644                  24419603.6724                   24419606.2074
 -27426217.52048 -21319446.03546  21022694.9144                   21022693.1644
 -81493878.01247 -63451086.66445  23241345.3054                   23241343.9264
 -13638497.21148 -10548956.72746  21617562.1564                   21617559.8324
  -2355646.76247  -1791294.63745  22352144.2114                   22352142.8134
 -56132043.52048 -43688175.93745  21633642.9144                   21633641.9964
 -37833665.79346 -29045003.77743  23967389.5634                   23967391.3054
 -39082908.64848 -30400507.82046  20713211.5474                   20713208.0004
 11  7 28  1 50 30.0000000  0  9G09G25G10G17G12G05G04G27G02
 -22166441.30147 -16951073.80544  23727366.6804   23727366.2154   19305245.23447
  15082088.25044                  24381645.2504                   24381647.8874
 -27535082.12948 -21404275.56246  21001978.6954                   21001976.5314
 -81538805.46947 -63486095.07045  23232795.5084                   23232794.8914
 -13798576.77048 -10673694.00446  21587099.1484                   21587097.3984
  -2548205.89147  -1941340.62945  22315501.0474                   22315500.7194
 -56156151.10948 -43706961.05945  21629055.0004                   21629054.0864
 -37868681.93046 -29072289.09843  23960726.8054                   23960727.8984
 -39185112.05148 -30480146.81646  20693763.0634                   20693759.5514
 11  7 28  1 51  0.0000000  0  9G09G25G10G17G12G05G04G27G02
 -22186165.09846 -16966443.05144  23723612.5084   23723613.1334   19105964.50847
  14926804.56344                  24343722.5314                   24343726.0354
 -27643281.22348 -21488586.50846  20981388.6094                   20981386.7894
 -81583541.18047 -63520954.06245  23224282.3984                   23224281.5514
 -13958196.60947 -10798073.05946  21556724.8524                   21556722.4614
  -2740455.43747  -2091145.39545  22278917.2424                   22278915.8714
 -56180050.77048 -43725584.16445  21624507.2424                   21624506.3164
 -37903571.26246 -29099475.64143  23954088.0164                   23954088.8364
 -39286970.51248 -30559517.02346  20674380.2194                   20674376.2774
 11  7 28  1 51 30.0000000  0  9G09G25G10G17G12G05G04G27G02
 -22205666.78146 -16981639.23044  23719901.8364   23719902.1094   18906880.86747
  14771674.44544                  24305839.2114                   24305841.7544
 -27750815.30148 -21572379.27046  20960926.0084                   20960924.5164
 -81628085.85947 -63555664.18045  23215806.7584                   23215805.6804
 -14117355.91448 -10922093.25846  21526437.7114                   21526435.3954
  -2932393.64147  -2240707.55145  22242392.4064                   22242391.6294
 -56203745.61348 -43744047.68445  21619998.5394                   21619997.0204
 -37938337.68446 -29126566.41444  23947471.3054                   23947473.2464
 -39388486.38748 -30638620.28546  20655062.0784                   20655058.5514
 11  7 28  1 52  0.0000000  0  9G09G25G10G17G12G05G04G27G02
 -22224948.34046 -16996663.85543  23716233.1254   23716231.8204   18707998.68047
  14616701.34044                  24267993.1334                   24267995.5434
 -27857681.89848 -21655651.91446  20940589.5634                   20940587.7194
 -81672437.27347 -63590223.72744  23207366.7974                   23207365.0704
 -14276050.61348 -11045751.42246  21496239.1644                   21496236.5944
  -3124015.90247  -2390023.50845  22205928.1484                   22205927.1174
 -56227235.88748 -43762351.77045  21615528.5634                   21615527.4344
 -37972982.34446 -29153562.31243  23940879.2194                   23940880.6174
 -39489659.06248 -30717456.12146  20635809.6564                   20635806.0474
 11  7 28  1 52 30.0000000  0  9G09G25G10G17G12G05G04G27G02
 -22244010.42246 -17011517.44944  23712605.6484   23712606.1994   18509322.84847
  14461889.09844                  24230185.5864                   24230188.0004
 -27963878.57048 -21738402.53946  20920381.1724                   20920379.3634
 -81716592.93046 -63624630.72744  23198963.3754                   23198962.5514
 -14434275.98848 -11169043.89146  21466130.0634                   21466127.4454
  -3315317.14547  -2539089.33645  22169524.3674                   22169523.1914
 -56250521.55148 -43780496.43445  21611097.2114                   21611096.0984
 -38007505.46146 -29180463.51643  23934309.9534                   23934310.5554
 -39590487.62148 -30796023.80946  20616622.9534                   20616619.1414
 11  7 28  1 53  0.0000000  0  9G09G25G10G17G12G05G04G27G02
 -22262861.80546 -17026206.87544  23709018.2504   23709018.0274   18310850.80546
  14307235.66444                  24192417.5704                   24192419.9104
 -28069409.62948 -21820634.50446  20900299.2584                   20900297.0514
 -81760557.38747 -63658888.72344  23190597.5634                   23190595.8714
 -14592035.12548 -11291973.04746  21436109.2034                   21436107.3284
  -3506299.37147  -2687906.57445  22133181.1724                   22133180.8404
 -56273609.55148 -43798487.08245  21606703.6724                   21606702.0784
 -38041915.17246 -29207276.32043  23927761.5474                   23927762.2544
 -39690977.95748 -30874327.94946  20597500.1484                   20597496.2624
 11  7 28  1 53 30.0000000  0  9G09G25G10G17G12G05G04G27G02
 -22281504.69546 -17040733.81244  23705471.0704   23705470.0944   18112586.42246
  14152744.14543                  24154687.9694                   24154691.8954
 -28174273.00848 -21902346.20346  20880344.6954                   20880342.4804
 -81804328.71147 -63692996.24244  23182268.2894                   23182266.8954
 -14749324.45348 -11414536.11746  21406178.0634                   21406175.8714
  -3696958.40247  -2836471.98045  22096900.5944                   22096899.1484
 -56296500.78148 -43816324.41045  21602347.5084                   21602346.3634
 -38076212.93446 -29234001.89143  23921235.8594                   23921236.5434
 -39791129.82448 -30952368.34447  20578441.8284                   20578437.8634
 11  7 28  1 54  0.0000000  0  9G09G25G10G17G12G05G04G27G02
 -22299943.15246 -17055101.51643  23701962.0944   23701961.1254   17914531.35246
  13998415.71943                  24117000.2734                   24117002.4654
 -28278469.05148 -21983537.88746  20860516.5634                   20860514.7814
 -81847907.17646 -63726953.50044  23173975.6174                   23173974.1254
 -14906142.21948 -11536731.74246  21376336.1884                   21376334.6254
  -3887292.39547  -2984784.09045  22060681.0554                   22060679.9534
 -56319198.10948 -43834010.65245  21598028.1564                   21598027.3524
 -38110402.39546 -29260643.12143  23914729.1884                   23914730.5434
 -39890945.39148 -31030146.67646  20559447.8054                   20559443.6954
 11  7 28  1 54 30.0000000  0  9G09G25G10G17G12G05G04G27G02
 -22318179.91047 -17069312.02344  23698491.9454   23698491.8714   17716688.93446
  13844253.01243                  24079352.1334                   24079354.1604
 -28381996.80548 -22064208.84446  20840815.8984                   20840814.2854
 -81891291.83647 -63760759.70344  23165719.7974                   23165717.6684
 -15062485.55148 -11658557.67246  21346585.2344                   21346583.4024
  -4077297.33247  -3132839.80945  22024523.6174                   22024522.5234
 -56341702.90648 -43851546.87945  21593745.6094                   21593744.7974
 -38144485.65246 -29287201.60244  23908243.2274                   23908244.0554
 -39990424.77048 -31107663.06246  20540516.7734                   20540512.8954
 11  7 28  1 55  0.0000000  0  9G09G25G10G17G12G05G04G27G02
 -22336222.42247 -17083371.19144  23695059.0864   23695058.2814   17519057.92246
  13690255.02043                  24041743.4774                   24041745.8054
 -28484859.73848 -22144361.75846  20821241.6484                   20821240.0124
 -81934485.94147 -63794417.42244  23157500.4064                   23157498.4184
 -15218356.18048 -11780015.27346  21316923.8754                   21316922.3364
  -4266974.44147  -3280640.07445  21988430.0864                   21988428.6134
 -56364020.83648 -43868937.47745  21589499.3674                   21589497.3364
 -38178469.04347 -29313682.21943  23901777.2814                   23901777.3674
 -40089572.86348 -31184921.28946  20521649.7734                   20521645.7854
 11  7 28  1 55 30.0000000  0  9G09G25G10G17G12G05G04G27G02
 -22354072.35946 -17097280.24244  23691661.1484   23691661.8204   17321642.45747
  13536424.93843                  24004177.0784                   24004178.1254
 -28587055.64847 -22223994.90246  20801794.4454                   20801792.8754
 -81977487.40247 -63827925.04744  23149317.2734                   23149315.9694
 -15373750.19548 -11901101.49646  21287353.7814                   21287351.8484
  -4456319.32847  -3428181.48045  21952398.8364                   21952397.1604
 -56386152.57448 -43886183.00045  21585287.4304                   21585286.6994
 -38212353.90646 -29340086.07043  23895329.1174                   23895330.0354
 -40188389.21548 -31261921.02746  20502845.5314                   20502841.6134
 11  7 28  1 56  0.0000000  0  9G09G25G10G17G12G05G04G27G02
 -22371732.65247 -17111041.57444  23688301.4614   23688300.6764   17124445.82047
  13382765.40644                  23966651.7114                   23966653.1134
 -28688583.27348 -22303107.31246  20782474.2424                   20782472.6094
 -82020295.23447 -63861281.78544  23141170.8984                   23141169.5634
 -15528664.37148 -12021813.82446  21257874.5864                   21257872.6604
  -4645328.22347  -3575461.05546  21916431.1094                   21916430.0944
 -56408099.37548 -43903284.39545  21581111.2194                   21581109.3484
 -38246142.29747 -29366414.75843  23888899.5554                   23888900.7154
 -40286874.24648 -31338662.59846  20484104.8914                   20484100.8324
 11  7 28  1 56 30.0000000  0  9G09G25G10G17G12G05G04G27G02
 -22389205.00847 -17124656.46144  23684976.1024   23684976.5514   16927472.17647
  13229279.53143                  23929168.2424                   23929168.6454
 -28789441.21948 -22381697.89846  20763281.7034                   20763279.5434
 -82062907.12946 -63894485.87544  23133061.9844                   23133060.5704
 -15683095.25448 -12142149.55946  21228487.1954                   21228485.3204
  -4833996.78147  -3722475.44546  21880528.7424                   21880527.8324
 -56429861.69148 -43920242.03945  21576970.1644                   21576968.6994
 -38279835.44946 -29392669.23443  23882488.3364                   23882487.9924
 -40385027.69148 -31415145.78146  20465426.6804                   20465422.5984
 11  7 28  1 57  0.0000000  0  9G09G25G10G17G12G05G04G27G02
 -22406496.12947 -17138130.09444  23681686.6334   23681686.6914   16730720.55147
  13075966.66043                  23891728.1174                   23891728.4494
 -28889632.64547 -22459769.11746  20744216.0554                   20744214.1844
 -82105326.28947 -63927539.75844  23124989.9064                   23124988.5634
 -15837043.80548 -12262109.44946  21199192.0554                   21199189.7194
  -5022325.95747  -3869225.39546  21844690.5554                   21844689.4344
 -56451444.96948 -43937060.19945  21572862.1644                   21572861.8634
 -38313439.76646 -29418854.48044  23876093.0784                   23876093.9534
 -40482854.09048 -31491374.12946  20446811.0474                   20446806.7194
 11  7 28  1 57 30.0000000  0  9G09G25G10G17G12G05G04G27G02
 -22423606.60546 -17151462.92244  23678429.0084   23678430.7464   16534196.59447
  12922831.17244                  23854330.5944                   23854331.9264
 -28989154.27347 -22537318.41846  20725277.0474                   20725275.9184
 -82147549.36747 -63960440.84444  23116955.3594                   23116953.5634
 -15990505.06648 -12381689.63746  21169989.3444                   21169986.6954
  -5210309.58647  -4015706.07046  21808919.1804                   21808917.5354
 -56472848.36748 -43953738.18045  21568790.0314                   21568789.0514
 -38346954.93746 -29444970.28543  23869715.5634                   23869716.7074
 -40580351.49248 -31567346.10246  20428257.7584                   20428253.4384
 11  7 28  1 58  0.0000000  0  9G09G25G10G17G12G05G04G27G02
 -20865119.98447 -15937057.82844  23975000.4924   23975001.1564   17913328.88347
  13997479.77044                  24116770.4844                   24116771.6954
 -27512582.70348 -21386743.14546  21006259.7424                   21006257.8554
 -80614154.76246 -62765587.92644  23408750.4694                   23408749.4384
 -14568052.55148 -11273285.09846  21440672.5314                   21440670.1994
  -3822518.98047  -2934310.73045  22073006.1024                   22073006.0314
 -54918653.56648 -42742677.29345  21864543.2344                   21864542.1254
 -36804963.05146 -28243418.22743  24163146.5704                   24163146.8444
 -39102098.05948 -30415460.28946  20709559.6724                   20709555.8984
 11  7 28  1 58 30.0000000  0  9G09G25G10G17G12G05G04G27G02
 -20881885.07046 -15950121.57043  23971809.5784   23971810.5514   17717262.31647
  13844700.65644                  24079460.1024                   24079461.4264
 -27610768.84048 -21463251.80546  20987575.5164                   20987574.2194
 -80655989.57447 -62798186.47744  23400790.0474                   23400788.4344
 -14720538.51648 -11392105.30146  21411655.6804                   21411653.9964
  -4009808.66847  -3080250.67246  22037366.5084                   22037365.0044
 -54939708.61348 -42759083.82445  21860537.2584                   21860535.7274
 -36838313.76246 -28269405.87943  24156800.7194                   24156801.0594
 -39198946.22348 -30490926.37546  20691130.3984                   20691126.0984
 11  7 28  1 59  0.0000000  0  9G09G25G10G17G12G05G04G27G02
 -20898482.16047 -15963054.41044  23968651.7734   23968652.3244   17521428.68847
  13692103.03144                  24042193.8834                   24042194.9924
 -27708286.98848 -21539239.94546  20969018.2114                   20969016.5434
 -80697629.62147 -62830633.27744  23392865.9614                   23392864.5434
 -14872533.18048 -11510542.70346  21382731.6884                   21382729.6844
  -4196747.09047  -3225916.90646  22001793.1414                   22001791.8094
 -54960592.27048 -42775356.78945  21856563.3054                   21856561.8244
 -36871586.19146 -28295332.53143  24150468.6954                   24150469.6294
 -39295471.30548 -30566140.70346  20672762.0554                   20672758.0274
 11  7 28  1 59 30.0000000  0  9G09G25G10G17G12G05G04G27G02
 -20914915.93446 -15975860.00044  23965523.2664   23965525.3364   17325829.57847
  13539688.16044                  24004972.8364                   24004974.8834
 -27805137.86748 -21614708.13746  20950588.2974                   20950586.5084
 -80739075.21546 -62862928.57044  23384979.3364                   23384977.4454
 -15024035.31248 -11628596.29346  21353902.0084                   21353900.0124
  -4383332.37547  -3371307.96546  21966286.9694                   21966285.8404
 -54981307.34448 -42791498.39145  21852621.0634                   21852619.4264
 -36904783.87946 -28321200.90243  24144151.5314                   24144151.9844
 -39391675.58648 -30641105.05546  20654454.9694                   20654451.3364
 11  7 28  2  0  0.0000000  0  9G09G25G10G17G12G05G04G27G02
 -20931192.31246 -15988542.90644  23962426.8444   23962427.4304   17130465.12147
  13387456.13344                  23967796.4224                   23967798.1294
 -27901324.02347 -21689658.35946  20932284.4614                   20932283.0234
 -80780328.45347 -62895073.94544  23377128.9224                   23377127.5274
 -15175045.08248 -11746266.22346  21325165.6724                   21325163.9614
  -4569564.21147  -3516423.60946  21930847.9534                   21930846.9494
 -55001858.50448 -42807512.27345  21848709.8754                   21848708.7974
 -36937912.11746 -28347015.20343  24137847.7034                   24137848.6294
 -39487562.49248 -30715822.10546  20636208.3984                   20636204.4614
 11  7 28  2  0 30.0000000  0  9G09G25G10G17G12G05G04G27G02
 -20947311.71547 -16001103.50043  23959359.3204   23959359.9844   16935340.82046
  13235411.25044                  23930666.2194                   23930668.0904
 -27996842.57448 -21764088.37946  20914107.9924                   20914105.8054
 -80821386.20347 -62927066.98844  23369316.2664                   23369314.4964
 -15325558.01648 -11863549.02346  21296523.7734                   21296522.1644
  -4755436.80547  -3661259.34446  21895477.5704                   21895476.3874
 -55022244.64148 -42823397.55545  21844830.3984                   21844829.7584
 -36970971.10246 -28372775.51643  24131555.9774                   24131557.3284
 -39583130.27748 -30790290.47347  20618022.2734                   20618018.4884
 11  7 28  2  1  0.0000000  0  9G09G25G10G17G12G05G04G27G02
 -20963279.23046 -16013545.74644  23956320.5474   23956321.4184   16740457.59447
  13083554.21144                  23893580.8444                   23893582.5824
 -28091694.87548 -21837999.23046  20896058.4144                   20896056.5394
 -80862249.33247 -62958908.38744  23361539.9694                   23361538.2304
 -15475573.68048 -11980444.31246  21267977.0164                   21267975.1884
  -4940949.11747  -3805814.32446  21860175.9384                   21860174.2384
 -55042469.39148 -42839157.09845  21840982.1884                   21840980.3594
 -37003965.08246 -28398485.16843  24125278.5864                   24125278.9774
 -39678382.03948 -30864512.60246  20599897.0634                   20599892.8954
 11  7 28  2  1 30.0000000  0  9G09G25G10G17G12G05G04G27G02
 -20979097.09047 -16025871.38743  23953310.4064   23953311.6484   16545819.10247
  12931887.86344                  23856542.0634                   23856542.8834
 -28185879.94548 -21911390.17246  20878135.7734                   20878133.6374
 -80902917.02747 -62990597.48444  23353801.0164                   23353799.4414
 -15625088.65248 -12096949.46946  21239525.3834                   21239522.6454
  -5126097.73047  -3950085.88746  21824943.2504                   21824941.8554
 -55062533.79748 -42854791.69545  21837163.5784                   21837162.3324
 -37036896.03146 -28424145.74243  24119011.6804                   24119013.2974
 -39773317.66448 -30938488.38746  20581831.1024                   20581826.7234
 11  7 28  2  2  0.0000000  0  9G09G25G10G17G12G05G04G27G02
 -20994768.61747 -16038082.98443  23950329.6884   23950329.1214   16351428.22747
  12780414.49244                  23819550.8204                   23819552.2544
 -28279397.51248 -21984260.96946  20860339.4924                   20860338.0824
 -80943388.19147 -63022133.44944  23346100.3444                   23346098.0864
 -15774100.84448 -12213062.84446  21211169.1414                   21211167.4454
  -5310879.02747  -4094071.25446  21789780.2734                   21789778.9844
 -55082439.61748 -42870302.71145  21833375.5864                   21833374.5744
 -37069766.19546 -28449758.87943  24112755.5784                   24112757.4064
 -39867938.32048 -31012218.72346  20563825.1804                   20563820.8594
 11  7 28  2  2 30.0000000  0  9G09G25G10G17G12G05G04G27G02
 -21010300.88346 -16050186.09043  23947373.0394   23947373.2624   16157283.81347
  12629133.20344                  23782606.5234                   23782607.1844
 -28372251.20348 -22056614.46546  20842669.6174                   20842668.0594
 -80983666.23447 -63053518.93044  23338435.0634                   23338433.2274
 -15922611.74648 -12328785.60246  21182908.3364                   21182906.6684
  -5495293.98048  -4237771.15646  21754687.4534                   21754685.7664
 -55102192.26648 -42885694.35945  21829617.4694                   21829615.4574
 -37102582.06246 -28475329.76243  24106512.3524                   24106512.7704
 -39962248.57848 -31085707.21146  20545878.6024                   20545874.4884
 11  7 28  2  3  0.0000000  0  9G09G25G10G17G12G05G04G27G02
 -21025695.43446 -16062181.90243  23944444.0864   23944443.5634   15963390.64847
  12478047.71144                  23745709.3364                   23745711.3834
 -28464439.31248 -22128449.33646  20825127.2034                   20825125.5234
 -81023748.72346 -63084752.03144  23330807.7424                   23330806.0354
 -16070617.29748 -12444114.58646  21154743.8524                   21154741.5904
  -5679338.10947  -4381182.10946  21719664.5944                   21719663.6884
 -55121791.81248 -42900966.71545  21825887.3054                   21825886.2154
 -37135344.41046 -28500858.92243  24100277.2274                   24100278.6254
 -40056247.76648 -31158953.30546  20527991.3674                   20527986.9384
 11  7 28  2  3 30.0000000  0  9G09G25G10G17G12G05G04G27G02
 -21040956.73446 -16074073.86343  23941539.8834   23941539.8134   15769750.07847
  12327159.01644                  23708860.6804                   23708862.1374
 -28555962.90648 -22199766.39146  20807711.0164                   20807708.5664
 -81063636.12147 -63115833.11344  23323217.4454                   23323215.8244
 -16218116.74648 -12559049.19146  21126675.8834                   21126673.7464
  -5863009.81647  -4524302.86746  21684713.5164                   21684711.9414
 -55141241.25448 -42916122.12145  21822186.6254                   21822184.9064
 -37168057.25046 -28526349.47743  24094052.8054                   24094053.0784
 -40149938.14548 -31231958.77046  20510161.8754                   20510158.6214
 11  7 28  2  4  0.0000000  0  9G09G25G10G17G12G05G04G27G02
 -21056090.71547 -16085866.61343  23938660.0704   23938660.3054   15576361.97747
  12176467.09044                  23672060.3524                   23672062.5434
 -28646825.08648 -22270568.05146  20790420.3204                   20790418.3444
 -81103331.58647 -63146764.64544  23315663.9144                   23315661.6214
 -16365110.39148 -12673589.66846  21098704.0394                   21098701.5164
  -6046309.07048  -4667133.37946  21649832.3914                   21649831.2814
 -55160545.37148 -42931164.29745  21818512.6804                   21818511.5394
 -37200725.98846 -28551805.73443  24087836.3204                   24087836.9344
 -40243323.66448 -31304726.67646  20492391.5314                   20492387.7194
 11  7 28  2  4 30.0000000  0  9G09G25G10G17G12G05G04G27G02
 -21071095.59447 -16097558.79744  23935805.2664   23935804.9534   15383234.49247
  12025978.17244                  23635308.8364                   23635310.9384
 -28737020.28948 -22340850.00046  20773256.6484                   20773254.7424
 -81142828.82047 -63177541.72344  23308148.1954                   23308146.0314
 -16511591.43048 -12787730.71146  21070829.3984                   21070826.7154
  -6229227.62947  -4809667.26646  21615024.4144                   21615023.1334
 -55179700.37948 -42946090.27345  21814868.1804                   21814866.6884
 -37233347.85246 -28577225.37542  24081627.1884                   24081628.9454
 -40336399.90248 -31377253.57846  20474679.5784                   20474675.9694
 11  7 28  2  5  0.0000000  0  9G09G25G10G17G12G05G04G27G02
 -21085975.07046 -16109153.23444  23932973.3284   23932973.4064   15190369.62547
  11875693.95744                  23598607.9384                   23598610.6254
 -28826549.48848 -22410612.98046  20756219.7504                   20756217.8524
 -81182127.86747 -63208164.33244  23300669.2734                   23300667.8094
 -16657558.06648 -12901470.91846  21043053.1414                   21043050.4104
  -6411763.53948  -4951902.97746  21580289.1414                   21580287.5004
 -55198708.71948 -42960901.95745  21811250.3834                   21811249.4804
 -37265925.94546 -28602610.97343  24075428.9144                   24075429.4064
 -40429168.53548 -31449540.79746  20457026.7344                   20457022.6334
 11  7 28  2  5 30.0000000  0  9G09G25G10G17G12G05G04G27G02
 -21100738.69947 -16120657.43044  23930164.1804   23930163.7464   14997763.76247
  11725611.55543                  23561956.3594                   23561957.7304
 -28915419.02348 -22479861.93746  20739308.3914                   20739306.8634
 -81221234.84446 -63238637.30944  23293227.3284                   23293226.2274
 -16803014.54348 -13014813.59046  21015373.6414                   21015371.0904
  -6593919.98847  -5093843.01246  21545625.7504                   21545623.9454
 -55217578.59848 -42975605.74245  21807659.9384                   21807658.7274
 -37298469.58246 -28627969.72342  24069236.1484                   24069237.3524
 -40521637.11748 -31521594.21946  20439430.3284                   20439426.2464
 11  7 28  2  6  0.0000000  0  9G09G25G10G17G12G05G04G27G02
 -19539966.65247 -14904471.44144  24227169.2734   24227169.4534   16380848.83246
  12803340.18843                  23825147.9064                   23825148.3524
 -27428203.11748 -21320992.37146  21022315.8834                   21022314.3324
 -79684725.21147 -62041357.07844  23585615.1174                   23585614.4694
 -15372531.27048 -11900151.26646  21287585.2734                   21287582.9804
  -5200265.68448  -4007878.55946  21810829.5234                   21810828.1804
 -53660888.34048 -41762600.34445  22103887.6484                   22103886.4304
 -35755557.39846 -27425700.61742  24362842.3284                   24362844.2704
 -39038381.15248 -30365810.32846  20721684.4224                   20721680.6134
 11  7 28  2  6 30.0000000  0  9G09G25G10G17G12G05G04G27G02
 -19554504.76247 -14915799.89544  24224401.7194   24224402.7734   16188773.00847
  12653670.84443                  23788597.5864                   23788597.6254
 -27515749.60548 -21389210.39146  21005656.6024                   21005655.0474
 -79723442.39847 -62071526.31644  23578248.4534                   23578246.2624
 -15516957.40648 -12012691.08246  21260102.0704                   21260099.3324
  -5381651.35548  -4149217.98846  21776312.5394                   21776311.3984
 -53679482.75848 -41777089.49245  22100349.6564                   22100348.3444
 -35788035.92646 -27451008.67242  24356662.4614                   24356663.7194
 -39130249.18448 -30437395.79346  20704202.9224                   20704198.7034
 11  7 28  2  7  0.0000000  0  9G09G25G10G17G12G05G04G27G02
 -19568934.34047 -14927043.75044  24221656.7814   24221657.1764   15996966.99247
  12504211.71144                  23752098.3594                   23752098.7894
 -27602634.59848 -21456912.95746  20989123.0474                   20989121.2584
 -79761963.44547 -62101542.73044  23570917.6954                   23570915.8524
 -15660864.85948 -12124826.73446  21232717.1954                   21232714.5434
  -5562646.82848  -4290253.34446  21741870.2274                   21741868.7664
 -53697941.32448 -41791472.78545  22096837.2274                   22096835.8524
 -35820485.12946 -27476293.74242  24350486.7584                   24350489.4694
 -39221817.93048 -30508748.04346  20686777.7114                   20686773.4884
 11  7 28  2  7 30.0000000  0  9G09G25G10G17G12G05G04G27G02
 -19583258.94146 -14938205.82444  24218929.8204   24218931.3054   15805433.24647
  12354964.73844                  23715650.1484                   23715651.5514
 -27688858.30548 -21524100.23846  20972715.1644                   20972713.4064
 -79800287.99247 -62131406.01644  23563624.7894                   23563622.9344
 -15804251.62948 -12236556.65646  21205431.6254                   21205429.4734
  -5743249.57848  -4430982.69546  21707502.7194                   21707501.5554
 -53716265.95348 -41805751.72345  22093350.4144                   22093348.6294
 -35852908.12145 -27501558.50442  24344317.3284                   24344319.1454
 -39313088.67248 -30579868.07446  20669409.7114                   20669405.4614
 11  7 28  2  8  0.0000000  0  9G09G25G10G17G12G05G04G27G02
 -19597481.43747 -14949288.34044  24216224.4924   24216225.5004   15614174.62147
  12205932.13344                  23679255.2814                   23679256.5984
 -27774420.90648 -21590772.37146  20956433.2344                   20956431.5124
 -79838415.66847 -62161115.89544  23556369.3134                   23556367.6884
 -15947115.60248 -12347879.20346  21178245.3754                   21178242.8484
  -5923456.70348  -4571403.77046  21673210.7974                   21673209.0744
 -53734458.55148 -41819927.77045  22089888.3054                   22089886.8914
 -35885307.20745 -27526804.73042  24338152.3204                   24338154.4494
 -39404062.35948 -30650756.63746  20652097.8524                   20652093.5824
 11  7 28  2  8 30.0000000  0  9G09G25G10G17G12G05G04G27G02
 -19611609.00447 -14960296.87543  24213536.2344   24213536.0984   15423189.88347
  12057112.89544                  23642911.4924                   23642913.4574
 -27859326.56648 -21656932.59446  20940276.0474                   20940274.4304
 -79876349.84847 -62190675.01644  23549150.7504                   23549149.0984
 -16089458.91448 -12458796.03946  21151158.3914                   21151155.9694
  -6103269.43748  -4711517.52346  21638992.9304                   21638991.8284
 -53752524.78948 -41834005.37545  22086450.5314                   22086449.2544
 -35917689.19545 -27552037.48843  24331990.3284                   24331992.2424
 -39494743.93748 -30721417.58646  20634841.3914                   20634837.2734
 11  7 28  2  9  0.0000000  0  9G09G25G10G17G12G05G04G27G02
 -19625639.63746 -14971229.88344  24210866.1724   24210866.9304   15232487.03147
  11908513.36344                  23606622.3674                   23606624.2934
 -27943570.37548 -21722577.09846  20924245.2734                   20924243.2034
 -79914084.46146 -62220078.61744  23541969.9534                   23541968.1254
 -16231274.16848 -12569301.40246  21124171.9304                   21124169.6414
  -6282679.55948  -4851317.55146  21604852.7894                   21604850.9534
 -53770460.66047 -41847981.37545  22083037.0944                   22083036.0004
 -35950051.15645 -27577254.73043  24325832.0394                   24325833.6954
 -39585129.18748 -30791847.62946  20617641.7894                   20617637.5944
 11  7 28  2  9 30.0000000  0  9G09G25G10G17G12G05G04G27G02
 -19639581.41847 -14982093.65243  24208212.8594   24208213.1994   15042064.14547
  11760131.94545                  23570386.2034                   23570387.9964
 -28027157.46548 -21787709.87146  20908339.3914                   20908337.1644
 -79951624.35246 -62249330.48844  23534826.0864                   23534824.9844
 -16372564.04748 -12679397.38746  21097285.3834                   21097283.0824
  -6461688.98848  -4990805.35946  21570788.2814                   21570786.5824
 -53788272.95747 -41861861.10245  22079647.4304                   22079646.5634
 -35982400.35545 -27602461.98843  24319677.0004                   24319678.0164
 -39675224.47348 -30862051.73046  20600497.2194                   20600493.1334
 11  7 28  2 10  0.0000000  0  9G09G25G10G17G12G05G04G27G02
 -19653435.02346 -14992888.69543  24205576.5394   24205577.9384   14851926.43847
  11611972.75044                  23534203.7034                   23534205.6254
 -28110085.58248 -21852329.16046  20892558.5634                   20892556.3794
 -79988966.71146 -62278428.43744  23527719.6644                   23527718.7234
 -16513324.29748 -12789080.65646  21070499.3984                   21070497.1524
  -6640293.13348  -5129977.35546  21536801.0474                   21536799.2894
 -53805960.64847 -41875643.72345  22076281.9614                   22076280.1684
 -36014736.93446 -27627659.41043  24313523.0474                   24313525.1724
 -39765027.86348 -30932028.37146  20583408.1174                   20583404.1254
 11  7 28  2 10 30.0000000  0  9G09G25G10G17G12G05G04G27G02
 -19667205.98846 -15003619.35943  24202956.7034   24202956.9844   14662074.18447
  11464035.98844                  23498076.3984                   23498077.9384
 -28192357.72748 -21916437.30146  20876902.0004                   20876900.3444
 -80026113.31647 -62307373.84044  23520651.8134                   23520650.2194
 -16653555.50048 -12898351.69546  21043814.3914                   21043812.1254
  -6818491.05548  -5268832.81646  21502890.7034                   21502888.7624
 -53823528.03547 -41889332.59845  22072938.4924                   22072937.6914
 -36047065.97745 -27652850.96543  24307370.5704                   24307372.7504
 -39854542.95348 -31001780.36746  20566374.0164                   20566369.7154
 11  7 28  2 11  0.0000000  0  9G09G25G10G17G12G05G04G27G02
 -19680895.56246 -15014286.58243  24200351.0944   24200351.2774   14472512.24647
  11316325.41844                  23462003.5164                   23462005.4264
 -28273972.26648 -21980033.02746  20861371.5704                   20861369.5354
 -80063061.71147 -62336164.80144  23513620.5634                   23513619.0664
 -16793253.61748 -13007207.32846  21017230.6334                   21017228.4804
  -6996278.24248  -5407368.24246  21469058.8524                   21469057.6994
 -53840974.55947 -41902927.30145  22069619.1414                   22069617.8754
 -36079388.19146 -27678037.18442  24301220.7974                   24301222.3324
 -39943768.66448 -31071306.86746  20549394.7664                   20549390.6054
 11  7 28  2 11 30.0000000  0  9G09G25G10G17G12G05G04G27G02
 -19694511.26646 -15024896.25043  24197760.4844   24197760.3244   14283239.00847
  11168839.82844                  23425986.5864                   23425987.1454
 -28354933.73848 -22043119.87546  20845964.8364                   20845963.1804
 -80099815.66846 -62364804.25444  23506625.9774                   23506624.6334
 -16932421.11748 -13115649.50846  20990748.1334                   20990745.8134
  -7173656.38748  -5545584.92646  21435305.4144                   21435303.5434
 -53858306.37147 -41916432.60245  22066320.6094                   22066319.3634
 -36111710.50045 -27703223.51243  24295069.8364                   24295071.5274
 -40032710.88348 -31140612.46146  20532469.7504                   20532465.4774
 11  7 28  2 12  0.0000000  0  9G09G25G10G17G12G05G04G27G02
 -19708052.84046 -15035448.19943  24195183.4924   24195183.2774   14094260.63747
  11021584.01644                  23390024.8594                   23390025.9144
 -28435239.37148 -22105695.67246  20830683.3054                   20830681.6094
 -80136371.44147 -62393289.29744  23499670.7114                   23499668.6374
 -17071052.66048 -13223674.05546  20964366.9454                   20964364.7734
  -7350619.30548  -5683478.07446  21401630.2974                   21401628.5314
 -53875521.45347 -41929846.94945  22063045.0784                   22063043.2194
 -36144031.78945 -27728409.05143  24288919.7424                   24288920.9024
 -40121366.97348 -31209695.10546  20515599.0164                   20515595.0314
 11  7 28  2 12 30.0000000  0  9G09G25G10G17G12G05G04G27G02
 -19721525.98846 -15045946.80543  24192619.9694   24192619.8954   13905577.49647
  10874558.26244                  23354119.6484                   23354120.6254
 -28514891.97348 -22167762.62146  20815525.7584                   20815524.0984
 -80172730.88346 -62421621.34044  23492751.2194                   23492749.6024
 -17209148.52348 -13331281.18446  20938088.6094                   20938086.0634
  -7527166.63748  -5821047.36346  21368034.5394                   21368032.6054
 -53892624.08247 -41943173.68045  22059790.5554                   22059788.8914
 -36176357.07845 -27753597.68742  24282767.9144                   24282769.8984
 -40209740.33248 -31278557.42646  20498782.2734                   20498777.8204
 11  7 28  2 13  0.0000000  0  9G09G25G10G17G12G05G04G27G02
 -19734932.04746 -15056393.10943  24190068.9534   24190069.2854   13717193.94947
  10727765.93844                  23318271.7344                   23318272.1644
 -28593890.62548 -22229319.98846  20800492.8054                   20800490.7704
 -80208891.98046 -62449798.80144  23485869.8754                   23485868.6454
 -17346705.48048 -13438468.40646  20911912.0784                   20911909.4614
  -7703294.23448  -5958289.59846  21334518.1484                   21334516.3554
 -53909614.32047 -41956412.82845  22056556.8054                   22056555.9844
 -36208687.41845 -27778790.23442  24276615.7114                   24276618.4884
 -40297830.68048 -31347199.24246  20482019.3914                   20482015.0944
 11  7 28  2 13 30.0000000  0  8G09G25G10G17G12G05G04G02
 -19748273.82846 -15066789.36743  24187529.2194   24187529.9694   13529113.03947
  10581209.45344                  23282481.1334                   23282481.9454
 -28672235.60548 -22290367.98846  20785584.5944                   20785583.2734
 -80244854.04346 -62477821.19544  23479026.7664                   23479025.2154
 -17483721.41048 -13545234.03546  20885838.6884                   20885836.3594
  -7878998.96148  -6095202.32446  21301082.8284                   21301080.9304
 -53926493.09447 -41969565.10245  22053345.3914                   22053343.8794
 -40385638.41848 -31415620.84046  20465310.0554                   20465305.6564
 11  7 28  2 14  0.0000000  0  8G09G25G10G17G12G05G04G02
 -18186134.91046 -13849538.30543  24484794.8914   24484795.3204   14916763.40247
  11662495.49644                  23546541.9924                   23546542.3324
 -27174505.21548 -21123305.33646  21070593.2114                   21070591.3674
 -78705196.09846 -61278087.75444  23772013.6564                   23772012.8834
 -16044770.22748 -12423973.35246  21159662.0164                   21159659.7274
  -6478852.91048  -5004179.37146  21567521.7504                   21567519.7624
 -52367842.11747 -40755031.88345  22349946.4064                   22349945.0984
 -38897742.43748 -30256221.35546  20748446.7344                   20748442.9884
 11  7 28  2 14 30.0000000  0  9G09G25G10G17G12G05G04G27G02
 -18199363.98446 -13859846.73443  24482277.1254   24482277.5864   14729290.29347
  11516412.63744                  23510867.2034                   23510867.5904
 -27251550.45348 -21183340.56246  21055931.8134                   21055930.3954
 -78740764.85546 -61305803.68744  23765245.1174                   23765243.6844
 -16180704.44548 -12529896.08246  21133794.7664                   21133792.1524
  -6653710.02348  -5140431.62546  21534247.3674                   21534245.8444
 -52384508.94947 -40768019.02345  22346775.3984                   22346773.5124
 -34730320.52715                  24557938.992
 -38984994.40248 -30324209.87146  20731843.2274                   20731839.2194
 11  7 28  2 15  0.0000000  0  9G09G25G10G17G12G05G04G27G02
 -18212540.98446 -13870114.60943  24479770.3984   24479770.8164   14542125.44547
  11370570.01244                  23475250.4064                   23475251.6414
 -27327946.50848 -21242869.92646  21041394.2504                   21041392.6134
 -78776136.07446 -61333365.69144  23758514.3364                   23758513.1914
 -16316094.71148 -12635394.95346  21108030.5784                   21108028.5984
  -6828138.99648  -5276350.25446  21501054.3594                   21501053.0514
 -52401072.10547 -40780925.37945  22343623.2194                   22343621.8164
 -34762703.18415                  24551779.242
 -39071969.88348 -30391982.95346  20715292.5004                   20715288.0704
 11  7 28  2 15 30.0000000  0  9G09G25G10G17G12G05G04G27G02
 -18225670.11346 -13880345.16043  24477271.3444   24477273.0004   14355270.55547
  11224968.91044                  23439692.8284                   23439694.9144
 -27403695.06648 -21301894.74646  21026980.0704                   21026977.8444
 -78811310.50446 -61360774.36344  23751820.2664                   23751819.4264
 -16450940.68048 -12740469.69546  21082370.6094                   21082368.3204
  -7002138.42248  -5411934.17646  21467943.8134                   21467941.7774
 -52417533.94147 -40793752.78145  22340490.7584                   22340489.1994
 -34795107.16845 -26585478.50852  24545611.5314                   24545613.8954
 -39158671.35548 -30459542.51246  20698793.7814                   20698789.7544
 11  7 28  2 16  0.0000000  0  9G09G25G10G17G12G05G04G27G02
 -18238754.68446 -13890541.02743  24474782.2664   24474782.9454   14168728.16847
  11079611.27344                  23404195.5634                   23404196.6214
 -27478796.85548 -21360415.59846  21012688.0784                   21012686.3054
 -78846287.44547 -61388029.14544  23745165.2974                   23745164.1724
 -16585240.28548 -12845118.71546  21056814.2274                   21056811.4804
  -7175706.26248  -5547181.78546  21434914.5164                   21434912.7154
 -52433896.43447 -40806502.78145  22337376.9774                   22337375.7664
 -34827534.92645 -26610746.93742  24539440.5944                   24539443.3134
 -39245099.75048 -30526889.30946  20682347.0394                   20682343.0824
 11  7 28  2 16 30.0000000  0  9G09G25G10G17G12G05G04G27G02
 -18251796.85246 -13900703.85543  24472300.2584   24472301.3284   13982501.95747
  10934500.03144                  23368757.6564                   23368758.3404
 -27553252.00848 -21418432.57046  20998519.8594                   20998518.1724
 -78881066.34046 -61415129.59844  23738547.3204                   23738546.0004
 -16718991.30948 -12949340.26246  21031362.1564                   21031359.6524
  -7348837.90648  -5682089.51246  21401968.1954                   21401966.5784
 -52450159.80947 -40819175.54745  22334282.2114                   22334281.1454
 -34859987.94945 -26636035.09042  24533266.7114                   24533268.2894
 -39331255.59448 -30594023.71146  20665952.1724                   20665947.6174
 11  7 28  2 17  0.0000000  0  8G09G25G10G17G12G05G04G02
 -18264803.08646 -13910838.65643  24469825.3594   24469826.0314   13796591.46947
  10789634.79744                  23333379.8984                   23333380.6804
 -27627064.36748 -21475948.68046  20984474.2034                   20984472.0274
 -78915649.55946 -61442077.57844  23731965.8914                   23731964.4344
 -16852195.14148 -13053135.43446  21006013.9534                   21006011.6024
  -7521534.79348  -5816658.47746  21369105.2114                   21369103.6644
 -52466329.06247 -40831774.98045  22331205.1884                   22331203.8324
 -39417142.62148 -30660948.65246  20649608.5944                   20649604.4574
 11  7 28  2 17 30.0000000  0  8G09G25G10G17G12G05G04G02
 -18277777.95346 -13920949.00043  24467355.9064   24467357.4574   13610997.73847
  10645016.37544                  23298061.9534                   23298063.8404
 -27700236.41448 -21532965.82846  20970549.5394                   20970547.6484
 -78950038.66447 -61468874.32844  23725422.3594                   23725420.7544
 -16984851.58648 -13156504.06646  20980770.5164                   20980767.7304
  -7693796.02748  -5950887.96546  21336325.6414                   21336323.7074
 -52482407.59847 -40844303.70745  22328145.5634                   22328144.6214
 -39502763.83248 -30727666.46546  20633315.2504                   20633311.0004
 11  7 28  2 18  0.0000000  0  8G09G25G10G17G12G05G04G02
 -18290721.58646 -13931035.02343  24464892.1024   24464894.6174   13425726.55947
  10500649.28145                  23262806.7194                   23262807.5314
 -27772765.76648 -21589482.16046  20956747.9224                   20956745.8244
 -78984230.20746 -61495517.07844  23718915.0784                   23718914.3014
 -17116956.01648 -13259442.55946  20955631.6564                   20955629.1414
  -7865615.82848  -6084773.48046  21303629.2194                   21303627.1024
 -52498393.60547 -40856760.33645  22325103.8134                   22325101.9964
 -39588117.33248 -30794175.67246  20617073.2814                   20617068.7074
 11  7 28  2 18 30.0000000  0  8G09G25G10G17G12G05G04G02
 -18303631.15246 -13941094.48042  24462437.0944   24462437.6054   13240786.49247
  10356540.19145                  23227613.4844                   23227614.8014
 -27844647.76648 -21645494.09446  20943069.1094                   20943067.3954
 -79018217.75846 -61522000.86744  23712447.8204                   23712446.4574
 -17248501.30548 -13361945.35946  20930599.4454                   20930596.9064
  -8036985.77048  -6218308.45746  21271018.5474                   21271016.5234
 -52514282.79347 -40869141.52745  22322079.6954                   22322079.1994
 -39673198.37148 -30860472.56646  20600882.4844                   20600878.5204
 11  7 28  2 19  0.0000000  0  8G09G25G10G17G12G05G04G02
 -18316509.86746 -13951129.99642  24459985.6644   24459987.3914   13056180.00047
  10212691.05945                  23192484.1334                   23192485.2424
 -27915883.18748 -21701002.18446  20929513.3364                   20929511.4344
 -79052001.59847 -61548325.92644  23706019.3054                   23706017.8244
 -17379485.77348 -13464011.15646  20905673.6954                   20905671.1294
  -8207903.87148  -6351491.34846  21238493.8054                   21238491.8444
 -52530077.00847 -40881448.70745  22319074.1954                   22319073.2544
 -39758008.27748 -30926558.19546  20584743.6564                   20584739.4774
 11  7 28  2 19 30.0000000  0  8G09G25G10G17G12G05G04G02
 -18329362.91046 -13961145.34842  24457540.2344   24457542.2384   12871907.89547
  10069102.49245                  23157418.4694                   23157419.4414
 -27986475.23848 -21756008.95346  20916080.0164                   20916078.8634
 -79085582.94947 -61574493.21544  23699628.6644                   23699627.5864
 -17509909.82448 -13565640.25846  20880854.5084                   20880852.3914
  -8378369.44948  -6484321.62946  21206055.1024                   21206053.2544
 -52545779.68047 -40893684.55545  22316086.0164                   22316085.2424
 -39842550.06648 -30992434.89146  20568656.0004                   20568651.8364
 11  7 28  2 20  0.0000000  0  8G09G25G10G17G12G05G04G02
 -18342191.61745 -13971141.90242  24455098.7114   24455100.8444   12687974.59847
   9925777.87544                  23122416.2734                   23122417.6684
 -28056423.04348 -21810513.71946  20902769.6334                   20902767.6604
 -79118960.14547 -61600501.43744  23693277.8204                   23693275.7544
 -17639769.89848 -13666829.91046  20856143.3284                   20856141.2194
  -8548378.07048  -6616795.82846  21173703.2894                   21173701.8914
 -52561390.48047 -40905848.84045  22313115.4534                   22313114.3914
 -39926823.46948 -31058102.47346  20552619.2424                   20552615.0204
 11  7 28  2 20 30.0000000  0  8G09G25G10G17G12G05G04G02
 -18355004.13746 -13981125.72342  24452662.1644   24452662.2664   12504377.96147
   9782715.63745                  23087478.8674                   23087480.4614
 -28125732.31648 -21864520.91846  20889580.2114                   20889578.7734
 -79152137.46547 -61626353.94944  23686963.8284                   23686962.3674
 -17769069.59448 -13767582.90646  20831538.4534                   20831536.2774
  -8717932.17248  -6748915.87546  21141438.5704                   21141436.2504
 -52576916.02047 -40917946.67245  22310161.5164                   22310160.1524
 -40010833.87948 -31123565.12146  20536632.8284                   20536628.3364
 11  7 28  2 21  0.0000000  0  8G09G25G10G17G12G05G04G02
 -18367802.03946 -13991098.14842  24450225.0394   24450226.6334   12321122.36347
   9639919.13745                  23052607.1804                   23052607.7344
 -28194402.41048 -21918030.05146  20876513.0554                   20876511.1954
 -79185112.91847 -61652049.09444  23680688.4694                   23680687.2934
 -17897805.89148 -13867896.89146  20807041.0004                   20807038.5824
  -8887027.68448  -6880678.55946  21109260.2424                   21109258.6684
 -52592355.80947 -40929977.69545  22307223.1414                   22307221.9414
 -40094581.04748 -31188822.64546  20520695.9534                   20520691.6024
 11  7 28  2 21 30.0000000  0  8G09G25G10G17G12G05G04G02
 -18380592.80946 -14001065.04742  24447792.4304   24447792.5864   12138205.84847
   9497386.84445                  23017799.1174                   23017799.5354
 -28262438.98848 -21971045.55546  20863565.7424                   20863564.4144
 -79217891.09447 -61677590.51244  23674450.9924                   23674449.8364
 -18025981.63748 -13967774.07446  20782649.7814                   20782647.6724
  -9055667.05148  -7012085.81646  21077169.5314                   21077167.1254
 -52607716.13747 -40941946.78145  22304300.0004                   22304299.0394
 -40178070.87948 -31253879.63346  20504808.0944                   20504804.2814
 11  7 28  2 22  0.0000000  0  8G09G25G10G17G12G05G04G02
 -16817958.25446 -12783427.80143  24745151.1884   24745152.7814   13531057.93447
  10582726.17245                  23282850.3054                   23282849.7664
 -26754420.27048 -20795966.01246  21150532.3204                   21150530.2814
 -77675049.92246 -60475376.62944  23968043.5554                   23968042.8914
 -16578170.43048 -12839609.48046  21058159.3524                   21058156.6334
  -7648421.30948  -5915530.64546  21344959.4384                   21344957.1994
 -51047577.16047 -39726254.07045  22601184.4144                   22601183.3404
 -38685880.97348 -30091134.23846  20788762.5634                   20788758.4184
 11  7 28  2 22 30.0000000  0  8G09G25G10G17G12G05G04G02
 -16830742.66446 -12793389.69543  24742718.8204   24742719.9734   13348828.64147
  10440729.38744                  23248172.4614                   23248173.2274
 -26821192.24248 -20847996.08646  21137826.0944                   21137823.5664
 -77707431.57846 -60500609.13344  23961882.3364                   23961880.6684
 -16705219.64548 -12938608.85246  21033982.2274                   21033980.0314
  -7816139.89848  -6046220.41046  21313044.1094                   21313041.7974
 -51062781.84047 -39738101.87545  22598291.2664                   22598289.9024
 -38768858.12148 -30155791.75046  20772972.5004                   20772968.4534
 11  7 28  2 23  0.0000000  0  8G09G25G10G17G12G05G04G02
 -16843526.61746 -12803351.29743  24740286.4614   24740287.3634   13166948.75847
  10299004.84844                  23213561.5474                   23213562.1454
 -26887331.60948 -20899533.23846  21125240.4064                   21125238.1054
 -77739612.62547 -60525685.27044  23955758.2584                   23955756.8054
 -16831701.83648 -13037166.38746  21009913.9614                   21009911.5124
  -7983392.89848  -6176547.38746  21281216.5704                   21281214.7304
 -51077909.18747 -39749889.42244  22595412.4844                   22595411.9224
 -38851578.89548 -30220249.48046  20757231.6024                   20757226.9454
 11  7 28  2 23 30.0000000  0  8G09G25G10G17G12G05G04G02
 -16856318.44946 -12813319.03543  24737851.6024   24737852.6254   12985415.86347
  10157550.70744                  23179017.8284                   23179018.1884
 -26952844.98048 -20950582.59846  21112773.2894                   21112771.3404
 -77771598.00846 -60550608.97344  23949670.9454                   23949670.3984
 -16957620.55148 -13135284.85546  20985952.2664                   20985949.4774
  -8150182.69148  -6306513.42246  21249477.6564                   21249475.7704
 -51092965.64847 -39761621.73444  22592547.1804                   22592545.6024
 -38934049.64548 -30284512.38746  20741537.7034                   20741533.3404
 11  7 28  2 24  0.0000000  0  8G09G25G10G17G12G05G04G02
 -16869118.94946 -12823293.53143  24735415.5704   24735417.9264   12804234.81647
  10016370.73045                  23144539.6414                   23144540.6844
 -27017731.01648 -21001143.11746  21100425.6484                   21100423.8914
 -77803385.39146 -60575378.37144  23943622.8674                   23943621.6054
 -17082972.26648 -13232961.50446  20962098.4064                   20962095.5904
  -8316504.91848  -6436115.10946  21217827.0784                   21217825.6844
 -51107950.59047 -39773298.30144  22589696.3594                   22589694.0944
 -39016269.18048 -30348579.54346  20725891.7664                   20725887.7704
 11  7 28  2 24 30.0000000  0  8G09G25G10G17G12G05G04G02
 -16881932.30946 -12833277.99642  24732978.2734   24732978.6804   12623407.14547
   9875466.09045                  23110129.4774                   23110129.7664
 -27081992.05948 -21051216.63746  21088197.5704                   21088195.8094
 -77834975.73446 -60599994.25044  23937611.1334                   23937609.8014
 -17207756.78548 -13330196.17646  20938352.9454                   20938349.6914
  -8482358.69148  -6565351.78546  21186266.4924                   21186264.8134
 -51122866.40647 -39784920.99244  22586856.8524                   22586855.4694
 -39098239.77748 -30412452.72346  20710293.4534                   20710289.2584
 11  7 28  2 25  0.0000000  0  8G09G25G10G17G12G05G04G02
 -16894760.89846 -12843274.37142  24730536.5784   24730537.4064   12442935.95747
   9734839.28145                  23075787.2974                   23075787.9144
 -27145628.93448 -21100803.78946  21076087.6254                   21076085.7304
 -77866368.21146 -60624455.93043  23931637.4224                   23931636.0744
 -17331972.14848 -13426987.35246  20914715.6334                   20914713.0744
  -8647740.76248  -6694220.88346  21154795.1484                   21154793.6334
 -51137714.05547 -39796490.59044  22584032.3524                   22584030.8594
 -39179962.04748 -30476132.39546  20694742.2504                   20694737.9184
 11  7 28  2 25 30.0000000  0  8G09G25G10G17G12G05G04G02
 -16907608.41046 -12853285.44942  24728092.5164   24728092.4184   12262823.43847
   9594491.91045                  23041512.9064                   23041513.9264
 -27208643.37148 -21149905.93046  21064096.6954                   21064094.6254
 -77897562.82846 -60648763.43444  23925701.1024                   23925700.1414
 -17455617.43448 -13523334.31246  20891187.0084                   20891184.0354
  -8812649.47748  -6822721.14546  21123413.9534                   21123412.0864
 -51152495.44947 -39808008.57044  22581219.6644                   22581218.3164
 -39261437.69548 -30539619.89546  20679237.6024                   20679233.9384
 11  7 28  2 26  0.0000000  0  8G09G25G10G17G12G05G04G02
 -16920477.49645 -12863313.49242  24725642.5554   24725644.1214   12083072.33247
   9454426.17245                  23007306.8914                   23007308.0354
 -27271036.87948 -21198524.23046  21052223.2734                   21052221.6254
 -77928559.28146 -60672916.54744  23919802.9224                   23919801.9534
 -17578691.67248 -13619236.28946  20867766.6414                   20867763.4614
  -8977082.45348  -6950850.68446  21092122.9924                   21092121.6524
 -51167212.07447 -39819476.07844  22578419.2034                   22578417.8634
 -39342667.63748 -30602915.93046  20663780.1954                   20663776.1644
 11  7 28  2 26 30.0000000  0  8G09G25G10G17G12G05G04G02
 -16933373.01245 -12873361.84842  24723189.2894   24723190.9774   11903684.05547
   9314643.16045                  22973170.6644                   22973171.4184
 -27332811.79748 -21246660.52046  21040467.6954                   21040465.7624
 -77959359.00846 -60696916.34843  23913941.8524                   23913941.3524
 -17701194.52748 -13714693.04746  20844455.1484                   20844451.8164
  -9141038.69148  -7078608.76246  21060923.4304                   21060921.8914
 -51181866.19147 -39830894.88344  22575629.7894                   22575629.6524
 -39423654.32048 -30666022.41446  20648368.3754                   20648364.6564
 11  7 28  2 27  0.0000000  0  8G09G25G10G17G12G05G04G02
 -16946298.00045 -12883433.36742  24720729.7034   24720732.5744   11724660.71147
   9175144.50845                  22939103.6414                   22939104.2544
 -27393969.79748 -21294316.07446  21028830.4384                   21028827.7424
 -77989962.27046 -60720763.05143  23908117.7114                   23908117.3134
 -17823125.48048 -13809704.16046  20821252.3204                   20821249.1524
  -9304516.62548  -7205994.11746  21029814.8204                   21029812.9804
 -51196460.05947 -39842266.71944  22572853.5554                   22572851.8134
 -39504399.31248 -30728940.56246  20633003.6334                   20632999.2584
 11  7 28  2 27 30.0000000  0  8G09G25G10G17G12G05G04G02
                                  24718265.242                    11546004.13347
   9035931.65245                  22905105.9304                   22905106.9304
 -27454513.35548 -21341492.85546  21017309.1254                   21017306.8094
 -78020369.60546 -60744457.07443  23902331.9774                   23902330.1954
 -17944483.53548 -13904268.84446  20798158.2664                   20798155.3134
  -9467514.56648  -7333005.46946  20998796.9064                   20998795.6334
 -51210995.71547 -39853593.21144  22570087.5704                   22570085.9964
 -39584904.66048 -30791671.98446  20617683.5554                   20617679.8164
 11  7 28  2 28  0.0000000  0  8G09G25G10G17G12G05G04G02
 -16972248.92615                  24715790.352                    11367718.77347
   8897008.02745                  22871179.4774                   22871180.3134
 -27514441.91048 -21388190.42246  21005904.8134                   21005903.0394
 -78050578.85546 -60767996.75843  23896582.5864                   23896582.2664
 -18065266.39548 -13998385.34446  20775174.2974                   20775171.5434
  -9630028.56648  -7459639.71546  20967871.8524                   20967869.9694
 -51225472.67647 -39864873.98044  22567332.4304                   22567330.5434
 -39665169.48048 -30854215.98446  20602409.8984                   20602405.8054
 11  7 28  2 28 30.0000000  0  8G09G25G10G17G12G05G04G02
 -16985279.109 5                  24713310.625                    11189807.36347
   8758375.79745                  22837324.4534                   22837324.3524
 -27573756.72748 -21434409.73846  20994617.7424                   20994615.5434
 -78080589.70347 -60791381.79744  23890872.0234                   23890871.1804
 -18185472.13748 -14092052.13346  20752299.8834                   20752296.6054
  -9792056.32848  -7585895.07446  20937039.0554                   20937037.4104
 -51239892.22347 -39876109.99244  22564588.5084                   22564587.2664
 -39745194.86348 -30916573.40246  20587181.4614                   20587177.5554
 11  7 28  2 29  0.0000000  0  8G09G25G10G17G12G05G04G02
 -16998351.16415                  24710823.359                    11012270.84847
   8620035.73045                  22803540.4304                   22803539.6994
 -27632460.82848 -21480153.17646  20983446.5944                   20983444.6174
 -78110403.73046 -60814613.50444  23885200.0084                   23885198.1484
 -18305101.37548 -14185269.69146  20729534.7504                   20729532.1604
  -9953597.37148  -7711771.16846  20906298.8204                   20906296.5394
 -51254257.03947 -39887303.30545  22561854.9924                   22561853.1724
 -39824983.53148 -30978746.37146  20571998.5004                   20571994.3794
 11  7 28  2 29 30.0000000  0  8G09G25G10G17G12G05G04G02
 -17011467.953 5                  24708327.820                    10835112.01247
   8481989.89145                  22769827.5394                   22769827.6024
 -27690555.72348 -21525421.91046  20972391.7274                   20972389.1214
 -78140020.29746 -60837691.35243  23879563.1954                   23879561.8444
 -18424152.89848 -14278037.08246  20706879.9844                   20706877.7814
 -10114649.17248  -7837266.04346  20875650.9774                   20875649.6524
 -51268568.60947 -39898455.15245  22559131.5234                   22559130.9104
 -39904536.60548 -31040735.75846  20556860.2274                   20556855.7704
 11  7 28  2 30  0.0000000  0  8G09G25G10G17G12G05G04G02
 -15449213.105 5                  25005615.375                    12233758.28147
   9571844.19145                  23035981.6094                   23035981.9224
 -26172621.75848 -20342616.20746  21261244.7894                   21261242.6484
 -76594019.65246 -59633015.53143  24173757.9694                   24173756.0314
 -16967203.01248 -13142751.43046  20984128.5394                   20984125.6804
  -8699785.37148  -6734774.72746  21144891.1334                   21144888.9884
 -49707408.76247 -38681966.95345  22856210.6564                   22856209.6174
 -38408433.73848 -29874941.29346  20841558.6804                   20841554.5594
 11  7 28  2 30 30.0000000  0  7G25G10G17G12G05G04G02
  12057363.58247   9434393.83645  23002415.1094                   23002415.4694
 -26229501.26648 -20386937.86346  21250420.9694                   21250418.7464
 -76623240.57046 -59655785.06643  24168196.0784                   24168195.6484
 -17085095.18448 -13234615.43446  20961694.3914                   20961691.8524
  -8859851.68048  -6859501.68746  21114431.5084                   21114429.7624
 -49721616.78547 -38693038.13745  22853506.5084                   22853505.5434
 -38487517.80548 -29936565.23446  20826509.8914                   20826505.5704
 11  7 28  2 31  0.0000000  0  7G25G10G17G12G05G04G02
  11881352.24647   9297242.19145  22968921.0554                   22968921.8524
 -26285778.05948 -20430789.90246  21239711.6884                   21239709.8054
 -76652266.09446 -59678402.30144  24162673.8834                   24162671.9734
 -17202408.58648 -13326028.46146  20939370.5004                   20939368.0164
  -9019424.87148  -6983844.39846  21084065.5784                   21084063.5514
 -49735777.45747 -38704072.43444  22850812.0474                   22850811.0594
 -38566371.71548 -29998009.82446  20811504.1644                   20811499.9534
 11  7 28  2 31 30.0000000  0  7G25G10G17G12G05G04G02
  11705730.15247   9160393.85545  22935501.5234                   22935502.7344
 -26341450.46548 -20474170.98046  21229117.4534                   21229115.3794
 -76681092.64146 -59700864.53943  24157187.5474                   24157186.8284
 -17319138.63348 -13416986.91046  20917157.3914                   20917154.6564
  -9178499.14848  -7107798.34046  21053794.7734                   21053793.2384
 -49749888.94547 -38715068.39845  22848126.8674                   22848125.8094
 -38644993.09048 -30059273.21946  20796543.3284                   20796538.9774
 11  7 28  2 32  0.0000000  0  7G25G10G17G12G05G04G02
  11530502.90247   9023853.19945  22902156.1564                   22902157.5554
 -26396517.09848 -20517080.02046  21218639.0164                   21218636.9694
 -76709717.14146 -59723169.33243  24151740.1254                   24151739.1994
 -17435281.49648 -13507487.82446  20895055.9384                   20895053.2774
  -9337069.51248  -7231359.62946  21023620.0084                   21023617.7304
 -49763949.30147 -38726024.52744  22845450.9844                   22845450.2234
 -38723380.16848 -30120354.04746  20781626.6564                   20781622.2624
 11  7 28  2 32 30.0000000  0  7G25G10G17G12G05G04G02
  11355673.05547   8887622.18045  22868887.8054                   22868888.6994
 -26450979.49248 -20559518.23446  21208274.8914                   21208272.9774
 -76738139.54346 -59745316.64843  24146331.6254                   24146330.4614
 -17550835.99248 -13597530.27346  20873066.9144                   20873064.0234
  -9495133.92248  -7354526.65646  20993541.2424                   20993539.2814
 -49777959.91447 -38736941.89544  22842785.2114                   22842783.9654
 -38801533.92648 -30181253.04746  20766754.3984                   20766750.2274
 11  7 28  2 33  0.0000000  0  7G25G10G17G12G05G04G02
  11181239.96547   8751700.29745  22835694.0164                   22835694.8594
 -26504842.43047 -20601489.34046  21198025.3364                   21198023.3954
 -76766362.64546 -59767308.65243  24140961.7504                   24140960.3094
 -17665804.47748 -13687116.09446  20851189.0004                   20851186.1844
  -9652693.74248  -7477300.51246  20963558.2664                   20963556.8164
 -49791925.17647 -38747823.91044  22840127.5634                   22840126.1844
 -38879458.80548 -30241973.72346  20751925.8914                   20751921.0864
 11  7 28  2 33 30.0000000  0  7G25G10G17G12G05G04G02
  11007204.27747   8616088.12145  22802574.9694                   22802577.3404
 -26558109.34847 -20642996.00046  21187889.1254                   21187886.6764
 -76794388.24246 -59789146.78543  24135628.1564                   24135626.9024
 -17780188.10248 -13776246.17646  20829422.4614                   20829419.8874
  -9809748.73448  -7599680.98846  20933672.0864                   20933670.0904
 -49805848.40247 -38758673.16444  22837478.1724                   22837476.1174
 -38957157.91048 -30302518.46146  20737140.5164                   20737135.8404
 11  7 28  2 34  0.0000000  0  7G25G10G17G12G05G04G02
  10833568.12547   8480787.25445  22769534.1024                   22769534.7624
 -26610782.28947 -20684039.83646  21177865.1174                   21177863.5984
 -76822216.62946 -59810831.24643  24130333.4064                   24130331.2734
 -17893986.07448 -13864919.91046  20807767.3914                   20807764.7384
  -9966297.24248  -7721666.80546  20903882.1024                   20903880.1054
 -49819731.09047 -38769490.82044  22834836.1254                   22834834.1844
 -39034632.56648 -30362888.30546  20722397.1254                   20722392.7034
 11  7 28  2 34 30.0000000  0  7G25G10G17G12G05G04G02
  10660334.68047   8345800.18445  22736568.4694                   22736569.1994
 -26662862.41047 -20724621.74246  21167954.8364                   21167953.0824
 -76849847.51246 -59832361.80943  24125074.6804                   24125073.6134
 -18007196.95748 -13953136.16846  20786224.0784                   20786221.2504
 -10122336.73048  -7843255.97746  20874188.6024                   20874186.6954
 -49833574.05547 -38780277.53544  22832201.5314                   22832199.5124
 -39111883.27348 -30423083.64546  20707696.9144                   20707692.6604
 11  7 28  2 35  0.0000000  0  7G25G10G17G12G05G04G02
  10487501.99647   8211125.39545  22703679.7194                   22703679.4924
 -26714356.16847 -20764746.73445  21158155.7664                   21158154.4264
 -76877285.19146 -59853741.78943  24119853.8754                   24119852.0554
 -18119824.18748 -14040897.64146  20764791.8834                   20764789.4344
 -10277869.62548  -7964450.40646  20844591.6804                   20844589.5164
 -49847382.64147 -38791037.43444  22829574.6644                   22829572.3634
 -39188915.62548 -30483108.83246  20693038.0634                   20693033.2344
 11  7 28  2 35 30.0000000  0  7G25G10G17G12G05G04G02
  10315071.77047   8076764.19545  22670867.3284                   22670867.1954
 -26765266.22747 -20804416.89146  21148467.7734                   21148465.9924
 -76904530.01646 -59874971.52043  24114669.0554                   24114667.6884
 -18231867.93048 -14128204.43446  20743470.4844                   20743468.4414
 -10432895.02048  -8085249.37946  20815091.1094                   20815089.1564
 -49861159.26247 -38801772.47744  22826952.7424                   22826950.3014
 -39265731.70348 -30542965.49246  20678420.4304                   20678415.9104
 11  7 28  2 36  0.0000000  0  7G25G10G17G12G05G04G02
  10143048.18047   7942719.87145  22638132.1644                   22638131.6844
 -26815592.52347 -20843632.18046  21138891.1954                   21138889.1954
 -76931580.68746 -59896049.95743  24109521.3524                   24109519.5274
 -18343325.60948 -14215054.56646  20722261.0944                   20722258.5354
 -10587409.28948  -8205650.06646  20785687.8284                   20785686.0234
 -49874903.26647 -38812482.08644  22824337.0474                   22824335.6914
 -39342330.73448 -30602653.03146  20663843.9384                   20663839.5124
 11  7 28  2 36 30.0000000  0  7G25G10G17G12G05G04G02
   9971435.74247   7808995.94545  22605475.3984                   22605474.2624
 -26865334.85547 -20882392.41045  21129425.3834                   21129423.0434
 -76958434.93447 -59916975.33243  24104412.1094                   24104409.9654
 -18454194.37548 -14301445.79346  20701163.3524                   20701161.0664
 -10741408.40648  -8325649.34046  20756382.8984                   20756380.8244
 -49888613.75447 -38823165.60544  22821728.1094                   22821727.2074
 -39418711.87548 -30662170.78546  20649309.5234                   20649304.6604
 11  7 28  2 37  0.0000000  0  7G25G10G17G12G05G04G02
   9800238.88347   7675595.83645  22572897.6024                   22572897.6764
 -26914493.14147 -20920697.55546  21120071.3984                   21120068.9384
 -76985090.98446 -59937746.27043  24099338.9224                   24099336.7734
 -18564471.72348 -14387376.18446  20680178.0004                   20680175.4144
 -10894888.37548  -8445244.08646  20727176.2584                   20727174.5744
 -49902290.09847 -38833822.51644  22819126.3754                   22819124.1994
 -39494874.25848 -30721518.08246  20634815.7274                   20634811.3834
 11  7 28  2 37 30.0000000  0  7G25G10G17G12G05G04G02
   9629462.55547   7542523.42645  22540399.5864                   22540400.2114
 -26963066.36748 -20958546.80946  21110828.0554                   21110825.9694
 -77011545.87547 -59958360.46143  24094304.6564                   24094303.3594
 -18674153.99248 -14472842.86746  20659306.4144                   20659303.4774
 -11047844.95348  -8564430.99646  20698069.7584                   20698067.8484
 -49915930.96547 -38844451.76644  22816530.4144                   22816528.6294
 -39570816.35248 -30780693.71946  20620364.9694                   20620360.3484
 11  7 28  2 38  0.0000000  0  7G25G10G17G12G05G04G02
   9459107.22747   7409779.07045  22507981.9534                   22507982.5434
 -27011058.66847 -20995943.40245  21101695.4844                   21101693.1804
 -77037801.75047 -59978819.56644  24089308.2424                   24089305.9494
 -18783242.92648 -14557847.21946  20638547.0944                   20638545.1254
 -11200278.78148  -8683210.57446  20669062.4064                   20669060.5634
 -49929539.45747 -38855055.78544  22813940.4774                   22813938.9024
 -39646541.40648 -30839700.25446  20605955.2344                   20605949.9384
 11  7 28  2 38 30.0000000  0  7G25G10G17G12G05G04G02
  10864602.10247   8504969.94945  22775439.1884                   22775440.0634
 -25483049.37147 -19805286.79745  21392465.6414                   21392463.3524
 -75488436.72747 -58771522.14544  24384143.5234                   24384141.4844
 -17316313.11348 -13414785.00846  20917694.6414                   20917692.1644
  -9776761.50048  -7573976.28546  20939948.8594                   20939946.7774
 -48367695.31247 -37638034.39144  23111149.1414                   23111147.9924
 -38146627.05548 -29670935.81246  20891378.8204                   20891374.1644
 11  7 28  2 39  0.0000000  0  7G25G10G17G12G05G04G02
  10695096.23447   8372887.52345  22743182.6644                   22743184.3524
 -25529885.27347 -19841782.27746  21383553.0784                   21383550.9804
 -75514294.53147 -58791671.06243  24379222.2894                   24379219.8914
 -17424212.91048 -13498862.75846  20897161.8984                   20897159.4734
  -9928143.49248  -7691936.23846  20911141.8134                   20911139.9734
 -48381242.55947 -37648590.71944  23108571.3594                   23108570.3444
 -38221921.57848 -29729606.86346  20877050.7424                   20877046.3244
 11  7 28  2 39 30.0000000  0  8G29G25G10G17G12G05G04G02
  32821920.77356  25610278.39853  24746954.3754                   24746955.1414
  10526015.58647   8241136.43045  22711008.1174                   22711009.1954
 -25576149.05947 -19877831.97746  21374749.6644                   21374746.9844
 -75539956.35947 -58811667.23444  24374339.1414                   24374337.5944
 -17531520.05148 -13582478.69946  20876742.2274                   20876739.4344
 -10079000.26248  -7809486.93446  20882434.4844                   20882432.3674
 -48394764.16847 -37659127.04744  23105998.3284                   23105997.0984
 -38297005.24248 -29788113.59446  20862763.4614                   20862758.3634
 11  7 28  2 40  0.0000000  0  8G29G25G10G17G12G05G04G02
  32645736.10246  25472991.67243  24713427.5004                   24713427.3284
  10357359.44947   8109716.10945  22678913.8754                   22678914.8364
 -25621845.74647 -19913439.76246  21366053.9534                   21366051.5044
 -75565425.76647 -58831513.50844  24369492.3054                   24369490.7814
 -17638237.18448 -13665634.89146  20856434.7504                   20856431.9304
 -10229332.68048  -7926629.04346  20853827.4774                   20853825.6724
 -48408264.41847 -37669646.72344  23103429.5084                   23103428.2774
 -38371882.45748 -29846459.46946  20848514.2344                   20848509.6334
 11  7 28  2 40 30.0000000  0  8G29G25G10G17G12G05G04G02
  32469490.05946  25335657.12943  24679889.2194                   24679888.2854
  10189127.80547   7978626.59445  22646900.1414                   22646901.3484
 -25666979.89547 -19948609.21146  21357465.1334                   21357462.6884
 -75590704.73846 -58851211.45344  24364682.2734                   24364680.2734
 -17744366.26648 -13748332.86346  20836238.8674                   20836236.1134
 -10379141.93748  -8043363.49646  20825319.3834                   20825317.7344
 -48421746.59446 -37680152.30544  23100863.7504                   23100862.1214
 -38446556.64548 -29904647.13346  20834304.3284                   20834299.8444
 11  7 28  2 41  0.0000000  0  8G29G25G10G17G12G05G04G02
  32293182.62946  25198274.70343  24646338.8134                   24646338.7854
  10021322.58647   7847869.34445  22614967.6484                   22614969.3794
 -25711553.82047 -19983342.12946  21348982.8914                   21348980.8284
 -75615793.95347 -58870761.43744  24359907.2584                   24359906.3094
 -17849907.25448 -13830572.58246  20816155.2584                   20816152.8244
 -10528426.73448  -8159689.27346  20796911.4454                   20796909.8914
 -48435212.46147 -37690645.19944  23098300.7814                   23098300.5474
 -38521029.41048 -29962677.84446  20820132.5944                   20820128.1454
 11  7 28  2 41 30.0000000  0  8G29G25G10G17G12G05G04G02
  32116812.79346  25060843.71943  24612776.1174                   24612775.2894
   9853944.69947   7717445.07845  22583116.8284                   22583117.8554
 -25755571.19947 -20017641.39545  21340607.2424                   21340604.1724
 -75640694.93746 -58890164.76244  24355168.6254                   24355167.7074
 -17954861.18448 -13912354.85946  20796183.0784                   20796180.1454
 -10677186.79348  -8275606.17246  20768603.5394                   20768601.4614
 -48448664.58647 -37701127.39144  23095741.4844                   23095740.4264
 -38595303.28548 -30020553.57046  20805998.8594                   20805994.1724
 11  7 28  2 42  0.0000000  0  8G29G25G10G17G12G05G04G02
  31940385.97346  24923368.27043  24579203.8834                   24579202.4264
   9687001.51247   7587359.53545  22551348.5944                   22551349.3714
 -25799028.85947 -20051504.49245  21332336.9614                   21332334.7504
 -75665402.57446 -58909417.50844  24350466.8984                   24350466.6644
 -18059222.40648 -13993675.27746  20776324.0004                   20776321.0984
 -10825415.62948  -8391109.12146  20740396.3674                   20740394.4344
 -48462099.10547 -37711595.84844  23093185.2034                   23093183.8674
 -38669374.55548 -30078271.43446  20791903.2274                   20791898.8094
 11  7 28  2 42 30.0000000  0  8G29G25G10G17G12G05G04G02
  31763898.89146  24785845.88643  24545619.1564                   24545619.6994
   9520491.28547   7457611.34845  22519662.7274                   22519663.9184
 -25841933.14547 -20084936.39845  21324172.4304                   21324170.6644
 -75689921.14147 -58928522.87544  24345801.4304                   24345800.4344
 -18162994.59848 -14074536.71146  20756576.4614                   20756574.1764
 -10973115.52048  -8506199.90246  20712289.9844                   20712288.1094
 -48475521.30147 -37722054.72744  23090630.8524                   23090629.4104
 -38743248.44148 -30135835.47746  20777845.4384                   20777840.8324
 11  7 28  2 43  0.0000000  0  8G29G25G10G17G12G05G04G02
  31587355.77346  24648279.83643  24512023.5394                   24512025.0004
   9354420.30547   7328205.43045  22488059.9614                   22488061.5554
 -25884282.24647 -20117935.70346  21316113.5164                   21316112.3444
 -75714246.80947 -58947477.94944  24341173.0864                   24341171.3914
 -18266172.77748 -14154935.28946  20736942.4144                   20736940.0434
 -11120280.93748  -8620874.21946  20684285.3594                   20684283.1334
 -48488928.12147 -37732501.61744  23088079.4304                   23088078.3204
 -38816921.77048 -30193243.24646  20763825.8984                   20763821.6484
 11  7 28  2 43 30.0000000  0  8G29G25G10G17G12G05G04G02
  31410758.94946  24510671.94143  24478418.4694                   24478419.6094
   9188792.28947   7199144.66045  22456542.2194                   22456542.6604
 -25926076.80547 -20150502.88745  21308160.2344                   21308158.3204
 -75738378.27046 -58966281.70344  24336580.4924                   24336579.0474
 -18368755.99648 -14234870.25846  20717421.2344                   20717418.6484
 -11266908.96948  -8735129.79746  20656382.9384                   20656381.0744
 -48502319.46547 -37742936.41844  23085531.3204                   23085530.2774
 -38890394.31648 -30250494.57446  20749844.5554                   20749840.1254
 11  7 28  2 44  0.0000000  0  8G29G25G10G17G12G05G04G02
  31234108.92246  24373022.60543  24444803.0004                   24444805.2704
   9023609.87547   7070431.11345  22425109.1024                   22425109.5354
 -25967318.70747 -20182639.42245  21300312.6024                   21300310.0314
 -75762315.33646 -58984933.94143  24332025.1804                   24332023.9574
 -18470743.05548 -14314340.68046  20698014.1644                   20698011.4964
 -11412997.77048  -8848965.18746  20628582.6564                   20628581.0704
 -48515696.03146 -37753359.72744  23082986.1724                   23082984.5634
 -38963666.98848 -30307590.14546  20735901.6254                   20735896.9494
 11  7 28  2 44 30.0000000  0  8G29G25G10G17G12G05G04G02
  31057401.09447  24235328.19143  24411177.2734                   24411178.8754
   8858870.07847   6942062.46945  22393760.5554                   22393760.5904
 -26008015.40247 -20214351.13346  21292567.9384                   21292566.0084
 -75786063.30546 -59003438.86343  24327506.2194                   24327505.4694
 -18572139.08248 -14393350.57046  20678718.9144                   20678716.2664
 -11558551.07848  -8962383.30946  20600885.1644                   20600883.2774
 -48529064.02347 -37763776.34044  23080441.7344                   23080440.8054
 -39036746.13748 -30364534.91046  20721994.8284                   20721990.3404
 11  7 28  2 45  0.0000000  0  8G29G25G10G17G12G05G04G02
  30880640.36346  24097592.59443  24377540.5634                   24377542.9804
   8694579.50847   6814043.85545  22362497.2274                   22362497.5864
 -26048164.75047 -20245636.34445  21284927.9224                   21284925.5474
 -75809617.94146 -59021793.06244  24323024.2664                   24323023.0434
 -18672939.17248 -14471896.08646  20659537.2814                   20659534.5744
 -11703563.18448  -9075379.72746  20573290.0164                   20573288.3634
 -48542420.53146 -37774183.99644  23077900.1644                   23077899.4144
 -39109628.45748 -30421326.30946  20708125.5474                   20708121.0394
 11  7 28  2 45 30.0000000  0  8G29G25G10G17G12G05G04G02
  30703824.58246  23959814.06643  24343892.8444                   24343895.4264
   8530737.81647   6686375.01645  22331319.1884                   22331319.6214
 -26087771.23847 -20276498.53145  21277391.3984                   21277388.5944
 -75832981.92246 -59039998.75043  24318577.8674                   24318577.2274
 -18773146.01648 -14549979.34046  20640468.8054                   20640465.9614
 -11848034.93048  -9187955.07446  20545798.3204                   20545795.9494
 -48555768.87546 -37784585.28143  23075359.6414                   23075358.4694
 -39182317.59048 -30477967.17246  20694292.9224                   20694288.7464
 11  7 28  2 46  0.0000000  0  8G29G25G10G17G12G05G04G02
  30526957.89846  23821995.94943  24310236.1414                   24310238.1254
   8367350.81647   6559060.46945  22300227.1564                   22300228.3634
 -26126833.61347 -20306936.73045  21269957.1334                   21269955.8134
 -75856151.97746 -59058053.30543  24314169.1024                   24314167.6764
 -18872755.44148 -14627597.07046  20621513.6724                   20621510.9184
 -11991961.38748  -9300105.52746  20518409.9844                   20518407.9774
 -48569106.56247 -37794978.29744  23072822.0864                   23072820.2304
 -39254811.00848 -30534455.54346  20680498.3204                   20680494.0274
 11  7 28  2 46 30.0000000  0  8G29G25G10G17G12G05G04G02
  31925464.68446  24911741.58243  24576363.0704                   24576363.8834
   9779844.05947   7659704.58245  22569016.0234                   22569016.9454
 -24589935.21947 -19109353.57045  21562419.3054                   21562417.9804
 -74303709.55946 -57848357.93743  24609589.2194                   24609587.2304
 -17396346.26648 -13477148.35546  20902464.9694                   20902461.9734
 -10559918.70748  -8184228.07846  20790918.5784                   20790916.4224
 -47007016.67647 -36577765.37544  23370077.7504                   23370076.3244
 -37751689.72348 -29363192.18746  20966532.8444                   20966528.4534
 11  7 28  2 47  0.0000000  0  8G29G25G10G17G12G05G04G02
  31748493.14146                  24773841.78943  24542687.6804   24542686.5664
   9617368.36747   7533100.16045  22538097.7034                   22538098.5234
 -24627921.41047 -19138953.19545  21555191.2894                   21555189.0044
 -74326496.93046 -57866114.33243  24605252.6724                   24605250.8404
 -17494765.25448 -13553838.47746  20883736.3134                   20883733.6294
 -10702755.41848  -8295529.38346  20763737.7194                   20763735.3164
 -47020341.32047 -36588148.19544  23367542.5474                   23367540.5784
 -37823799.98048 -29419381.98846  20952810.7734                   20952806.0704
 11  7 28  2 47 30.0000000  0  8G29G25G10G17G12G05G04G02
  31571470.98846                  24635902.54743  24509000.2734   24508998.9964
   9455352.69147   7406854.19945  22507267.0314                   22507267.7544
 -24665371.79747 -19168135.31245  21548064.3204                   21548062.5204
 -74349092.34046 -57883721.10243  24600952.5704                   24600951.0004
 -17592587.68048 -13630063.74246  20865121.3284                   20865118.6564
 -10845044.10948  -8406403.65246  20736660.8524                   20736658.7894
 -47033659.96147 -36598526.36344  23365007.8444                   23365006.3444
 -37895719.33248 -29475423.01246  20939124.7114                   20939120.1954
 11  7 28  2 48  0.0000000  0  8G29G25G10G17G12G05G04G02
  31394399.29746                  24497924.67643  24475305.3364   24475303.1684
   9293799.53547   7280968.64845  22476525.2504                   22476525.9414
 -24702288.38348 -19196901.47745  21541039.7504                   21541037.1884
 -74371495.62946 -57901178.20742  24596689.8594                   24596687.4964
 -17689813.30148 -13705823.96146  20846620.0784                   20846616.8914
 -10986782.99648  -8516849.51246  20709689.1564                   20709687.1094
 -47046973.33247 -36608900.40644  23362474.1954                   23362473.3404
 -37967448.50848 -29531315.85546  20925474.9774                   20925470.6094
 11  7 28  2 48 30.0000000  0  7G29G25G10G12G05G04G02
  31217276.94946                  24359907.35243  24441600.2664   24441598.8054
   9132709.50847   7155443.97745  22445870.6094                   22445871.2274
 -24738675.05148 -19225254.73845  21534115.8984                   21534113.0904
 -17786443.08248 -13781119.89546  20828231.7424                   20828229.7544
 -11127972.46948  -8626867.25846  20682821.5634                   20682819.3594
 -47060283.92246 -36619272.29344  23359941.0554                   23359940.1644
 -38038990.09048 -29587062.53146  20911861.0314                   20911856.6024
 11  7 28  2 49  0.0000000  0  7G29G25G10G12G05G04G02
  31040103.44146                  24221850.10243  24407884.8364   24407883.1484
   8972083.67647   7030281.02745  22415304.2894                   22415304.1644
 -24774535.27748 -19253197.77045  21527291.4694                   21527288.9104
 -17882478.39148 -13855952.60246  20809957.0474                   20809954.5314
 -11268612.05948  -8736456.50046  20656058.8054                   20656056.6954
 -47073594.06647 -36629643.85944  23357408.1414                   23357407.6094
 -38110346.26648 -29642664.73446  20898282.3204                   20898278.3164
 11  7 28  2 49 30.0000000  0  7G29G25G10G12G05G04G02
  30862882.64846                  24083756.00843  24374161.1414   24374158.7774
   8811927.22347   6905483.81345  22384827.0554                   22384827.3404
 -24809868.45348 -19280730.10945  21520567.4304                   21520565.5474
 -17977915.93748 -13930319.50446  20791795.8134                   20791793.1724
 -11408697.75448  -8845614.15646  20629401.2114                   20629399.2704
 -47086901.53146 -36640013.32444  23354875.8364                   23354874.9774
 -38181515.14148 -29698120.99246  20884739.9694                   20884735.3874
 11  7 28  2 50  0.0000000  0  7G29G25G10G12G05G04G02
  30685617.30146                  23945627.27743  24340427.4534   24340427.9304
   8652244.68447   6781055.91045  22354440.7584                   22354440.7274
 -24844674.17248 -19307851.43745  21513944.3834                   21513942.3244
 -18072753.38748 -14004218.81646  20773749.0634                   20773745.9104
 -11548225.78948  -8954337.25846  20602849.7034                   20602847.5314
 -47100204.98046 -36650379.66044  23352345.0704                   23352344.0124
 -38252495.17648 -29753430.09046  20871232.7344                   20871228.1604
 11  7 28  2 50 30.0000000  0  7G29G25G10G12G05G04G02
  30508312.13747                  23807467.43843  24306688.0864   24306688.3404
   8493042.11347   6657002.00445  22324145.9384                   22324146.0084
 -24878951.15647 -19334560.78145  21507421.5554                   21507419.4024
 -18166986.15248 -14077646.93746  20755816.7274                   20755813.9384
 -11687191.13748  -9062621.93446  20576405.6094                   20576403.3324
 -47113501.59046 -36660740.68744  23349814.6414                   23349813.5084
 -38323283.45348 -29808589.77746  20857761.8984                   20857757.9104
 11  7 28  2 51  0.0000000  0  7G29G25G10G12G05G04G02
  30330963.93847                  23669274.09444  24272940.4454   24272939.1914
   8334317.84047   6533320.78545  22293941.5234                   22293941.8634
 -24912705.88347 -19360863.16045  21500998.0234                   21500996.5784
 -18260619.30548 -14150607.82446  20737998.9304                   20737996.2304
 -11825596.33648  -9170470.10246  20550067.7424                   20550066.0554
 -47126795.85247 -36671099.84844  23347284.8984                   23347283.3554
 -38393885.26248 -29863604.16046  20844326.8204                   20844322.5824
 11  7 28  2 51 30.0000000  0  7G29G25G10G12G05G04G02
  30153569.27746                  23531044.48443  24239183.0394   24239181.3794
   8176069.76647   6410010.63746  22263827.5864                   22263828.5944
 -24945944.75848 -19386763.57445  21494673.1724                   21494671.2704
 -18353656.16848 -14223104.07446  20720294.9454                   20720291.6564
 -11963444.22748  -9277884.02046  20523836.3204                   20523834.0204
 -47140092.92646 -36681461.21544  23344754.4694                   23344753.4884
 -38464305.55548 -29918477.10946  20830926.1094                   20830921.5164
 11  7 28  2 52  0.0000000  0  7G29G25G10G12G05G04G02
  29976129.70346                  23392779.96143  24205417.6954   24205415.7034
   8018300.96547   6287073.96146  22233805.1334                   22233805.9494
 -24978669.34447 -19412263.26245  21488445.6804                   21488444.5824
 -18446096.00048 -14295135.10546  20702703.9774                   20702701.3554
 -12100732.55948  -9384861.91446  20497711.0704                   20497709.0824
 -47153392.92646 -36691824.86744  23342222.9064                   23342222.0784
 -38534544.35248 -29973208.62946  20817560.1024                   20817555.6454
 11  7 28  2 52 30.0000000  0  7G29G25G10G12G05G04G02
  29798646.69546                  23254481.55943  24171642.6254   24171641.5864
   7861014.38748   6164513.03545  22203874.4064                   22203875.0044
 -25010880.85547 -19437363.13345  21482316.5314                   21482314.3014
 -18537937.96148 -14366700.25846  20685227.3444                   20685224.6214
 -12237459.68048  -9491402.51246  20471693.1804                   20471690.7464
 -47166695.89846 -36702190.82044  23339691.2424                   23339690.7814
 -38604601.84448 -30027798.87146  20804228.7424                   20804224.7344
 11  7 28  2 53  0.0000000  0  7G29G25G10G12G05G04G02
  29621119.69546                  23116148.88744  24137860.7664   24137860.3874
   7704210.73447   6042328.42246  22174035.6094                   22174036.1024
 -25042583.00448 -19462066.08245  21476283.7584                   21476281.3014
 -18629183.45748 -14437800.64846  20667863.8284                   20667860.8284
 -12373625.55948  -9597505.78546  20445781.2814                   20445779.1374
 -47180004.12146 -36712560.89543  23337159.4774                   23337157.9574
 -38674480.41048 -30082249.69946  20790931.2424                   20790927.1724
 11  7 28  2 53 30.0000000  0  7G29G25G10G12G05G04G02
  29443548.64846                  22977781.89844  24104070.1414   24104070.7894
   7547891.45348   5920521.22745  22144289.4534                   22144289.3444
 -25073779.42248 -19486374.96145  21470346.9924                   21470345.0204
 -18719833.22748 -14508436.82046  20650614.0704                   20650611.0664
 -12509229.78548  -9703171.39146  20419977.0084                   20419974.5784
 -47193319.15246 -36722936.24643  23334625.7504                   23334624.1054
 -38744181.69948 -30136562.38346  20777667.6024                   20777663.6954
 11  7 28  2 54  0.0000000  0  7G29G25G10G12G05G04G02
  29265934.51246                  22839381.30544  24070271.9384   24070272.7584
   7392058.49248   5799092.99645  22114635.0864                   22114635.8054
 -25104472.56647 -19510291.68745  21464506.5944                   21464503.9884
 -18809887.65648 -14578609.09446  20633476.7734                   20633474.2704
 -12644271.31248  -9808398.54346  20394279.4384                   20394276.6914
 -47206641.83246 -36733317.55143  23332090.0084                   23332088.4024
 -38813706.75848 -30190737.75446  20764436.8444                   20764432.8524
 11  7 28  2 54 30.0000000  0  7G29G25G10G12G05G04G02
  29088280.62547                  22700949.75844  24036466.2114   24036465.5274
   7236716.73848   5678047.52046  22085074.1564                   22085075.0824
 -25134661.62547 -19533815.61745  21458761.2274                   21458759.3094
 -18899344.06248 -14648315.37946  20616453.9454                   20616451.5784
 -12778746.21548  -9913184.15646  20368689.4454                   20368687.2304
 -47219970.30546 -36743703.36743  23329554.1254                   23329552.1214
 -38883053.79748 -30244774.40246  20751241.0864                   20751236.7464
 11  7 28  2 55  0.0000000  0  7G29G25G10G12G05G04G02
  30486011.72347                  23790090.94944  24302444.5234   24302444.8524
   8657291.47347   6784988.91445  22355400.6174                   22355401.4064
 -23588930.42648 -18329349.75045  21752904.2814                   21752902.5004
 -17412781.36348 -13489954.83246  20899337.4694                   20899334.7274
 -11337231.03948  -8789925.56646  20643000.8284                   20642998.6094
 -45657886.84446 -35526495.50843  23626808.5084                   23626807.4144
 -37376803.43448 -29071072.82046  21037871.1564                   21037866.8244
 11  7 28  2 55 30.0000000  0  7G29G25G10G12G05G04G02
  30308278.05547                  23651597.21544  24268622.8674   24268622.5274
   8502935.40648   6664711.49645  22326027.8204                   22326027.9064
 -23618122.45348 -18352096.77745  21747349.4534                   21747346.9924
 -17501044.77748 -13558731.50846  20882541.4844                   20882538.9264
 -11470572.35948  -8893827.87146  20617626.5004                   20617624.1414
 -45671232.16847 -35536894.48843  23624269.7274                   23624268.5904
 -37445800.40248 -29124836.68446  21024741.3674                   21024736.9844
 11  7 28  2 56  0.0000000  0  7G29G25G10G12G05G04G02
  30130500.80946                  23513069.55544  24234792.4384   24234792.5004
   8349070.26648   6544816.60546  22296748.6254                   22296749.0984
 -23646824.47747 -18374461.96945  21741887.5004                   21741885.2304
 -17588717.12548 -13627047.62146  20865857.9224                   20865855.2814
 -11603350.25448  -8997291.15246  20592359.4144                   20592357.3794
 -45684592.22347 -35547304.91843  23621727.4384                   23621725.3754
 -37514628.32848 -29178468.82046  21011643.9844                   21011639.6764
 11  7 28  2 56 30.0000000  0  7G29G25G10G12G05G04G02
  29952685.02746                  23374511.88744  24200955.0084   24200954.8674
   8195702.53948   6425309.33246  22267563.4924                   22267564.0554
 -23675034.32447 -18396443.65645  21736519.2114                   21736517.0904
 -17675794.21948 -13694899.88746  20849287.4384                   20849285.1844
 -11735559.16848  -9100311.06246  20567201.1884                   20567199.2894
 -45697963.26247 -35557723.92644  23619183.2274                   23619181.0784
 -37583283.59448 -29231966.43046  20998579.2504                   20998574.4494
 11  7 28  2 57  0.0000000  0  7G29G25G10G12G05G04G02
  29774830.07446                  23235923.73843  24167110.0164   24167109.5124
   8042832.80548   6306190.09846  22238473.5004                   22238473.4964
 -23702755.93047 -18418044.89145  21731243.9924                   21731241.9654
 -17762277.44148 -13762289.41446  20832830.2034                   20832827.7894
 -11867199.90248  -9202888.24647  20542150.9064                   20542148.7424
 -45711347.56647 -35568153.23844  23616636.0944                   23616634.2464
 -37651768.89148 -29285331.59446  20985546.7424                   20985542.3834
 11  7 28  2 57 30.0000000  0  7G29G25G10G12G05G04G02
  29596939.01646                  23097307.41043  24133258.7034   24133257.8874
   7890465.09448   6187462.03546  22209478.6484                   22209478.7974
 -23729990.21548 -18439266.39545  21726061.3444                   21726059.2734
 -17848165.08248 -13829214.84846  20816486.4454                   20816483.6724
 -11998268.85548  -9305019.87947  20517209.0554                   20517207.1644
 -45724743.73447 -35578591.79744  23614086.7504                   23614085.3554
 -37720083.25848 -29338563.56646  20972547.1804                   20972542.8014
 11  7 28  2 58  0.0000000  0  7G29G25G10G12G05G04G02
  29419010.02046                  22958661.55543  24099399.1884   24099398.3324
   7738598.72348   6069124.63346  22180579.5164                   22180579.8914
 -23756742.24247 -18460112.12545  21720971.0474                   21720968.7934
 -17933460.17648 -13895678.53546  20800255.4224                   20800252.7664
 -12128768.05147  -9406707.53947  20492376.0084                   20492373.8594
 -45738155.25047 -35589042.34444  23611534.8054                   23611533.2774
 -37788230.09048 -29391664.97746  20959579.4614                   20959574.6454
 11  7 28  2 58 30.0000000  0  7G29G25G10G12G05G04G02
  29241045.37946                  22819987.89544  24065533.8204   24065534.2154
   7587237.00048   5951180.44946  22151776.7974                   22151775.7774
 -23783013.00847 -18480582.84845  21715971.3054                   21715968.9454
 -18018161.37148 -13961679.46546  20784137.2034                   20784134.7074
 -12258695.43048  -9507949.63347  20467651.3834                   20467649.3284
 -45751581.50847 -35599504.37944  23608980.0164                   23608978.1954
 -37856209.00048 -29444635.55146  20946643.1804                   20946639.0004
 11  7 28  2 59  0.0000000  0  7G29G25G10G12G05G04G02
  29063046.29346                  22681287.42244  24031662.5784   24031662.5084
   7436382.41048   5833631.43845  22123069.4224                   22123068.9064
 -23808804.44947 -18500680.05545  21711063.8284                   21711061.4224
 -18102268.98048 -14027217.85246  20768132.0944                   20768129.3284
 -12388049.07447  -9608744.66047  20443036.6334                   20443034.5394
 -45765022.81247 -35609978.12944  23606421.4144                   23606420.6844
 -37924020.20348 -29497475.45346  20933739.1564                   20933734.5664
 11  7 28  2 59 30.0000000  0  7G29G25G10G12G05G04G02
  28885014.10946                  22542561.10544  23997783.0704   23997783.6764
   7286037.18848   5716479.33646  22094459.6724                   22094459.4614
 -23834118.91448 -18520405.60245  21706246.5554                   21706244.3634
 -18185782.42248 -14092293.25446  20752239.9924                   20752236.9414
 -12516828.00048  -9709091.84447  20418530.7274                   20418528.5594
 -45778479.36347 -35620463.76644  23603860.9774                   23603859.7304
 -37991664.18748 -29550185.05146  20920866.8674                   20920862.5864
 11  7 28  3  0  0.0000000  0  7G29G25G10G12G05G04G02
  28706948.13346                  22403808.46143  23963899.1804   23963899.1914
   7136201.78948   5599724.48846  22065946.5634                   22065946.9774
 -23858960.64147 -18539762.76645  21701519.3524                   21701517.4694
 -18268704.27748 -14156907.68046  20736460.8284                   20736458.0314
 -12645032.85248  -9808991.69547  20394134.0784                   20394132.0314
 -45791953.55947 -35630963.17644  23601296.6334                   23601296.1564
 -38059143.43048 -29602766.27046  20908025.7814                   20908021.8954
 11  7 28  3  0 30.0000000  0  7G29G25G10G12G05G04G02
  28528846.53147                  22265028.02744  23930007.8914   23930007.0084
   6986875.23048   5483366.17645  22037531.1024                   22037530.7814
 -23883334.80547 -18558755.60945  21696881.2664                   21696879.3674
 -18351037.87548 -14221063.72346  20720793.0474                   20720790.2854
 -12772665.71948  -9908445.85547  20369846.3914                   20369844.1604
 -45805448.84047 -35641479.02744  23598728.8674                   23598727.7934
 -38126461.80948 -29655222.12946  20895216.0394                   20895211.7664
 11  7 28  3  1  0.0000000  0  7G29G25G10G12G05G04G02
  28350713.14547                  22126222.84844  23896110.2034   23896109.5634
   6838062.46948   5367408.19545  22009212.8674                   22009212.9494
 -23907240.92647 -18577383.74245  21692331.6334                   21692329.6524
 -18432779.71148 -14284758.66446  20705237.7734                   20705235.2074
 -12899722.50848 -10007451.11347  20345668.2344                   20345665.9734
 -45818962.97746 -35652009.52744  23596157.2734                   23596156.6804
 -38193616.93748 -29707550.79346  20882436.6094                   20882432.1414
 11  7 28  3  1 30.0000000  0  7G29G25G10G12G05G04G02
  28172546.15247                  21987391.44943  23862204.9694   23862204.6414
   6689762.54348   5251849.84446  21980992.1334                   21980992.1334
 -23930684.24647 -18595651.25045  21687870.2814                   21687868.6564
 -18513933.76248 -14347995.56246  20689794.9454                   20689792.3874
 -13026205.62148 -10106009.35547  20321599.3754                   20321597.0864
 -45832499.39546 -35662557.43443  23593581.8134                   23593579.7584
 -38260612.66848 -29759755.25446  20869687.7974                   20869683.0354
 11  7 28  3  2  0.0000000  0  7G29G25G10G12G05G04G02
  27994347.61347                  21848535.51644  23828296.1644   23828294.5704
   6541978.42248   5136693.41045  21952869.8364                   21952869.6214
 -23953666.53947 -18613559.51645  21683496.8984                   21683495.0514
 -18594499.25448 -14410773.87146  20674463.6484                   20674460.9734
 -13152112.92248 -10204118.91047  20297639.8834                   20297637.4534
 -45846057.57447 -35673122.28543  23591001.7734                   23591000.1684
 -38327448.55948 -29811835.16046  20856969.5394                   20856964.7464
 11  7 28  3  2 30.0000000  0  7G29G25G10G12G05G04G02
  27816118.19147                  21709655.52744  23794379.7194   23794377.9264
   6394711.73448   5021940.16446  21924845.7194                   21924846.0904
 -23976190.66047 -18631110.77345  21679211.2034                   21679208.7814
 -18674476.97348 -14473094.17246  20659244.8674                   20659241.8674
 -13277443.58648 -10301779.13347  20273790.0164                   20273787.7034
 -45859638.59047 -35683704.89843  23588416.8754                   23588415.5354
 -38394125.82848 -29863791.44946  20844281.3914                   20844276.6884
 11  7 28  3  3  0.0000000  0  7G29G25G10G12G05G04G02
  29213285.61346                  22798357.48844  24060251.6334   24060250.0664
   7823389.97748   6135195.98046  22196714.2894                   22196714.8714
 -22422837.69947 -17420705.86345  21974804.1804                   21974802.7034
 -17178444.28948 -13307354.40246  20943929.9694                   20943927.6844
 -11826772.43048  -9171385.98847  20549843.8754                   20549841.6644
 -44297821.76246 -34466704.82043  23885620.6884                   23885618.8324
 -36885222.21548 -28688022.39546  21131416.1564                   21131411.2464
 11  7 28  3  3 30.0000000  0  7G29G25G10G12G05G04G02
  29035001.14546                  22659434.59843  24026325.0634   24026323.3204
   7677167.12148   6021256.12146  22168889.1564                   22168888.9414
 -22444449.78547 -17437546.44545  21970691.2504                   21970689.5004
 -17257244.59048 -13368757.23846  20928934.4534                   20928932.0394
 -11950944.82048  -9268143.65647  20526214.4064                   20526212.5164
 -44311446.57847 -34477321.60943  23883027.2504                   23883026.8014
 -36951580.56648 -28739730.18746  21118788.1954                   21118784.0664
 11  7 28  3  4  0.0000000  0  7G29G25G10G12G05G04G02
  28856688.74246                  22520489.91043  23992393.0234   23992391.9414
   7531466.88348   5907723.48846  22141163.5634                   22141163.5354
 -22465611.72747 -17454036.26245  21966664.7504                   21966662.4734
 -17335458.64148 -13429703.24246  20914051.3524                   20914048.2074
 -12074538.88748  -9364450.68447  20502695.3054                   20502692.8054
 -44325096.18747 -34487957.69143  23880430.4844                   23880429.5354
 -37017783.21948 -28791316.65246  21106190.3284                   21106185.7934
 11  7 28  3  4 30.0000000  0  7G29G25G10G12G05G04G02
  28678347.89546                  22381523.10543  23958455.5864   23958454.8284
   7386289.38748   5794598.19546  22113536.6954                   22113537.2894
 -22486328.07047 -17470178.87545  21962722.1094                   21962720.3954
 -17413089.21548 -13490194.59446  20899278.6094                   20899275.9264
 -12197555.77348  -9460307.96947  20479286.0164                   20479283.9064
 -44338773.00847 -34498614.98043  23877828.9924                   23877827.3754
 -37083832.37948 -28842783.51246  21093621.7584                   21093617.3404
 11  7 28  3  5  0.0000000  0  7G29G25G10G12G05G04G02
  28499979.91446                  22242535.19544  23924514.2194   23924513.4494
   7241637.32048   5681882.31346  22086010.2114                   22086010.8134
 -22506600.10547 -17485975.25045  21958865.0474                   21958862.8364
 -17490136.05548 -13550231.09046  20884616.7894                   20884614.5434
 -12319993.85948  -9555714.23447  20455986.6414                   20455984.6884
 -44352476.60947 -34509293.13343  23875220.8444                   23875218.7854
 -37149727.73448 -28894130.53146  21081081.9384                   21081077.7234
 11  7 28  3  5 30.0000000  0  7G29G25G10G12G05G04G02
  28321587.52346                  22103528.25444  23890566.7734   23890565.6294
   7097513.78548   5569578.28546  22058584.5634                   22058585.2114
 -22526429.24247 -17501426.52045  21955091.5704                   21955089.4924
 -17566597.85548 -13609811.71146  20870066.6954                   20870063.8364
 -12441851.15248  -9650667.93447  20432798.0704                   20432795.7974
 -44366206.28947 -34519991.61743  23872608.0314                   23872605.3444
 -37215468.91048 -28945357.39846  21068571.7664                   21068567.4024
 11  7 28  3  6  0.0000000  0  7G29G25G10G12G05G04G02
  28143173.27046                  21964504.27744  23856616.3364   23856615.4804
   6953921.71948   5457688.38346  22031260.0704                   22031260.8244
 -22545817.03547 -17516533.86345  21951402.4304                   21951399.9304
 -17642474.40248 -13668936.29346  20855628.0704                   20855625.1134
 -12563125.92248  -9745167.71547  20409720.0864                   20409717.9964
 -44379961.40247 -34530709.91043  23869990.6954                   23869988.1604
 -37281055.48448 -28996463.81246  21056091.1564                   21056086.9804
 11  7 28  3  6 30.0000000  0  7G29G25G10G12G05G04G02
  27964735.23847                  21825461.79344  23822660.5164   23822659.4534
   6810860.11348   5346211.84846  22004036.1414                   22004036.8714
 -22564768.91047 -17531301.54345  21947795.7194                   21947793.3984
 -17717769.45348 -13727607.76246  20841300.1414                   20841297.1454
 -12683820.40648  -9839215.33647  20386752.7974                   20386750.0944
 -44393745.16847 -34541450.52343  23867367.9304                   23867366.0004
 -37346490.80548 -29047452.35546  21043639.2974                   21043634.7584
 11  7 28  3  7  0.0000000  0  7G29G25G10G12G05G04G02
  27786275.46547                  21686402.34044  23788699.6094   23788698.5164
   6668331.79748   5235150.84046  21976913.8674                   21976914.1054
 -22583286.41047 -17545730.77345  21944271.6414                   21944270.4734
 -17792482.29748 -13785825.56246  20827082.5004                   20827079.6414
 -12803932.64548  -9932809.24647  20363895.9774                   20363893.6644
 -44407557.25847 -34552213.20743  23864739.4144                   23864737.9694
 -37411774.42248 -29098322.69946  21031216.1024                   21031211.7854
 11  7 28  3  7 30.0000000  0  7G29G25G10G12G05G04G02
  27607793.63346                  21547325.69544  23754735.5634   23754734.0904
   6526336.53548   5124505.21146  21949892.9384                   21949894.1484
 -22601373.96147 -17559824.97345  21940830.1724                   21940828.0474
 -17866615.43048 -13843591.63346  20812975.7584                   20812972.8794
 -12923464.03148 -10025950.56247  20341149.7194                   20341147.9104
 -44421399.89847 -34562999.71143  23862104.5634                   23862103.6994
 -37476909.27048 -29149077.10246  21018821.4454                   21018817.3054
 11  7 28  3  8  0.0000000  0  7G29G25G10G12G05G04G02
  27429292.21147                  21408233.80544  23720769.0554   23720766.1884
   6384877.89148   5014277.71946  21922974.7894                   21922975.2274
 -22619032.66447 -17573584.99645  21937469.7034                   21937467.8284
 -17940167.85248 -13900905.21146  20798978.8754                   20798976.1174
 -13042412.43448 -10118637.59047  20318514.6094                   20318512.3594
 -44435271.62946 -34573808.87543  23859464.8444                   23859464.4104
 -37541893.91848 -29199714.48446  21006454.9924                   21006450.6254
 11  7 28  3  8 30.0000000  0  7G29G25G10G12G05G04G02
  27250769.12147                  21269125.00044  23686797.0314   23686794.9264
   6243954.12948   4904467.02746  21896157.4304                   21896158.2934
 -22636268.39147 -17587015.43045  21934189.7664                   21934187.6024
 -18013143.78148 -13957769.56646  20785092.1484                   20785089.5124
 -13160780.43048 -10210872.36347  20295990.2424                   20295988.0234
 -44449176.45346 -34584643.85543  23856819.2894                   23856818.0354
 -37606732.58648 -29250238.10546  20994116.7274                   20994112.4144
 11  7 28  3  9  0.0000000  0  7G29G25G10G12G05G04G02
  27072227.34847                  21130001.63744  23652821.6024   23652819.5234
   6103568.77748   4795075.87546  21869442.9534                   21869444.0204
 -22653081.54347 -17600116.57045  21930990.4064                   21930988.4184
 -18085542.19548 -14014183.90646  20771315.3594                   20771312.0434
 -13278565.70348 -10302653.05947  20273576.2424                   20273574.0044
 -44463113.02346 -34595503.55543  23854166.3524                   23854166.1954
 -37671424.21148 -29300647.13746  20981806.4534                   20981801.9844
 11  7 28  3  9 30.0000000  0  7G29G25G10G12G05G04G02
  26893667.97347                  20990864.60244  23618842.3754   23618840.8594
   5963723.40248   4686105.47746  21842831.0394                   21842831.3014
 -22669475.15247 -17612890.80545  21927870.8834                   21927868.3324
 -18157364.00448 -14070148.94546  20757648.1564                   20757645.2934
 -13395768.19148 -10393979.64547  20251273.3594                   20251270.8094
 -44477081.80146 -34606388.38743  23851508.4304                   23851508.3164
 -37735969.53548 -29350942.17246  20969523.8054                   20969519.3444
 11  7 28  3 10  0.0000000  0  7G29G25G10G12G05G04G02
  26715091.89847                  20851714.51244  23584860.6564   23584858.4964
   5824419.47348   4577556.99246  21816322.6094                   21816322.9734
 -22685452.07047 -17625340.32445  21924830.3834                   21924828.6804
 -18228609.89548 -14125665.22346  20744090.2274                   20744087.4264
 -13512387.53548 -10484851.82847  20229081.3984                   20229079.2344
 -44491083.35546 -34617298.71543  23848844.5164                   23848843.8164
 -37800369.16448 -29401123.68446  20957269.1724                   20957264.2774
 11  7 28  3 10 30.0000000  0  7G29G25G10G12G05G04G02
  26536500.73847                  20712552.64844  23550875.9454   23550873.0354
   5685658.95748   4469431.93846  21789917.2194                   21789917.5594
 -22701014.41847 -17637466.82045  21921868.8364                   21921866.8164
 -18299280.26648 -14180733.03946  20730642.4144                   20730639.3404
 -13628422.44548 -10575268.61747  20207000.5474                   20206998.1484
 -44505117.86746 -34628234.72343  23846173.3834                   23846173.0234
 -37864623.55148 -29451192.01246  20945041.7974                   20945036.9224
 11  7 28  3 11  0.0000000  0  7G29G25G10G12G05G04G02
  26357893.98847                  20573378.64544  23516887.7894   23516885.3634
   5547441.59048   4361730.11346  21763615.4454                   21763615.3754
 -22716166.95347 -17649273.97745  21918985.6414                   21918983.3134
 -18369378.36748 -14235354.93446  20717302.6174                   20717300.4224
 -13743874.84048 -10665231.49247  20185030.8364                   20185028.5554
 -44519187.73446 -34639198.29343  23843496.1804                   23843495.3594
 -37928735.16048 -29501149.10546  20932841.7734                   20932837.4414
 11  7 28  3 11 30.0000000  0  7G29G25G10G12G05G04G02
  27754699.12147                  21661798.28944  23782690.1094   23782688.9884
   6985193.80548   5482056.53546  22037210.5164                   22037210.1914
 -21155491.69147 -16433163.35545  22215971.9304                   22215970.2074
 -16863482.22748 -13061929.36746  21003865.3754                   21003862.8954
 -12283320.09848  -9527136.85247  20462965.1094                   20462962.4454
 -42957872.34446 -33422588.95743  24140605.0864                   24140603.8834
 -36417282.23848 -28323393.57046  21220461.6414                   21220457.2194
 11  7 28  3 12  0.0000000  0  7G29G25G10G12G05G04G02
  27576067.53546                  21522604.90244  23748698.5314   23748696.7154
   6848069.89848   5375206.76646  22011117.0784                   22011116.7734
 -21169830.27747 -16444336.27045  22213243.2034                   22213241.2304
 -16932435.48848 -13115659.18046  20990743.8284                   20990741.2344
 -12397603.47748  -9616188.80947  20441217.5474                   20441215.2424
 -42972011.28146 -33433606.31243  24137914.9924                   24137913.9614
 -36481108.07848 -28373127.98046  21208315.7344                   21208311.2584
 11  7 28  3 12 30.0000000  0  7G29G25G10G12G05G04G02
  27397425.64146                  21383403.46544  23714703.8984   23714702.8524
   6711495.54348   5268785.19946  21985127.7194                   21985127.3554
 -21183765.17647 -16455194.62945  22210591.8984                   22210589.8754
 -17000817.22748 -13168943.64546  20977731.3754                   20977728.4734
 -12511301.51248  -9704784.64847  20419581.8054                   20419579.3954
 -42986185.03946 -33444650.82443  24135216.9774                   24135216.3164
 -36544791.30148 -28422751.26246  21196197.5554                   21196192.7234
 11  7 28  3 13  0.0000000  0  7G29G25G10G12G05G04G02
  27218771.30947                  21244192.36744  23680706.9454   23680706.0864
   6575468.82048   5162790.37546  21959242.4614                   21959242.7194
 -21197302.45747 -16465743.16045  22208015.8364                   22208013.7664
 -17068631.86348 -13221786.21546  20964826.8984                   20964824.0124
 -12624417.21548  -9792926.72347  20398057.0234                   20398054.4224
 -43000397.13746 -33455725.21943  24132512.5864                   24132512.2584
 -36608335.90248 -28472266.52346  21184105.2424                   21184100.7704
 11  7 28  3 13 30.0000000  0  7G29G25G10G12G05G04G02
  27040104.16446                  21104971.27044  23646707.2814   23646706.5634
   6439989.48448   5057222.07846  21933461.5394                   21933461.3914
 -21210446.93747 -16475985.59045  22205514.4144                   22205512.6524
 -17135881.91848 -13274188.85246  20952029.4224                   20952026.7584
 -12736952.05548  -9880616.19147  20376641.9694                   20376639.4384
 -43014650.02746 -33466831.38343  24129800.6414                   24129799.9304
 -36671744.25048 -28521675.60546  21172038.9534                   21172034.7034
 11  7 28  3 14  0.0000000  0  7G29G25G10G12G05G04G02
  26861428.44146                  20965743.50444  23612706.5784   23612705.8634
   6305061.96148   4952083.76646  21907786.1884                   21907786.3324
 -21223197.87147 -16485921.38745  22203087.8914                   22203086.2664
 -17202565.75048 -13326150.28146  20939340.2664                   20939337.5314
 -12848902.71548  -9967850.44147  20355338.4924                   20355335.8054
 -43028940.73846 -33477967.03543  24127081.0634                   24127080.3794
 -36735013.97348 -28570976.67646  21159999.4844                   21159994.4924
 11  7 28  3 14 30.0000000  0  7G29G25G10G12G05G04G02
  26682745.87546                  20826510.40644  23578704.1644   23578703.1094
   6170688.29748   4847377.03546  21882215.2894                   21882215.4574
 -21235557.83247 -16495552.53145  22200736.1884                   22200734.0234
 -17268683.16448 -13377670.33646  20926757.8834                   20926755.3484
 -12960268.28148 -10054628.78147  20334146.0704                   20334143.4924
 -43043269.40246 -33489132.27343  24124354.7274                   24124354.1954
 -36798145.24648 -28620169.86346  21147985.2814                   21147981.2624
 11  7 28  3 15  0.0000000  0  7G29G25G10G12G05G04G02
  26504059.10247                  20687274.03544  23544701.9144   23544699.8204
   6036871.36348   4743104.11346  21856750.9304                   21856751.0164
 -21247527.88347 -16504879.84445  22198457.9384                   22198456.4774
 -17334234.09847 -13428748.98446  20914284.1484                   20914281.4844
 -13071047.41848 -10140950.16847  20313065.4064                   20313063.1844
 -43057634.66446 -33500326.02043  24121621.1174                   24121620.4534
 -36861137.28148 -28669254.55546  21135998.6334                   21135994.3484
 11  7 28  3 15 30.0000000  0  7G29G25G10G12G05G04G02
  26325366.97747                  20548033.48044  23510697.7274   23510696.0594
   5903609.83248   4639263.97346  21831392.0394                   21831392.2074
 -21259113.44147 -16513907.54344  22196254.0084                   22196251.1334
 -17399222.90648 -13479389.60946  20901917.5314                   20901914.3714
 -13181242.80148 -10226816.67647  20292095.8284                   20292093.4494
 -43072039.62546 -33511550.64143  24118879.0864                   24118878.9104
 -36923993.43047 -28718233.36346  21124037.2734                   21124033.0704
 11  7 28  3 16  0.0000000  0  7G29G25G10G12G05G04G02
  26146670.95747                  20408789.92644  23476692.7274   23476691.7034
   5770905.10548   4535857.72746  21806138.7894                   21806138.8404
 -21270317.52747 -16522637.99645  22194122.0164                   22194119.1724
 -17463650.16848 -13529592.66846  20889657.2034                   20889654.2584
 -13290853.74248 -10312227.78547  20271238.0004                   20271235.5944
 -43086484.74246 -33522806.62143  24116130.6954                   24116129.7934
 -36986713.99647 -28767106.52346  21112102.0164                   21112097.7854
 11  7 28  3 16 30.0000000  0  7G29G25G10G12G05G04G02
  25967974.28947                  20269545.82444  23442688.1024   23442685.9774
   5638760.75848   4432888.11746  21780992.6094                   21780992.8244
 -21281140.36747 -16531071.35945  22192062.3444                   22192059.8014
 -17527514.69548 -13579357.22346  20877504.3444                   20877501.4734
 -13399878.21148 -10397181.89147  20250490.9924                   20250488.7854
 -43100968.27346 -33534092.48043  24113374.8524                   24113374.4224
 -37049297.45748 -28815872.84446  21100192.9384                   21100188.7034
 11  7 28  3 17  0.0000000  0  7G29G25G10G12G05G04G02
  25789276.07846                  20130300.51244  23408681.9844   23408681.5554
   5507175.64848   4330354.29746  21755952.8284                   21755953.3134
 -21291587.19147 -16539211.73445  22190073.8444                   22190071.9414
 -17590820.64148 -13628686.52746  20865457.5474                   20865454.6294
 -13508318.20348 -10481680.57447  20229855.5004                   20229853.0354
 -43115492.54346 -33545410.11343  24110611.4144                   24110609.9614
 -37111746.66847 -28864534.55146  21088309.1724                   21088304.7304
 11  7 28  3 17 30.0000000  0  7G29G25G10G12G05G04G02
  25610577.23047                  19991054.71144  23374676.6024   23374675.9804
   5376150.82448   4228257.05146  21731019.8204                   21731020.0124
 -21301660.87547 -16547061.36345  22188157.5474                   22188155.4574
 -17653569.03948 -13677581.37946  20853516.9694                   20853513.7624
 -13616174.23448 -10565724.20747  20209331.0474                   20209328.9614
 -43130058.38746 -33556760.11743  24107839.4384                   24107838.2304
 -37174062.78147 -28913092.54746  21076450.7894                   21076446.6174
 11  7 28  3 18  0.0000000  0  7G29G25G10G12G05G04G02
  25431878.79746                  19851809.22744  23340671.8984   23340670.9414
   5245687.47348   4126597.30546  21706193.6334                   21706193.5204
 -21311364.41847 -16554622.58245  22186310.6414                   22186308.0944
 -17715761.46948 -13726043.01246  20841681.9534                   20841679.0784
 -13723446.32848 -10649312.82847  20188918.2274                   20188915.5704
 -43144666.44146 -33568143.04743  24105059.3284                   24105058.9064
 -37236246.33248 -28961547.24646  21064617.8594                   21064613.0164
 11  7 28  3 18 30.0000000  0  7G29G25G10G12G05G04G02
  25253183.39846                  19712566.10544  23306666.8834   23306666.6374
   5115787.80948   4025376.83246  21681474.6334                   21681474.6644
 -21320699.66047 -16561896.79345  22184533.5634                   22184531.9844
 -17777397.82448 -13774071.33646  20829952.8984                   20829950.2624
 -13830133.43448 -10732445.62947  20168616.1484                   20168613.8094
 -43159315.64146 -33579558.03943  24102271.8444                   24102271.3554
 -37298296.84447 -29009898.28546  21052809.7034                   21052805.3594
 11  7 28  3 19  0.0000000  0  7G29G25G10G12G05G04G02
  25074491.37946                  19573325.62144  23272663.5704   23272662.5984
   4986451.95348   3924595.66046  21656862.7344                   21656862.8444
 -21329670.50847 -16568887.05944  22182827.3284                   22182824.9614
 -17838480.64848 -13821668.34446  20818329.6484                   20818326.6994
 -13936237.00848 -10815123.71147  20148425.2894                   20148422.7304
 -43174007.67246 -33591006.44543  24099475.6804                   24099475.2464
 -37360216.05547 -29058147.02046  21041026.9304                   21041022.4224
 11  7 28  3 19 30.0000000  0  7G29G25G10G12G05G04G02
  26471231.78546                  20661694.82844  23538454.1094   23538453.5634
   6433107.37548   5051859.64846  21932151.8364                   21932151.7584
 -19762857.08247 -15347993.49245  22480981.5634                   22480979.6254
 -16323587.30948 -12641231.96146  21106603.7274                   21106601.0394
 -12466331.11348  -9669742.47347  20428138.9614                   20428136.5204
 -41613320.39446 -32374886.50643  24396465.6254                   24396464.5634
 -35846580.40248 -27878690.64546  21329062.7734                   21329057.8364
 11  7 28  3 20  0.0000000  0  7G29G25G10G12G05G04G02
  26292551.09846                  20522463.19144  23504451.5474   23504451.4964
   6304903.54348   4951960.57846  21907755.5164                   21907755.7814
 -19771106.00847 -15354421.23044  22479411.7584                   22479409.2464
 -16383566.22348 -12687968.78546  21095190.4534                   21095187.3594
 -12571266.18448  -9751510.04347  20408170.7584                   20408167.9024
 -41628097.78646 -32386401.40143  24393653.4614                   24393652.2424
 -35908237.75448 -27926735.32846  21317329.0784                   21317324.8324
 11  7 28  3 20 30.0000000  0  7G29G25G10G12G05G04G02
  26113876.52747                  20383236.29744  23470451.6334   23470449.4924
   6177265.85548   4852502.66846  21883466.7894                   21883467.2894
 -19778999.84447 -15360572.27345  22477909.8674                   22477907.6914
 -16442996.72348 -12734278.27046  21083881.0634                   21083878.3714
 -12675618.78548  -9832823.73447  20388312.9064                   20388310.2384
 -41642919.97746 -32397951.16443  24390832.7424                   24390831.4654
 -35969766.58647 -27974679.87146  21305620.7814                   21305616.3134
 11  7 28  3 21  0.0000000  0  7G29G25G10G12G05G04G02
  25935210.21147                  20244015.85544  23436452.2114   23436450.8164
   6050196.40648   4753487.53946  21859286.2034                   21859286.7934
 -19786540.63747 -15366448.23844  22476474.5314                   22476472.9494
 -16501879.09048 -12780160.61746  21072675.9534                   21072673.3554
 -12779388.05948  -9913682.89547  20368566.2504                   20368563.8094
 -41657786.33646 -32409535.24243  24388003.3364                   24388002.2074
 -36031166.55948 -28022523.99246  21293936.5944                   21293932.1564
 11  7 28  3 21 30.0000000  0  7G29G25G10G12G05G04G02
  25756554.77047                  20104803.85944  23402455.8054   23402453.8834
   5923697.28948   4654916.82046  21835214.0314                   21835214.3204
 -19793730.03947 -15372050.37945  22475107.2114                   22475104.6024
 -16560213.85248 -12825616.28546  21061575.6174                   21061572.6764
 -12882573.27048  -9994086.93047  20348930.9454                   20348928.1954
 -41672696.01246 -32421153.13343  24385166.4144                   24385165.0434
 -36092437.23448 -28070267.37146  21282277.7584                   21282273.1484
 11  7 28  3 22  0.0000000  0  8G29G25G10G26G12G05G04G02
  25577909.56647                  19965599.83244  23368460.2734   23368457.7274
   5797767.37948   4556789.63746  21811250.5634                   21811250.8674
 -19800572.94147 -15377382.51245  22473804.6174                   22473802.6294
  40679080.35255  31776504.74252  24845403.3284                   24845402.9224
 -16618004.41447 -12870647.89546  21050578.1484                   21050575.1484
 -12985177.13748 -10074037.98047  20329406.0314                   20329403.0044
 -41687651.61346 -32432806.85543  24382320.6804                   24382319.1454
 -36153581.18047 -28117912.00046  21270641.9384                   21270637.4734
 11  7 28  3 22 30.0000000  0  8G29G25G10G26G12G05G04G02
  25399273.80947                  19826403.15244  23334467.0944   23334464.8954
   5672405.66048   4459105.19146  21787395.2584                   21787395.2934
 -19807074.34047 -15382448.53544  22472567.4224                   22472565.0314
  40489182.30145  31628532.31642  24809266.2114                   24809266.5474
 -16675254.94548 -12915258.70346  21039683.7894                   21039681.0784
 -13087201.31248 -10153537.31247  20309991.1094                   20309988.6644
 -41702655.53546 -32444498.25843  24379465.5084                   24379463.8914
 -36214601.43048 -28165460.23846  21259030.3134                   21259025.6684
 11  7 28  3 23  0.0000000  0  8G29G25G10G26G12G05G04G02
  25220647.50846                  19687213.87944  23300475.7274   23300472.8164
   5547611.85248   4361863.27346  21763647.6174                   21763647.7384
 -19813238.35547 -15387251.65644  22471394.5084                   22471391.6564
  40299165.70746  31480467.48443  24773108.8914                   24773107.9264
 -16731967.93748 -12959450.66046  21028891.6254                   21028889.1334
 -13188647.39148 -10232586.17247  20290686.3754                   20290684.1454
 -41717709.30146 -32456228.44943  24376600.8754                   24376599.2854
 -36275499.30547 -28212913.12946  21247441.6334                   21247437.2114
 11  7 28  3 23 30.0000000  0  8G29G25G10G26G12G05G04G02
  25042028.43046                  19548030.19144  23266485.0164   23266483.6644
   5423383.20748   4265061.74646  21740007.8984                   21740007.8324
 -19819071.47747 -15391796.93744  22470284.5704                   22470281.9734
  40109029.78946  31332309.71143  24736925.7504                   24736926.1564
 -16788148.54748 -13003227.75446  21018200.7034                   21018197.9884
 -13289519.63748 -10311187.90647  20271491.2894                   20271488.8914
 -41732816.75046 -32468000.53143  24373725.3524                   24373724.3834
 -36336279.15248 -28260274.03946  21235876.1094                   21235871.2234
 11  7 28  3 24  0.0000000  0  8G29G25G10G26G12G05G04G02
  24863420.35547                  19408855.12944  23232497.5004   23232495.8874
   5299722.78948   4168703.00446  21716475.5704                   21716475.7774
 -19824574.44547 -15396084.94944  22469237.1174                   22469234.9184
  39918779.69546  31184062.96943  24700723.1414                   24700722.5234
 -16843795.84048 -13046589.28546  21007611.4924                   21007609.1764
 -13389816.10248 -10389340.98447  20252405.5474                   20252403.2544
 -41747976.11346 -32479813.03943  24370841.9304                   24370839.9694
 -36396939.57447 -28307541.90646  21224332.4384                   21224328.2384
 11  7 28  3 24 30.0000000  0  8G29G25G10G26G12G05G04G02
  24684827.75047                  19269692.09044  23198512.2344   23198510.6764
   5176634.87948   4072790.37146  21693052.6334                   21693052.6844
 -19829746.67647 -15400115.23444  22468252.7194                   22468251.1954
  39728421.67246  31035732.07043  24664499.6094                   24664498.4454
 -16898908.44548 -13089534.18746  20997124.0234                   20997121.3014
 -13489533.60948 -10467042.91847  20233429.6884                   20233427.5004
 -41763184.32847 -32491663.72743  24367947.4454                   24367946.1804
 -36457477.54748 -28354714.36746  21212812.4304                   21212808.5044
 11  7 28  3 25  0.0000000  0  8G29G25G10G26G12G05G04G02
  24506252.89147                  19130542.93045  23164530.7974   23164529.6524
   5054121.53548   3977325.43446  21669739.6254                   21669739.5864
 -19834589.98847 -15403889.26644  22467330.9534                   22467329.2854
  39537959.92246  30887320.38343  24628256.2584                   24628254.4924
 -16953486.76248 -13132062.73846  20986738.5314                   20986735.2154
 -13588671.56648 -10544293.25447  20214564.7274                   20214562.0864
 -41778440.28146 -32503551.44543  24365043.9694                   24365043.2114
 -36517892.53548 -28401790.97746  21201315.8984                   21201311.4344
 11  7 28  3 25 30.0000000  0  8G29G25G10G26G12G05G04G02
  24327695.91447                  18991407.66445  23130552.7814   23130551.9454
   4932181.70748   3882307.40246  21646534.9774                   21646535.0514
 -19839109.12947 -15407410.67244  22466471.1484                   22466469.2504
  39347395.47346  30738828.71543  24591992.1954                   24591991.5744
 -17007534.05148 -13174177.52046  20976453.6094                   20976450.5204
 -13687232.33248 -10621093.84047  20195809.2584                   20195806.6524
 -41793746.36347 -32515478.23043  24362131.7344                   24362130.5904
 -36578186.88748 -28448773.58646  21189842.1804                   21189838.1294
 11  7 28  3 26  0.0000000  0  8G29G25G10G26G12G05G04G02
  24149161.04747                  18852289.63345  23096578.5634   23096576.9884
   4810819.31648   3787739.32446  21623440.4844                   21623440.7234
 -19843303.59847 -15410679.08644  22465673.0314                   22465671.0514
  39156734.60946  30590261.87143  24555710.8754                   24555710.2074
 -17061049.36748 -13215877.77346  20966269.4534                   20966266.6644
 -13785213.27048 -10697442.60247  20177163.7894                   20177161.6374
 -41809099.69147 -32527441.81643  24359210.7734                   24359208.9454
 -36638358.14148 -28495660.26646  21178392.2194                   21178387.5354
 11  7 28  3 26 30.0000000  0  8G29G25G10G26G12G05G04G02
  23970644.96147                  18713186.24645  23062607.9454   23062606.4534
   4690030.26648   3693617.99646  21600455.1334                   21600455.0084
 -19847181.39546 -15413700.75844  22464934.6884                   22464933.0514
  38965975.25446  30441618.27343  24519410.0084                   24519409.7774
 -17114038.62548 -13257168.09446  20956186.1334                   20956182.9534
 -13882619.55148 -10773343.58647  20158628.2194                   20158625.1764
 -41824505.25846 -32539446.10543  24356277.8054                   24356277.4344
 -36698411.85948 -28542455.36346  21166964.1334                   21166959.3404
 11  7 28  3 27  0.0000000  0  8G29G25G10G26G12G05G04G02
  23792152.99247                  18574101.65644  23028641.2034   23028639.8554
   4569819.40648   3599947.22346  21577579.7814                   21577580.1994
 -19850741.23047 -15416474.64144  22464257.5314                   22464255.5704
  38775124.44146  30292903.50043  24483092.2734                   24483091.8594
 -17166499.79748 -13298046.93746  20946203.1024                   20946200.1764
 -13979447.68748 -10848794.07047  20140202.4534                   20140200.1644
 -41839959.41046 -32551488.24643  24353336.3284                   24353336.4344
 -36758344.32848 -28589155.99646  21155559.3834                   21155554.8324
 11  7 28  3 27 30.0000000  0  8G29G25G10G26G12G05G04G02
  23613686.74647                  18435037.11745  22994681.4064   22994678.9614
   4450187.45748   3506727.53146  21554814.1564                   21554814.7974
 -19853986.31247 -15419003.27744  22463639.8134                   22463638.3914
  38584185.06346  30144119.62543  24446757.8444                   24446757.9774
 -17218434.82848 -13338515.78546  20936320.3444                   20936317.1374
 -14075698.16448 -10923794.42647  20121886.4924                   20121883.9964
 -41855462.55546 -32563568.58242  24350386.0084                   24350385.8284
 -36818155.91848 -28635762.43046  21144177.9304                   21144173.5274
 11  7 28  3 28  0.0000000  0  8G29G25G10G26G12G05G04G02
  25010673.07447                  19523597.95744  23260518.0784   23260516.2734
   5906558.42648   4641562.08246  21831952.4774                   21831952.5354
 -18281499.70347 -14193689.02744  22762875.1644                   22762872.0434
  39968586.10247  31222873.76643  24710200.0704                   24710199.6684
 -15694424.20348 -12150975.03146  21226330.1254                   21226327.1024
 -12595949.07848  -9770743.18047  20403472.9694                   20403470.7704
 -40295594.75446 -31348087.12143  24647219.8444                   24647219.3014
 -35302425.85248 -27454674.07046  21432611.6564                   21432607.6214
 11  7 28  3 28 30.0000000  0  8G29G25G10G26G12G05G04G02
  24832264.54347                  19384578.38744  23226568.2274   23226566.7304
   5788088.40648   4549247.79346  21809408.4614                   21809408.7504
 -18284121.15647 -14195731.70744  22762376.2974                   22762373.5664
  39777481.02046  31073960.82843  24673834.4144                   24673833.4454
 -15745309.64548 -12190626.02346  21216646.6024                   21216644.0394
 -12691043.69548  -9844842.86347  20385377.4694                   20385375.2344
 -40311194.13746 -31360242.46143  24644251.2194                   24644250.2894
 -35361995.43448 -27501091.91846  21421275.8594                   21421271.5394
 11  7 28  3 29  0.0000000  0  8G29G25G10G26G12G05G04G02
  24653888.00047                  19245583.77044  23192624.3834   23192622.2584
   5670201.31348   4457387.73846  21786975.3054                   21786975.3754
 -18286434.06647 -14197533.97344  22761935.2664                   22761933.9964
  39586298.70746  30924987.69943  24637453.0394                   24637452.7194
 -15795672.15248 -12229869.54746  21207063.1564                   21207060.6054
 -12785560.49248  -9918492.29747  20367391.5164                   20367388.9104
 -40326841.04346 -31372434.80143  24641274.2194                   24641272.4574
 -35421443.90248 -27547415.40246  21409963.1254                   21409958.6024
 11  7 28  3 29 30.0000000  0  8G29G25G10G26G12G05G04G02
  24475542.59846                  19106613.37944  23158686.0704   23158684.4064
   5552895.23048   4365980.43046  21764652.4844                   21764652.7774
 -18288444.00447 -14199100.18044  22761553.2664                   22761551.5124
  39395039.33246  30775954.48042  24601057.2814                   24601056.9654
 -15845516.09848 -12268708.99246  21197578.2424                   21197575.4064
 -12879502.40648  -9991693.78147  20349514.9064                   20349512.2504
 -40342538.45746 -31384666.46143  24638286.8444                   24638286.0234
 -35480774.44947 -27593647.00046  21398672.8984                   21398668.1024
